<?xml version="1.0" encoding="UTF-8" standalone="no" ?>
<gpx xmlns="http://www.topografix.com/GPX/1/1" xmlns:xsi="http://www.w3.org/2001/XMLSchema-instance" xsi:schemaLocation="http://www.topografix.com/GPX/1/1 http://www.topografix.com/GPX/1/1/gpx.xsd" version="1.1" creator="VisuGPX - https://www.visugpx.com">
  <metadata>
    <name>Bouconville-vauclair</name>
    <desc><![CDATA[Randonnée bouconville-Vauclair]]></desc>
  </metadata>
  <trk>
    <name><![CDATA[23/11/2015 13:51]]></name>
    <desc><![CDATA[]]></desc>
    <trkseg>
      <trkpt lat="49.46535" lon="3.75333">
        <ele>167.9</ele>
        <time>2015-11-23T12:51:24.845Z</time>
      </trkpt>
      <trkpt lat="49.46529" lon="3.75329">
        <ele>168.4</ele>
        <time>2015-11-23T12:51:46.916Z</time>
      </trkpt>
      <trkpt lat="49.46529" lon="3.75329">
        <ele>168.5</ele>
        <time>2015-11-23T12:51:47.675Z</time>
      </trkpt>
      <trkpt lat="49.46529" lon="3.75329">
        <ele>169.2</ele>
        <time>2015-11-23T12:52:21.673Z</time>
      </trkpt>
      <trkpt lat="49.4653" lon="3.75328">
        <ele>169.1</ele>
        <time>2015-11-23T12:52:22.667Z</time>
      </trkpt>
      <trkpt lat="49.4653" lon="3.75328">
        <ele>169.1</ele>
        <time>2015-11-23T12:52:22.684Z</time>
      </trkpt>
      <trkpt lat="49.46531" lon="3.75329">
        <ele>168.8</ele>
        <time>2015-11-23T12:52:23.680Z</time>
      </trkpt>
      <trkpt lat="49.46531" lon="3.75329">
        <ele>169.3</ele>
        <time>2015-11-23T12:52:26.592Z</time>
      </trkpt>
      <trkpt lat="49.46531" lon="3.7533">
        <ele>169.3</ele>
        <time>2015-11-23T12:52:27.656Z</time>
      </trkpt>
      <trkpt lat="49.46535" lon="3.75339">
        <ele>164.8</ele>
        <time>2015-11-23T12:53:54.688Z</time>
      </trkpt>
      <trkpt lat="49.46535" lon="3.75338">
        <ele>164.7</ele>
        <time>2015-11-23T12:53:55.581Z</time>
      </trkpt>
      <trkpt lat="49.46535" lon="3.75338">
        <ele>164.7</ele>
        <time>2015-11-23T12:54:10.623Z</time>
      </trkpt>
      <trkpt lat="49.46537" lon="3.75339">
        <ele>164</ele>
        <time>2015-11-23T12:54:11.614Z</time>
      </trkpt>
      <trkpt lat="49.46538" lon="3.75341">
        <ele>163.3</ele>
        <time>2015-11-23T12:54:13.649Z</time>
      </trkpt>
      <trkpt lat="49.46538" lon="3.75341">
        <ele>163.1</ele>
        <time>2015-11-23T12:54:14.640Z</time>
      </trkpt>
      <trkpt lat="49.46538" lon="3.75341">
        <ele>163</ele>
        <time>2015-11-23T12:54:16.680Z</time>
      </trkpt>
      <trkpt lat="49.46538" lon="3.75341">
        <ele>162.9</ele>
        <time>2015-11-23T12:54:17.670Z</time>
      </trkpt>
      <trkpt lat="49.46538" lon="3.75341">
        <ele>162.9</ele>
        <time>2015-11-23T12:54:17.681Z</time>
      </trkpt>
      <trkpt lat="49.46538" lon="3.75341">
        <ele>163</ele>
        <time>2015-11-23T12:54:18.683Z</time>
      </trkpt>
      <trkpt lat="49.46538" lon="3.75342">
        <ele>162.6</ele>
        <time>2015-11-23T12:54:41.628Z</time>
      </trkpt>
      <trkpt lat="49.46536" lon="3.75342">
        <ele>162.2</ele>
        <time>2015-11-23T12:54:42.636Z</time>
      </trkpt>
      <trkpt lat="49.46536" lon="3.75342">
        <ele>162.2</ele>
        <time>2015-11-23T12:54:49.595Z</time>
      </trkpt>
      <trkpt lat="49.46536" lon="3.75342">
        <ele>162.1</ele>
        <time>2015-11-23T12:54:50.586Z</time>
      </trkpt>
      <trkpt lat="49.46536" lon="3.75342">
        <ele>162.1</ele>
        <time>2015-11-23T12:54:50.598Z</time>
      </trkpt>
      <trkpt lat="49.46536" lon="3.75342">
        <ele>162</ele>
        <time>2015-11-23T12:54:51.598Z</time>
      </trkpt>
      <trkpt lat="49.46538" lon="3.75329">
        <ele>160.3</ele>
        <time>2015-11-23T12:59:04.679Z</time>
      </trkpt>
      <trkpt lat="49.46538" lon="3.75328">
        <ele>160.4</ele>
        <time>2015-11-23T12:59:05.669Z</time>
      </trkpt>
      <trkpt lat="49.4654" lon="3.75324">
        <ele>160.5</ele>
        <time>2015-11-23T12:59:08.608Z</time>
      </trkpt>
      <trkpt lat="49.4654" lon="3.75324">
        <ele>160.5</ele>
        <time>2015-11-23T12:59:09.591Z</time>
      </trkpt>
      <trkpt lat="49.4654" lon="3.75324">
        <ele>160.5</ele>
        <time>2015-11-23T12:59:09.608Z</time>
      </trkpt>
      <trkpt lat="49.4654" lon="3.75323">
        <ele>160.6</ele>
        <time>2015-11-23T12:59:10.605Z</time>
      </trkpt>
      <trkpt lat="49.46542" lon="3.7531">
        <ele>160</ele>
        <time>2015-11-23T12:59:36.684Z</time>
      </trkpt>
      <trkpt lat="49.46542" lon="3.75309">
        <ele>160</ele>
        <time>2015-11-23T12:59:37.676Z</time>
      </trkpt>
      <trkpt lat="49.46544" lon="3.75305">
        <ele>160.3</ele>
        <time>2015-11-23T12:59:43.653Z</time>
      </trkpt>
      <trkpt lat="49.46544" lon="3.75305">
        <ele>160.6</ele>
        <time>2015-11-23T12:59:44.657Z</time>
      </trkpt>
      <trkpt lat="49.46543" lon="3.75306">
        <ele>160.7</ele>
        <time>2015-11-23T13:02:13.656Z</time>
      </trkpt>
      <trkpt lat="49.4654" lon="3.75314">
        <ele>161.9</ele>
        <time>2015-11-23T13:02:14.650Z</time>
      </trkpt>
      <trkpt lat="49.4654" lon="3.75313">
        <ele>161.9</ele>
        <time>2015-11-23T13:02:19.602Z</time>
      </trkpt>
      <trkpt lat="49.46541" lon="3.75314">
        <ele>162</ele>
        <time>2015-11-23T13:02:20.596Z</time>
      </trkpt>
      <trkpt lat="49.46541" lon="3.75314">
        <ele>162</ele>
        <time>2015-11-23T13:02:20.614Z</time>
      </trkpt>
      <trkpt lat="49.4654" lon="3.75314">
        <ele>162</ele>
        <time>2015-11-23T13:02:21.602Z</time>
      </trkpt>
      <trkpt lat="49.4654" lon="3.75319">
        <ele>160.4</ele>
        <time>2015-11-23T13:06:54.695Z</time>
      </trkpt>
      <trkpt lat="49.4654" lon="3.75318">
        <ele>160.3</ele>
        <time>2015-11-23T13:06:55.578Z</time>
      </trkpt>
      <trkpt lat="49.4654" lon="3.75318">
        <ele>160.3</ele>
        <time>2015-11-23T13:06:55.590Z</time>
      </trkpt>
      <trkpt lat="49.4654" lon="3.75318">
        <ele>160.3</ele>
        <time>2015-11-23T13:06:56.587Z</time>
      </trkpt>
      <trkpt lat="49.4654" lon="3.75318">
        <ele>160.3</ele>
        <time>2015-11-23T13:06:56.613Z</time>
      </trkpt>
      <trkpt lat="49.4654" lon="3.75318">
        <ele>160.2</ele>
        <time>2015-11-23T13:06:57.596Z</time>
      </trkpt>
      <trkpt lat="49.46539" lon="3.75318">
        <ele>160</ele>
        <time>2015-11-23T13:07:25.662Z</time>
      </trkpt>
      <trkpt lat="49.46538" lon="3.75316">
        <ele>159.1</ele>
        <time>2015-11-23T13:07:26.651Z</time>
      </trkpt>
      <trkpt lat="49.46538" lon="3.75314">
        <ele>159.1</ele>
        <time>2015-11-23T13:07:29.612Z</time>
      </trkpt>
      <trkpt lat="49.46537" lon="3.75314">
        <ele>159.2</ele>
        <time>2015-11-23T13:07:30.689Z</time>
      </trkpt>
      <trkpt lat="49.46537" lon="3.75314">
        <ele>159</ele>
        <time>2015-11-23T13:07:53.600Z</time>
      </trkpt>
      <trkpt lat="49.46534" lon="3.75309">
        <ele>157.9</ele>
        <time>2015-11-23T13:07:54.689Z</time>
      </trkpt>
      <trkpt lat="49.46527" lon="3.75303">
        <ele>156.9</ele>
        <time>2015-11-23T13:08:06.702Z</time>
      </trkpt>
      <trkpt lat="49.46526" lon="3.75302">
        <ele>156.9</ele>
        <time>2015-11-23T13:08:07.587Z</time>
      </trkpt>
      <trkpt lat="49.46525" lon="3.75289">
        <ele>157.4</ele>
        <time>2015-11-23T13:08:16.604Z</time>
      </trkpt>
      <trkpt lat="49.46525" lon="3.75287">
        <ele>157.3</ele>
        <time>2015-11-23T13:08:17.589Z</time>
      </trkpt>
      <trkpt lat="49.46528" lon="3.75275">
        <ele>157.5</ele>
        <time>2015-11-23T13:08:26.673Z</time>
      </trkpt>
      <trkpt lat="49.46528" lon="3.75274">
        <ele>157.5</ele>
        <time>2015-11-23T13:08:27.663Z</time>
      </trkpt>
      <trkpt lat="49.46529" lon="3.75261">
        <ele>157.6</ele>
        <time>2015-11-23T13:08:34.687Z</time>
      </trkpt>
      <trkpt lat="49.4653" lon="3.7526">
        <ele>157.6</ele>
        <time>2015-11-23T13:08:35.680Z</time>
      </trkpt>
      <trkpt lat="49.46533" lon="3.75249">
        <ele>157.8</ele>
        <time>2015-11-23T13:08:40.624Z</time>
      </trkpt>
      <trkpt lat="49.46534" lon="3.75246">
        <ele>157.7</ele>
        <time>2015-11-23T13:08:41.617Z</time>
      </trkpt>
      <trkpt lat="49.46534" lon="3.75234">
        <ele>157.6</ele>
        <time>2015-11-23T13:08:47.601Z</time>
      </trkpt>
      <trkpt lat="49.46535" lon="3.75232">
        <ele>157.4</ele>
        <time>2015-11-23T13:08:48.636Z</time>
      </trkpt>
      <trkpt lat="49.46539" lon="3.75222">
        <ele>157.7</ele>
        <time>2015-11-23T13:08:57.697Z</time>
      </trkpt>
      <trkpt lat="49.4654" lon="3.7522">
        <ele>157.6</ele>
        <time>2015-11-23T13:08:58.590Z</time>
      </trkpt>
      <trkpt lat="49.46545" lon="3.7521">
        <ele>157.1</ele>
        <time>2015-11-23T13:09:05.703Z</time>
      </trkpt>
      <trkpt lat="49.46546" lon="3.75208">
        <ele>157.1</ele>
        <time>2015-11-23T13:09:06.693Z</time>
      </trkpt>
      <trkpt lat="49.46549" lon="3.75197">
        <ele>157.9</ele>
        <time>2015-11-23T13:09:12.649Z</time>
      </trkpt>
      <trkpt lat="49.4655" lon="3.75195">
        <ele>158.1</ele>
        <time>2015-11-23T13:09:13.647Z</time>
      </trkpt>
      <trkpt lat="49.46555" lon="3.75185">
        <ele>158.2</ele>
        <time>2015-11-23T13:09:19.603Z</time>
      </trkpt>
      <trkpt lat="49.46555" lon="3.75184">
        <ele>158.3</ele>
        <time>2015-11-23T13:09:20.601Z</time>
      </trkpt>
      <trkpt lat="49.46563" lon="3.75176">
        <ele>159.3</ele>
        <time>2015-11-23T13:09:27.690Z</time>
      </trkpt>
      <trkpt lat="49.46564" lon="3.75175">
        <ele>159.4</ele>
        <time>2015-11-23T13:09:28.681Z</time>
      </trkpt>
      <trkpt lat="49.4657" lon="3.75165">
        <ele>160.4</ele>
        <time>2015-11-23T13:09:36.644Z</time>
      </trkpt>
      <trkpt lat="49.46571" lon="3.75163">
        <ele>160.4</ele>
        <time>2015-11-23T13:09:37.635Z</time>
      </trkpt>
      <trkpt lat="49.46577" lon="3.75154">
        <ele>160.8</ele>
        <time>2015-11-23T13:09:43.600Z</time>
      </trkpt>
      <trkpt lat="49.46579" lon="3.75153">
        <ele>161</ele>
        <time>2015-11-23T13:09:44.589Z</time>
      </trkpt>
      <trkpt lat="49.46585" lon="3.75145">
        <ele>161.5</ele>
        <time>2015-11-23T13:09:52.685Z</time>
      </trkpt>
      <trkpt lat="49.46586" lon="3.75144">
        <ele>161.5</ele>
        <time>2015-11-23T13:09:53.677Z</time>
      </trkpt>
      <trkpt lat="49.46591" lon="3.75134">
        <ele>161.6</ele>
        <time>2015-11-23T13:10:02.677Z</time>
      </trkpt>
      <trkpt lat="49.46592" lon="3.75134">
        <ele>161.6</ele>
        <time>2015-11-23T13:10:03.670Z</time>
      </trkpt>
      <trkpt lat="49.46599" lon="3.75127">
        <ele>161.4</ele>
        <time>2015-11-23T13:10:11.686Z</time>
      </trkpt>
      <trkpt lat="49.46601" lon="3.75126">
        <ele>161.3</ele>
        <time>2015-11-23T13:10:12.679Z</time>
      </trkpt>
      <trkpt lat="49.46605" lon="3.75121">
        <ele>161.3</ele>
        <time>2015-11-23T13:10:19.660Z</time>
      </trkpt>
      <trkpt lat="49.46606" lon="3.75121">
        <ele>161.4</ele>
        <time>2015-11-23T13:10:20.656Z</time>
      </trkpt>
      <trkpt lat="49.46606" lon="3.75121">
        <ele>161.4</ele>
        <time>2015-11-23T13:10:20.676Z</time>
      </trkpt>
      <trkpt lat="49.46606" lon="3.75122">
        <ele>161.6</ele>
        <time>2015-11-23T13:10:21.661Z</time>
      </trkpt>
      <trkpt lat="49.46612" lon="3.75112">
        <ele>162.4</ele>
        <time>2015-11-23T13:10:30.644Z</time>
      </trkpt>
      <trkpt lat="49.46612" lon="3.75111">
        <ele>162.5</ele>
        <time>2015-11-23T13:10:31.644Z</time>
      </trkpt>
      <trkpt lat="49.46618" lon="3.75102">
        <ele>162.7</ele>
        <time>2015-11-23T13:10:38.666Z</time>
      </trkpt>
      <trkpt lat="49.46618" lon="3.75101">
        <ele>162.8</ele>
        <time>2015-11-23T13:10:39.660Z</time>
      </trkpt>
      <trkpt lat="49.46622" lon="3.75091">
        <ele>162.8</ele>
        <time>2015-11-23T13:10:46.666Z</time>
      </trkpt>
      <trkpt lat="49.46623" lon="3.75089">
        <ele>162.8</ele>
        <time>2015-11-23T13:10:47.638Z</time>
      </trkpt>
      <trkpt lat="49.46626" lon="3.75076">
        <ele>162.9</ele>
        <time>2015-11-23T13:10:54.646Z</time>
      </trkpt>
      <trkpt lat="49.46626" lon="3.75075">
        <ele>163</ele>
        <time>2015-11-23T13:10:55.639Z</time>
      </trkpt>
      <trkpt lat="49.46625" lon="3.75062">
        <ele>164</ele>
        <time>2015-11-23T13:11:02.678Z</time>
      </trkpt>
      <trkpt lat="49.46624" lon="3.7506">
        <ele>164.1</ele>
        <time>2015-11-23T13:11:03.665Z</time>
      </trkpt>
      <trkpt lat="49.46621" lon="3.75048">
        <ele>164.4</ele>
        <time>2015-11-23T13:11:09.622Z</time>
      </trkpt>
      <trkpt lat="49.4662" lon="3.75046">
        <ele>164.7</ele>
        <time>2015-11-23T13:11:10.608Z</time>
      </trkpt>
      <trkpt lat="49.46615" lon="3.75036">
        <ele>165.4</ele>
        <time>2015-11-23T13:11:16.692Z</time>
      </trkpt>
      <trkpt lat="49.46614" lon="3.75034">
        <ele>165.7</ele>
        <time>2015-11-23T13:11:17.677Z</time>
      </trkpt>
      <trkpt lat="49.4661" lon="3.75022">
        <ele>166</ele>
        <time>2015-11-23T13:11:25.659Z</time>
      </trkpt>
      <trkpt lat="49.46609" lon="3.7502">
        <ele>166.1</ele>
        <time>2015-11-23T13:11:26.645Z</time>
      </trkpt>
      <trkpt lat="49.46604" lon="3.7501">
        <ele>166.3</ele>
        <time>2015-11-23T13:11:33.605Z</time>
      </trkpt>
      <trkpt lat="49.46604" lon="3.75008">
        <ele>166.3</ele>
        <time>2015-11-23T13:11:34.608Z</time>
      </trkpt>
      <trkpt lat="49.46598" lon="3.74998">
        <ele>166.5</ele>
        <time>2015-11-23T13:11:41.694Z</time>
      </trkpt>
      <trkpt lat="49.46598" lon="3.74997">
        <ele>166.7</ele>
        <time>2015-11-23T13:11:42.682Z</time>
      </trkpt>
      <trkpt lat="49.46592" lon="3.74987">
        <ele>167</ele>
        <time>2015-11-23T13:11:49.696Z</time>
      </trkpt>
      <trkpt lat="49.46591" lon="3.74985">
        <ele>166.9</ele>
        <time>2015-11-23T13:11:50.591Z</time>
      </trkpt>
      <trkpt lat="49.46585" lon="3.74976">
        <ele>166.5</ele>
        <time>2015-11-23T13:11:58.683Z</time>
      </trkpt>
      <trkpt lat="49.46584" lon="3.74974">
        <ele>166.3</ele>
        <time>2015-11-23T13:11:59.676Z</time>
      </trkpt>
      <trkpt lat="49.46579" lon="3.74963">
        <ele>166</ele>
        <time>2015-11-23T13:12:07.666Z</time>
      </trkpt>
      <trkpt lat="49.46578" lon="3.74962">
        <ele>166.1</ele>
        <time>2015-11-23T13:12:08.652Z</time>
      </trkpt>
      <trkpt lat="49.46574" lon="3.74951">
        <ele>166.5</ele>
        <time>2015-11-23T13:12:15.684Z</time>
      </trkpt>
      <trkpt lat="49.46573" lon="3.7495">
        <ele>166.5</ele>
        <time>2015-11-23T13:12:16.672Z</time>
      </trkpt>
      <trkpt lat="49.46571" lon="3.74938">
        <ele>166.7</ele>
        <time>2015-11-23T13:12:23.633Z</time>
      </trkpt>
      <trkpt lat="49.4657" lon="3.74935">
        <ele>166.6</ele>
        <time>2015-11-23T13:12:24.637Z</time>
      </trkpt>
      <trkpt lat="49.4657" lon="3.74923">
        <ele>166.5</ele>
        <time>2015-11-23T13:12:31.655Z</time>
      </trkpt>
      <trkpt lat="49.4657" lon="3.74921">
        <ele>166.4</ele>
        <time>2015-11-23T13:12:32.648Z</time>
      </trkpt>
      <trkpt lat="49.46571" lon="3.74908">
        <ele>164.9</ele>
        <time>2015-11-23T13:12:40.634Z</time>
      </trkpt>
      <trkpt lat="49.4657" lon="3.74906">
        <ele>164.7</ele>
        <time>2015-11-23T13:12:41.627Z</time>
      </trkpt>
      <trkpt lat="49.4657" lon="3.74893">
        <ele>164</ele>
        <time>2015-11-23T13:12:49.601Z</time>
      </trkpt>
      <trkpt lat="49.4657" lon="3.74892">
        <ele>163.9</ele>
        <time>2015-11-23T13:12:50.592Z</time>
      </trkpt>
      <trkpt lat="49.46569" lon="3.74879">
        <ele>163.3</ele>
        <time>2015-11-23T13:12:58.689Z</time>
      </trkpt>
      <trkpt lat="49.46569" lon="3.74878">
        <ele>163.3</ele>
        <time>2015-11-23T13:12:59.596Z</time>
      </trkpt>
      <trkpt lat="49.46566" lon="3.74865">
        <ele>163.2</ele>
        <time>2015-11-23T13:13:06.652Z</time>
      </trkpt>
      <trkpt lat="49.46566" lon="3.74863">
        <ele>163.2</ele>
        <time>2015-11-23T13:13:07.651Z</time>
      </trkpt>
      <trkpt lat="49.46563" lon="3.7485">
        <ele>163.4</ele>
        <time>2015-11-23T13:13:14.668Z</time>
      </trkpt>
      <trkpt lat="49.46562" lon="3.74848">
        <ele>163.4</ele>
        <time>2015-11-23T13:13:15.655Z</time>
      </trkpt>
      <trkpt lat="49.46559" lon="3.74835">
        <ele>163.2</ele>
        <time>2015-11-23T13:13:24.647Z</time>
      </trkpt>
      <trkpt lat="49.46558" lon="3.74834">
        <ele>163.3</ele>
        <time>2015-11-23T13:13:25.645Z</time>
      </trkpt>
      <trkpt lat="49.46558" lon="3.74821">
        <ele>161</ele>
        <time>2015-11-23T13:13:34.634Z</time>
      </trkpt>
      <trkpt lat="49.46558" lon="3.74819">
        <ele>160.7</ele>
        <time>2015-11-23T13:13:35.619Z</time>
      </trkpt>
      <trkpt lat="49.46561" lon="3.74808">
        <ele>160.4</ele>
        <time>2015-11-23T13:13:42.695Z</time>
      </trkpt>
      <trkpt lat="49.46561" lon="3.74806">
        <ele>160.2</ele>
        <time>2015-11-23T13:13:43.590Z</time>
      </trkpt>
      <trkpt lat="49.46562" lon="3.74793">
        <ele>159</ele>
        <time>2015-11-23T13:13:50.678Z</time>
      </trkpt>
      <trkpt lat="49.46562" lon="3.74791">
        <ele>158.8</ele>
        <time>2015-11-23T13:13:51.668Z</time>
      </trkpt>
      <trkpt lat="49.46561" lon="3.74779">
        <ele>158.4</ele>
        <time>2015-11-23T13:13:58.629Z</time>
      </trkpt>
      <trkpt lat="49.4656" lon="3.74777">
        <ele>158.3</ele>
        <time>2015-11-23T13:13:59.620Z</time>
      </trkpt>
      <trkpt lat="49.46558" lon="3.74765">
        <ele>157.8</ele>
        <time>2015-11-23T13:14:06.696Z</time>
      </trkpt>
      <trkpt lat="49.46558" lon="3.74763">
        <ele>157.7</ele>
        <time>2015-11-23T13:14:07.590Z</time>
      </trkpt>
      <trkpt lat="49.46556" lon="3.7475">
        <ele>156.9</ele>
        <time>2015-11-23T13:14:17.590Z</time>
      </trkpt>
      <trkpt lat="49.46557" lon="3.74749">
        <ele>156.9</ele>
        <time>2015-11-23T13:14:18.637Z</time>
      </trkpt>
      <trkpt lat="49.46556" lon="3.74735">
        <ele>157</ele>
        <time>2015-11-23T13:14:26.615Z</time>
      </trkpt>
      <trkpt lat="49.46556" lon="3.74734">
        <ele>157</ele>
        <time>2015-11-23T13:14:27.606Z</time>
      </trkpt>
      <trkpt lat="49.46556" lon="3.74721">
        <ele>155.8</ele>
        <time>2015-11-23T13:14:34.603Z</time>
      </trkpt>
      <trkpt lat="49.46556" lon="3.74719">
        <ele>155.5</ele>
        <time>2015-11-23T13:14:35.589Z</time>
      </trkpt>
      <trkpt lat="49.46555" lon="3.74706">
        <ele>154.7</ele>
        <time>2015-11-23T13:14:42.694Z</time>
      </trkpt>
      <trkpt lat="49.46555" lon="3.74704">
        <ele>154.8</ele>
        <time>2015-11-23T13:14:43.593Z</time>
      </trkpt>
      <trkpt lat="49.46555" lon="3.74692">
        <ele>155.3</ele>
        <time>2015-11-23T13:14:50.669Z</time>
      </trkpt>
      <trkpt lat="49.46555" lon="3.7469">
        <ele>155.5</ele>
        <time>2015-11-23T13:14:51.660Z</time>
      </trkpt>
      <trkpt lat="49.46556" lon="3.74677">
        <ele>156.2</ele>
        <time>2015-11-23T13:14:59.646Z</time>
      </trkpt>
      <trkpt lat="49.46557" lon="3.74675">
        <ele>156.1</ele>
        <time>2015-11-23T13:15:00.626Z</time>
      </trkpt>
      <trkpt lat="49.46561" lon="3.74664">
        <ele>156.2</ele>
        <time>2015-11-23T13:15:07.602Z</time>
      </trkpt>
      <trkpt lat="49.46561" lon="3.74662">
        <ele>156.2</ele>
        <time>2015-11-23T13:15:08.596Z</time>
      </trkpt>
      <trkpt lat="49.46565" lon="3.7465">
        <ele>156.7</ele>
        <time>2015-11-23T13:15:15.688Z</time>
      </trkpt>
      <trkpt lat="49.46565" lon="3.74648">
        <ele>156.7</ele>
        <time>2015-11-23T13:15:16.677Z</time>
      </trkpt>
      <trkpt lat="49.46567" lon="3.74635">
        <ele>156.3</ele>
        <time>2015-11-23T13:15:22.794Z</time>
      </trkpt>
      <trkpt lat="49.46567" lon="3.74633">
        <ele>156.2</ele>
        <time>2015-11-23T13:15:23.623Z</time>
      </trkpt>
      <trkpt lat="49.46569" lon="3.74621">
        <ele>155.7</ele>
        <time>2015-11-23T13:15:29.585Z</time>
      </trkpt>
      <trkpt lat="49.46569" lon="3.74618">
        <ele>155.9</ele>
        <time>2015-11-23T13:15:30.640Z</time>
      </trkpt>
      <trkpt lat="49.46572" lon="3.74606">
        <ele>155.9</ele>
        <time>2015-11-23T13:15:37.672Z</time>
      </trkpt>
      <trkpt lat="49.46573" lon="3.74605">
        <ele>156.1</ele>
        <time>2015-11-23T13:15:38.660Z</time>
      </trkpt>
      <trkpt lat="49.46577" lon="3.74593">
        <ele>155.4</ele>
        <time>2015-11-23T13:15:45.670Z</time>
      </trkpt>
      <trkpt lat="49.46577" lon="3.74591">
        <ele>155.4</ele>
        <time>2015-11-23T13:15:46.676Z</time>
      </trkpt>
      <trkpt lat="49.46581" lon="3.7458">
        <ele>155</ele>
        <time>2015-11-23T13:15:52.638Z</time>
      </trkpt>
      <trkpt lat="49.46581" lon="3.74578">
        <ele>155</ele>
        <time>2015-11-23T13:15:53.626Z</time>
      </trkpt>
      <trkpt lat="49.46584" lon="3.74566">
        <ele>155.2</ele>
        <time>2015-11-23T13:16:00.709Z</time>
      </trkpt>
      <trkpt lat="49.46584" lon="3.74564">
        <ele>155.1</ele>
        <time>2015-11-23T13:16:01.589Z</time>
      </trkpt>
      <trkpt lat="49.46587" lon="3.74552">
        <ele>154.8</ele>
        <time>2015-11-23T13:16:08.681Z</time>
      </trkpt>
      <trkpt lat="49.46587" lon="3.74551">
        <ele>154.7</ele>
        <time>2015-11-23T13:16:09.664Z</time>
      </trkpt>
      <trkpt lat="49.46589" lon="3.74538">
        <ele>154.6</ele>
        <time>2015-11-23T13:16:17.713Z</time>
      </trkpt>
      <trkpt lat="49.4659" lon="3.74536">
        <ele>154.8</ele>
        <time>2015-11-23T13:16:18.638Z</time>
      </trkpt>
      <trkpt lat="49.46593" lon="3.74525">
        <ele>154.9</ele>
        <time>2015-11-23T13:16:24.716Z</time>
      </trkpt>
      <trkpt lat="49.46594" lon="3.74523">
        <ele>154.7</ele>
        <time>2015-11-23T13:16:25.592Z</time>
      </trkpt>
      <trkpt lat="49.46597" lon="3.74512">
        <ele>154.9</ele>
        <time>2015-11-23T13:16:31.652Z</time>
      </trkpt>
      <trkpt lat="49.46597" lon="3.7451">
        <ele>154.8</ele>
        <time>2015-11-23T13:16:32.655Z</time>
      </trkpt>
      <trkpt lat="49.46602" lon="3.74501">
        <ele>155.3</ele>
        <time>2015-11-23T13:16:38.645Z</time>
      </trkpt>
      <trkpt lat="49.46603" lon="3.74499">
        <ele>155.5</ele>
        <time>2015-11-23T13:16:39.654Z</time>
      </trkpt>
      <trkpt lat="49.46606" lon="3.74486">
        <ele>154.9</ele>
        <time>2015-11-23T13:16:47.653Z</time>
      </trkpt>
      <trkpt lat="49.46607" lon="3.74484">
        <ele>154.9</ele>
        <time>2015-11-23T13:16:48.639Z</time>
      </trkpt>
      <trkpt lat="49.46609" lon="3.74471">
        <ele>154.9</ele>
        <time>2015-11-23T13:16:55.667Z</time>
      </trkpt>
      <trkpt lat="49.4661" lon="3.7447">
        <ele>155</ele>
        <time>2015-11-23T13:16:56.654Z</time>
      </trkpt>
      <trkpt lat="49.46611" lon="3.74457">
        <ele>155.9</ele>
        <time>2015-11-23T13:17:03.620Z</time>
      </trkpt>
      <trkpt lat="49.46612" lon="3.74455">
        <ele>155.9</ele>
        <time>2015-11-23T13:17:04.609Z</time>
      </trkpt>
      <trkpt lat="49.46616" lon="3.74443">
        <ele>156.1</ele>
        <time>2015-11-23T13:17:12.704Z</time>
      </trkpt>
      <trkpt lat="49.46616" lon="3.74441">
        <ele>155.9</ele>
        <time>2015-11-23T13:17:13.589Z</time>
      </trkpt>
      <trkpt lat="49.46619" lon="3.7443">
        <ele>156.1</ele>
        <time>2015-11-23T13:17:21.677Z</time>
      </trkpt>
      <trkpt lat="49.4662" lon="3.74429">
        <ele>156.1</ele>
        <time>2015-11-23T13:17:22.670Z</time>
      </trkpt>
      <trkpt lat="49.46624" lon="3.74417">
        <ele>156.5</ele>
        <time>2015-11-23T13:17:30.647Z</time>
      </trkpt>
      <trkpt lat="49.46625" lon="3.74415">
        <ele>156.6</ele>
        <time>2015-11-23T13:17:31.646Z</time>
      </trkpt>
      <trkpt lat="49.46629" lon="3.74403">
        <ele>157</ele>
        <time>2015-11-23T13:17:39.632Z</time>
      </trkpt>
      <trkpt lat="49.46629" lon="3.74401">
        <ele>157</ele>
        <time>2015-11-23T13:17:40.622Z</time>
      </trkpt>
      <trkpt lat="49.46633" lon="3.74389">
        <ele>156.8</ele>
        <time>2015-11-23T13:17:48.647Z</time>
      </trkpt>
      <trkpt lat="49.46634" lon="3.74387">
        <ele>156.8</ele>
        <time>2015-11-23T13:17:49.639Z</time>
      </trkpt>
      <trkpt lat="49.46637" lon="3.74376">
        <ele>157.4</ele>
        <time>2015-11-23T13:17:56.615Z</time>
      </trkpt>
      <trkpt lat="49.46638" lon="3.74375">
        <ele>157.4</ele>
        <time>2015-11-23T13:17:57.606Z</time>
      </trkpt>
      <trkpt lat="49.46641" lon="3.74362">
        <ele>158</ele>
        <time>2015-11-23T13:18:05.610Z</time>
      </trkpt>
      <trkpt lat="49.46642" lon="3.74361">
        <ele>158.1</ele>
        <time>2015-11-23T13:18:06.637Z</time>
      </trkpt>
      <trkpt lat="49.46644" lon="3.74348">
        <ele>157.9</ele>
        <time>2015-11-23T13:18:14.614Z</time>
      </trkpt>
      <trkpt lat="49.46644" lon="3.74347">
        <ele>158</ele>
        <time>2015-11-23T13:18:15.604Z</time>
      </trkpt>
      <trkpt lat="49.46644" lon="3.74334">
        <ele>158.9</ele>
        <time>2015-11-23T13:18:22.690Z</time>
      </trkpt>
      <trkpt lat="49.46645" lon="3.74331">
        <ele>159</ele>
        <time>2015-11-23T13:18:23.580Z</time>
      </trkpt>
      <trkpt lat="49.46645" lon="3.74319">
        <ele>160.3</ele>
        <time>2015-11-23T13:18:30.689Z</time>
      </trkpt>
      <trkpt lat="49.46645" lon="3.74317">
        <ele>160.3</ele>
        <time>2015-11-23T13:18:31.678Z</time>
      </trkpt>
      <trkpt lat="49.46646" lon="3.74304">
        <ele>160.3</ele>
        <time>2015-11-23T13:18:39.794Z</time>
      </trkpt>
      <trkpt lat="49.46646" lon="3.74302">
        <ele>160.3</ele>
        <time>2015-11-23T13:18:40.578Z</time>
      </trkpt>
      <trkpt lat="49.46645" lon="3.74289">
        <ele>159.8</ele>
        <time>2015-11-23T13:18:47.599Z</time>
      </trkpt>
      <trkpt lat="49.46645" lon="3.74287">
        <ele>159.9</ele>
        <time>2015-11-23T13:18:48.636Z</time>
      </trkpt>
      <trkpt lat="49.46644" lon="3.74274">
        <ele>159.9</ele>
        <time>2015-11-23T13:18:56.606Z</time>
      </trkpt>
      <trkpt lat="49.46644" lon="3.74272">
        <ele>159.9</ele>
        <time>2015-11-23T13:18:57.598Z</time>
      </trkpt>
      <trkpt lat="49.46643" lon="3.74258">
        <ele>160.1</ele>
        <time>2015-11-23T13:19:05.598Z</time>
      </trkpt>
      <trkpt lat="49.46643" lon="3.74257">
        <ele>160.1</ele>
        <time>2015-11-23T13:19:06.634Z</time>
      </trkpt>
      <trkpt lat="49.46639" lon="3.74245">
        <ele>160.8</ele>
        <time>2015-11-23T13:19:14.600Z</time>
      </trkpt>
      <trkpt lat="49.46639" lon="3.74244">
        <ele>160.9</ele>
        <time>2015-11-23T13:19:15.591Z</time>
      </trkpt>
      <trkpt lat="49.46637" lon="3.74231">
        <ele>161.3</ele>
        <time>2015-11-23T13:19:25.608Z</time>
      </trkpt>
      <trkpt lat="49.46637" lon="3.7423">
        <ele>161.3</ele>
        <time>2015-11-23T13:19:26.591Z</time>
      </trkpt>
      <trkpt lat="49.46636" lon="3.74217">
        <ele>161.7</ele>
        <time>2015-11-23T13:19:36.711Z</time>
      </trkpt>
      <trkpt lat="49.46636" lon="3.74216">
        <ele>161.5</ele>
        <time>2015-11-23T13:19:37.596Z</time>
      </trkpt>
      <trkpt lat="49.46637" lon="3.74202">
        <ele>160.9</ele>
        <time>2015-11-23T13:19:46.688Z</time>
      </trkpt>
      <trkpt lat="49.46637" lon="3.74201">
        <ele>160.9</ele>
        <time>2015-11-23T13:19:47.680Z</time>
      </trkpt>
      <trkpt lat="49.46637" lon="3.74187">
        <ele>161.5</ele>
        <time>2015-11-23T13:19:55.679Z</time>
      </trkpt>
      <trkpt lat="49.46637" lon="3.74185">
        <ele>161.8</ele>
        <time>2015-11-23T13:19:56.678Z</time>
      </trkpt>
      <trkpt lat="49.46636" lon="3.74172">
        <ele>162.8</ele>
        <time>2015-11-23T13:20:03.798Z</time>
      </trkpt>
      <trkpt lat="49.46636" lon="3.7417">
        <ele>162.9</ele>
        <time>2015-11-23T13:20:04.593Z</time>
      </trkpt>
      <trkpt lat="49.46633" lon="3.74158">
        <ele>163</ele>
        <time>2015-11-23T13:20:14.690Z</time>
      </trkpt>
      <trkpt lat="49.46633" lon="3.74155">
        <ele>163.1</ele>
        <time>2015-11-23T13:20:15.674Z</time>
      </trkpt>
      <trkpt lat="49.46635" lon="3.74142">
        <ele>163.4</ele>
        <time>2015-11-23T13:20:21.673Z</time>
      </trkpt>
      <trkpt lat="49.46635" lon="3.7414">
        <ele>163.4</ele>
        <time>2015-11-23T13:20:22.662Z</time>
      </trkpt>
      <trkpt lat="49.46637" lon="3.74126">
        <ele>163.8</ele>
        <time>2015-11-23T13:20:28.639Z</time>
      </trkpt>
      <trkpt lat="49.46637" lon="3.74125">
        <ele>163.9</ele>
        <time>2015-11-23T13:20:29.640Z</time>
      </trkpt>
      <trkpt lat="49.46639" lon="3.74112">
        <ele>163.9</ele>
        <time>2015-11-23T13:20:36.645Z</time>
      </trkpt>
      <trkpt lat="49.4664" lon="3.7411">
        <ele>163.9</ele>
        <time>2015-11-23T13:20:37.645Z</time>
      </trkpt>
      <trkpt lat="49.4664" lon="3.74097">
        <ele>163.7</ele>
        <time>2015-11-23T13:20:44.624Z</time>
      </trkpt>
      <trkpt lat="49.4664" lon="3.74096">
        <ele>163.6</ele>
        <time>2015-11-23T13:20:45.612Z</time>
      </trkpt>
      <trkpt lat="49.46644" lon="3.74085">
        <ele>162.7</ele>
        <time>2015-11-23T13:20:51.927Z</time>
      </trkpt>
      <trkpt lat="49.46644" lon="3.74083">
        <ele>162.5</ele>
        <time>2015-11-23T13:20:52.685Z</time>
      </trkpt>
      <trkpt lat="49.46644" lon="3.7407">
        <ele>162.4</ele>
        <time>2015-11-23T13:20:59.687Z</time>
      </trkpt>
      <trkpt lat="49.46644" lon="3.74068">
        <ele>162.5</ele>
        <time>2015-11-23T13:21:00.675Z</time>
      </trkpt>
      <trkpt lat="49.46645" lon="3.74055">
        <ele>163.6</ele>
        <time>2015-11-23T13:21:09.691Z</time>
      </trkpt>
      <trkpt lat="49.46645" lon="3.74053">
        <ele>163.6</ele>
        <time>2015-11-23T13:21:10.674Z</time>
      </trkpt>
      <trkpt lat="49.46651" lon="3.74043">
        <ele>163.1</ele>
        <time>2015-11-23T13:21:16.649Z</time>
      </trkpt>
      <trkpt lat="49.46651" lon="3.74042">
        <ele>163</ele>
        <time>2015-11-23T13:21:17.642Z</time>
      </trkpt>
      <trkpt lat="49.46655" lon="3.7403">
        <ele>162</ele>
        <time>2015-11-23T13:21:25.658Z</time>
      </trkpt>
      <trkpt lat="49.46655" lon="3.74029">
        <ele>161.9</ele>
        <time>2015-11-23T13:21:26.653Z</time>
      </trkpt>
      <trkpt lat="49.46659" lon="3.74017">
        <ele>162.2</ele>
        <time>2015-11-23T13:21:34.639Z</time>
      </trkpt>
      <trkpt lat="49.46659" lon="3.74015">
        <ele>162</ele>
        <time>2015-11-23T13:21:35.627Z</time>
      </trkpt>
      <trkpt lat="49.46661" lon="3.74002">
        <ele>162.1</ele>
        <time>2015-11-23T13:21:41.603Z</time>
      </trkpt>
      <trkpt lat="49.46662" lon="3.74">
        <ele>162.1</ele>
        <time>2015-11-23T13:21:42.637Z</time>
      </trkpt>
      <trkpt lat="49.46664" lon="3.73988">
        <ele>163.3</ele>
        <time>2015-11-23T13:21:49.608Z</time>
      </trkpt>
      <trkpt lat="49.46664" lon="3.73986">
        <ele>163.6</ele>
        <time>2015-11-23T13:21:50.613Z</time>
      </trkpt>
      <trkpt lat="49.46666" lon="3.73973">
        <ele>164.1</ele>
        <time>2015-11-23T13:22:00.651Z</time>
      </trkpt>
      <trkpt lat="49.46666" lon="3.73972">
        <ele>164.1</ele>
        <time>2015-11-23T13:22:01.640Z</time>
      </trkpt>
      <trkpt lat="49.46667" lon="3.73971">
        <ele>164.3</ele>
        <time>2015-11-23T13:22:02.657Z</time>
      </trkpt>
      <trkpt lat="49.46667" lon="3.73971">
        <ele>164.4</ele>
        <time>2015-11-23T13:22:03.656Z</time>
      </trkpt>
      <trkpt lat="49.46667" lon="3.73971">
        <ele>164.4</ele>
        <time>2015-11-23T13:22:03.672Z</time>
      </trkpt>
      <trkpt lat="49.46668" lon="3.7397">
        <ele>164.6</ele>
        <time>2015-11-23T13:22:04.675Z</time>
      </trkpt>
      <trkpt lat="49.46672" lon="3.73959">
        <ele>165.2</ele>
        <time>2015-11-23T13:22:11.656Z</time>
      </trkpt>
      <trkpt lat="49.46672" lon="3.73958">
        <ele>165.1</ele>
        <time>2015-11-23T13:22:12.650Z</time>
      </trkpt>
      <trkpt lat="49.46676" lon="3.73945">
        <ele>165.4</ele>
        <time>2015-11-23T13:22:18.722Z</time>
      </trkpt>
      <trkpt lat="49.46677" lon="3.73939">
        <ele>166</ele>
        <time>2015-11-23T13:22:19.582Z</time>
      </trkpt>
      <trkpt lat="49.46682" lon="3.73929">
        <ele>164.7</ele>
        <time>2015-11-23T13:22:25.658Z</time>
      </trkpt>
      <trkpt lat="49.46683" lon="3.73927">
        <ele>164.2</ele>
        <time>2015-11-23T13:22:26.652Z</time>
      </trkpt>
      <trkpt lat="49.46689" lon="3.73917">
        <ele>163.6</ele>
        <time>2015-11-23T13:22:33.613Z</time>
      </trkpt>
      <trkpt lat="49.46689" lon="3.73915">
        <ele>163.4</ele>
        <time>2015-11-23T13:22:34.635Z</time>
      </trkpt>
      <trkpt lat="49.46695" lon="3.73906">
        <ele>161.5</ele>
        <time>2015-11-23T13:22:42.659Z</time>
      </trkpt>
      <trkpt lat="49.46696" lon="3.73904">
        <ele>161.3</ele>
        <time>2015-11-23T13:22:43.649Z</time>
      </trkpt>
      <trkpt lat="49.467" lon="3.73891">
        <ele>162</ele>
        <time>2015-11-23T13:22:50.679Z</time>
      </trkpt>
      <trkpt lat="49.467" lon="3.73889">
        <ele>162</ele>
        <time>2015-11-23T13:22:51.661Z</time>
      </trkpt>
      <trkpt lat="49.46701" lon="3.73876">
        <ele>160.7</ele>
        <time>2015-11-23T13:22:58.653Z</time>
      </trkpt>
      <trkpt lat="49.46702" lon="3.73874">
        <ele>160.5</ele>
        <time>2015-11-23T13:22:59.654Z</time>
      </trkpt>
      <trkpt lat="49.46704" lon="3.73865">
        <ele>159.8</ele>
        <time>2015-11-23T13:23:06.655Z</time>
      </trkpt>
      <trkpt lat="49.46704" lon="3.73864">
        <ele>159.7</ele>
        <time>2015-11-23T13:23:07.651Z</time>
      </trkpt>
      <trkpt lat="49.46704" lon="3.73864">
        <ele>159.6</ele>
        <time>2015-11-23T13:23:16.659Z</time>
      </trkpt>
      <trkpt lat="49.46705" lon="3.73859">
        <ele>159.4</ele>
        <time>2015-11-23T13:23:17.647Z</time>
      </trkpt>
      <trkpt lat="49.46705" lon="3.73857">
        <ele>159.7</ele>
        <time>2015-11-23T13:23:19.694Z</time>
      </trkpt>
      <trkpt lat="49.46705" lon="3.73857">
        <ele>159.8</ele>
        <time>2015-11-23T13:23:20.691Z</time>
      </trkpt>
      <trkpt lat="49.46706" lon="3.73857">
        <ele>159.9</ele>
        <time>2015-11-23T13:23:21.623Z</time>
      </trkpt>
      <trkpt lat="49.46706" lon="3.73856">
        <ele>159.8</ele>
        <time>2015-11-23T13:23:22.600Z</time>
      </trkpt>
      <trkpt lat="49.4671" lon="3.73845">
        <ele>158.2</ele>
        <time>2015-11-23T13:23:30.717Z</time>
      </trkpt>
      <trkpt lat="49.46711" lon="3.73844">
        <ele>158</ele>
        <time>2015-11-23T13:23:31.703Z</time>
      </trkpt>
      <trkpt lat="49.46716" lon="3.73834">
        <ele>156.4</ele>
        <time>2015-11-23T13:23:45.671Z</time>
      </trkpt>
      <trkpt lat="49.46717" lon="3.7383">
        <ele>155.6</ele>
        <time>2015-11-23T13:23:46.662Z</time>
      </trkpt>
      <trkpt lat="49.46721" lon="3.73818">
        <ele>154.2</ele>
        <time>2015-11-23T13:23:53.920Z</time>
      </trkpt>
      <trkpt lat="49.46722" lon="3.73817">
        <ele>153.9</ele>
        <time>2015-11-23T13:23:54.651Z</time>
      </trkpt>
      <trkpt lat="49.46725" lon="3.73806">
        <ele>153.3</ele>
        <time>2015-11-23T13:24:01.667Z</time>
      </trkpt>
      <trkpt lat="49.46726" lon="3.73804">
        <ele>153.2</ele>
        <time>2015-11-23T13:24:02.650Z</time>
      </trkpt>
      <trkpt lat="49.4673" lon="3.73794">
        <ele>152</ele>
        <time>2015-11-23T13:24:09.671Z</time>
      </trkpt>
      <trkpt lat="49.46731" lon="3.73792">
        <ele>151.5</ele>
        <time>2015-11-23T13:24:10.669Z</time>
      </trkpt>
      <trkpt lat="49.46735" lon="3.7378">
        <ele>150.8</ele>
        <time>2015-11-23T13:24:18.662Z</time>
      </trkpt>
      <trkpt lat="49.46735" lon="3.73779">
        <ele>150.5</ele>
        <time>2015-11-23T13:24:19.650Z</time>
      </trkpt>
      <trkpt lat="49.46739" lon="3.73767">
        <ele>148.7</ele>
        <time>2015-11-23T13:24:26.652Z</time>
      </trkpt>
      <trkpt lat="49.46739" lon="3.73765">
        <ele>148.4</ele>
        <time>2015-11-23T13:24:27.653Z</time>
      </trkpt>
      <trkpt lat="49.46742" lon="3.73752">
        <ele>147.7</ele>
        <time>2015-11-23T13:24:35.683Z</time>
      </trkpt>
      <trkpt lat="49.46742" lon="3.7375">
        <ele>147.1</ele>
        <time>2015-11-23T13:24:36.653Z</time>
      </trkpt>
      <trkpt lat="49.46746" lon="3.73738">
        <ele>146.5</ele>
        <time>2015-11-23T13:24:43.657Z</time>
      </trkpt>
      <trkpt lat="49.46746" lon="3.73736">
        <ele>146.3</ele>
        <time>2015-11-23T13:24:44.635Z</time>
      </trkpt>
      <trkpt lat="49.4675" lon="3.73724">
        <ele>146.1</ele>
        <time>2015-11-23T13:24:51.615Z</time>
      </trkpt>
      <trkpt lat="49.4675" lon="3.73722">
        <ele>146</ele>
        <time>2015-11-23T13:24:52.602Z</time>
      </trkpt>
      <trkpt lat="49.46754" lon="3.7371">
        <ele>145.5</ele>
        <time>2015-11-23T13:24:59.604Z</time>
      </trkpt>
      <trkpt lat="49.46754" lon="3.73709">
        <ele>145.6</ele>
        <time>2015-11-23T13:25:00.637Z</time>
      </trkpt>
      <trkpt lat="49.46758" lon="3.73696">
        <ele>145.3</ele>
        <time>2015-11-23T13:25:07.718Z</time>
      </trkpt>
      <trkpt lat="49.46759" lon="3.73695">
        <ele>145.3</ele>
        <time>2015-11-23T13:25:08.594Z</time>
      </trkpt>
      <trkpt lat="49.46763" lon="3.73683">
        <ele>145</ele>
        <time>2015-11-23T13:25:15.610Z</time>
      </trkpt>
      <trkpt lat="49.46763" lon="3.73681">
        <ele>145.1</ele>
        <time>2015-11-23T13:25:16.589Z</time>
      </trkpt>
      <trkpt lat="49.46766" lon="3.7367">
        <ele>145.2</ele>
        <time>2015-11-23T13:25:22.680Z</time>
      </trkpt>
      <trkpt lat="49.46766" lon="3.73668">
        <ele>145.3</ele>
        <time>2015-11-23T13:25:23.670Z</time>
      </trkpt>
      <trkpt lat="49.4677" lon="3.73657">
        <ele>145.7</ele>
        <time>2015-11-23T13:25:30.643Z</time>
      </trkpt>
      <trkpt lat="49.46771" lon="3.73655">
        <ele>145.7</ele>
        <time>2015-11-23T13:25:31.642Z</time>
      </trkpt>
      <trkpt lat="49.46774" lon="3.73644">
        <ele>145.7</ele>
        <time>2015-11-23T13:25:38.599Z</time>
      </trkpt>
      <trkpt lat="49.46775" lon="3.73642">
        <ele>145.7</ele>
        <time>2015-11-23T13:25:39.595Z</time>
      </trkpt>
      <trkpt lat="49.46779" lon="3.73631">
        <ele>145.9</ele>
        <time>2015-11-23T13:25:46.821Z</time>
      </trkpt>
      <trkpt lat="49.46779" lon="3.73629">
        <ele>145.8</ele>
        <time>2015-11-23T13:25:47.601Z</time>
      </trkpt>
      <trkpt lat="49.46783" lon="3.73618">
        <ele>146</ele>
        <time>2015-11-23T13:25:54.751Z</time>
      </trkpt>
      <trkpt lat="49.46784" lon="3.73617">
        <ele>145.9</ele>
        <time>2015-11-23T13:25:55.598Z</time>
      </trkpt>
      <trkpt lat="49.46787" lon="3.73605">
        <ele>145.8</ele>
        <time>2015-11-23T13:26:03.613Z</time>
      </trkpt>
      <trkpt lat="49.46788" lon="3.73603">
        <ele>145.7</ele>
        <time>2015-11-23T13:26:04.612Z</time>
      </trkpt>
      <trkpt lat="49.46792" lon="3.73592">
        <ele>145.6</ele>
        <time>2015-11-23T13:26:11.696Z</time>
      </trkpt>
      <trkpt lat="49.46793" lon="3.73591">
        <ele>145.4</ele>
        <time>2015-11-23T13:26:12.684Z</time>
      </trkpt>
      <trkpt lat="49.46797" lon="3.7358">
        <ele>144.8</ele>
        <time>2015-11-23T13:26:19.660Z</time>
      </trkpt>
      <trkpt lat="49.46797" lon="3.73579">
        <ele>144.6</ele>
        <time>2015-11-23T13:26:20.642Z</time>
      </trkpt>
      <trkpt lat="49.46801" lon="3.73568">
        <ele>144.7</ele>
        <time>2015-11-23T13:26:27.604Z</time>
      </trkpt>
      <trkpt lat="49.46802" lon="3.73566">
        <ele>144.8</ele>
        <time>2015-11-23T13:26:28.603Z</time>
      </trkpt>
      <trkpt lat="49.46806" lon="3.73555">
        <ele>144.3</ele>
        <time>2015-11-23T13:26:35.695Z</time>
      </trkpt>
      <trkpt lat="49.46807" lon="3.73553">
        <ele>144</ele>
        <time>2015-11-23T13:26:36.686Z</time>
      </trkpt>
      <trkpt lat="49.46811" lon="3.73543">
        <ele>143.3</ele>
        <time>2015-11-23T13:26:43.875Z</time>
      </trkpt>
      <trkpt lat="49.46811" lon="3.73541">
        <ele>143.2</ele>
        <time>2015-11-23T13:26:44.641Z</time>
      </trkpt>
      <trkpt lat="49.46815" lon="3.73529">
        <ele>142.7</ele>
        <time>2015-11-23T13:26:51.613Z</time>
      </trkpt>
      <trkpt lat="49.46815" lon="3.73527">
        <ele>142.4</ele>
        <time>2015-11-23T13:26:52.606Z</time>
      </trkpt>
      <trkpt lat="49.46819" lon="3.73516">
        <ele>143</ele>
        <time>2015-11-23T13:26:59.695Z</time>
      </trkpt>
      <trkpt lat="49.4682" lon="3.73514">
        <ele>143</ele>
        <time>2015-11-23T13:27:00.689Z</time>
      </trkpt>
      <trkpt lat="49.46823" lon="3.73502">
        <ele>142.7</ele>
        <time>2015-11-23T13:27:08.680Z</time>
      </trkpt>
      <trkpt lat="49.46823" lon="3.735">
        <ele>142.6</ele>
        <time>2015-11-23T13:27:09.675Z</time>
      </trkpt>
      <trkpt lat="49.46825" lon="3.73487">
        <ele>142.7</ele>
        <time>2015-11-23T13:27:16.672Z</time>
      </trkpt>
      <trkpt lat="49.46825" lon="3.73486">
        <ele>142.7</ele>
        <time>2015-11-23T13:27:17.663Z</time>
      </trkpt>
      <trkpt lat="49.46825" lon="3.73472">
        <ele>142.2</ele>
        <time>2015-11-23T13:27:25.655Z</time>
      </trkpt>
      <trkpt lat="49.46825" lon="3.7347">
        <ele>141.9</ele>
        <time>2015-11-23T13:27:26.646Z</time>
      </trkpt>
      <trkpt lat="49.46825" lon="3.73456">
        <ele>140.6</ele>
        <time>2015-11-23T13:27:34.632Z</time>
      </trkpt>
      <trkpt lat="49.46826" lon="3.73455">
        <ele>140.5</ele>
        <time>2015-11-23T13:27:35.617Z</time>
      </trkpt>
      <trkpt lat="49.46828" lon="3.73442">
        <ele>140.3</ele>
        <time>2015-11-23T13:27:43.649Z</time>
      </trkpt>
      <trkpt lat="49.46828" lon="3.7344">
        <ele>140.4</ele>
        <time>2015-11-23T13:27:44.642Z</time>
      </trkpt>
      <trkpt lat="49.46829" lon="3.73426">
        <ele>139.8</ele>
        <time>2015-11-23T13:27:51.601Z</time>
      </trkpt>
      <trkpt lat="49.46829" lon="3.73424">
        <ele>139.7</ele>
        <time>2015-11-23T13:27:52.630Z</time>
      </trkpt>
      <trkpt lat="49.46831" lon="3.73412">
        <ele>140</ele>
        <time>2015-11-23T13:27:59.691Z</time>
      </trkpt>
      <trkpt lat="49.46831" lon="3.73411">
        <ele>140.1</ele>
        <time>2015-11-23T13:28:00.676Z</time>
      </trkpt>
      <trkpt lat="49.46831" lon="3.73398">
        <ele>140.4</ele>
        <time>2015-11-23T13:28:08.657Z</time>
      </trkpt>
      <trkpt lat="49.46831" lon="3.73396">
        <ele>140.4</ele>
        <time>2015-11-23T13:28:09.641Z</time>
      </trkpt>
      <trkpt lat="49.46831" lon="3.73382">
        <ele>140.7</ele>
        <time>2015-11-23T13:28:17.652Z</time>
      </trkpt>
      <trkpt lat="49.46831" lon="3.7338">
        <ele>140.6</ele>
        <time>2015-11-23T13:28:18.630Z</time>
      </trkpt>
      <trkpt lat="49.46832" lon="3.73367">
        <ele>140.2</ele>
        <time>2015-11-23T13:28:25.645Z</time>
      </trkpt>
      <trkpt lat="49.46832" lon="3.73366">
        <ele>140</ele>
        <time>2015-11-23T13:28:26.637Z</time>
      </trkpt>
      <trkpt lat="49.46832" lon="3.73354">
        <ele>139.9</ele>
        <time>2015-11-23T13:28:32.607Z</time>
      </trkpt>
      <trkpt lat="49.46832" lon="3.73351">
        <ele>139.8</ele>
        <time>2015-11-23T13:28:33.601Z</time>
      </trkpt>
      <trkpt lat="49.46831" lon="3.73338">
        <ele>140</ele>
        <time>2015-11-23T13:28:40.601Z</time>
      </trkpt>
      <trkpt lat="49.46831" lon="3.73336">
        <ele>139.8</ele>
        <time>2015-11-23T13:28:41.591Z</time>
      </trkpt>
      <trkpt lat="49.4683" lon="3.73323">
        <ele>139.3</ele>
        <time>2015-11-23T13:28:48.690Z</time>
      </trkpt>
      <trkpt lat="49.4683" lon="3.73321">
        <ele>139.2</ele>
        <time>2015-11-23T13:28:49.693Z</time>
      </trkpt>
      <trkpt lat="49.46829" lon="3.73309">
        <ele>139.3</ele>
        <time>2015-11-23T13:28:56.710Z</time>
      </trkpt>
      <trkpt lat="49.46829" lon="3.73307">
        <ele>139.3</ele>
        <time>2015-11-23T13:28:57.649Z</time>
      </trkpt>
      <trkpt lat="49.46829" lon="3.73294">
        <ele>139.3</ele>
        <time>2015-11-23T13:29:05.827Z</time>
      </trkpt>
      <trkpt lat="49.46829" lon="3.73292">
        <ele>139.4</ele>
        <time>2015-11-23T13:29:06.615Z</time>
      </trkpt>
      <trkpt lat="49.46829" lon="3.7328">
        <ele>139.7</ele>
        <time>2015-11-23T13:29:13.691Z</time>
      </trkpt>
      <trkpt lat="49.46829" lon="3.73278">
        <ele>139.8</ele>
        <time>2015-11-23T13:29:14.676Z</time>
      </trkpt>
      <trkpt lat="49.46829" lon="3.73264">
        <ele>139.7</ele>
        <time>2015-11-23T13:29:21.663Z</time>
      </trkpt>
      <trkpt lat="49.46828" lon="3.73262">
        <ele>139.9</ele>
        <time>2015-11-23T13:29:22.651Z</time>
      </trkpt>
      <trkpt lat="49.46828" lon="3.73249">
        <ele>140.1</ele>
        <time>2015-11-23T13:29:29.649Z</time>
      </trkpt>
      <trkpt lat="49.46828" lon="3.73247">
        <ele>140</ele>
        <time>2015-11-23T13:29:30.639Z</time>
      </trkpt>
      <trkpt lat="49.46828" lon="3.73233">
        <ele>140.9</ele>
        <time>2015-11-23T13:29:37.656Z</time>
      </trkpt>
      <trkpt lat="49.46828" lon="3.73231">
        <ele>141.1</ele>
        <time>2015-11-23T13:29:38.646Z</time>
      </trkpt>
      <trkpt lat="49.46827" lon="3.73219">
        <ele>141.5</ele>
        <time>2015-11-23T13:29:45.600Z</time>
      </trkpt>
      <trkpt lat="49.46827" lon="3.73217">
        <ele>141.5</ele>
        <time>2015-11-23T13:29:46.628Z</time>
      </trkpt>
      <trkpt lat="49.46827" lon="3.73204">
        <ele>142</ele>
        <time>2015-11-23T13:29:54.712Z</time>
      </trkpt>
      <trkpt lat="49.46827" lon="3.73203">
        <ele>142.1</ele>
        <time>2015-11-23T13:29:55.699Z</time>
      </trkpt>
      <trkpt lat="49.46827" lon="3.73189">
        <ele>141.6</ele>
        <time>2015-11-23T13:30:04.692Z</time>
      </trkpt>
      <trkpt lat="49.46827" lon="3.73188">
        <ele>141.6</ele>
        <time>2015-11-23T13:30:05.680Z</time>
      </trkpt>
      <trkpt lat="49.46828" lon="3.73175">
        <ele>141.3</ele>
        <time>2015-11-23T13:30:14.698Z</time>
      </trkpt>
      <trkpt lat="49.46828" lon="3.73173">
        <ele>141.2</ele>
        <time>2015-11-23T13:30:15.588Z</time>
      </trkpt>
      <trkpt lat="49.46828" lon="3.73161">
        <ele>142.5</ele>
        <time>2015-11-23T13:30:23.682Z</time>
      </trkpt>
      <trkpt lat="49.46828" lon="3.73159">
        <ele>142.5</ele>
        <time>2015-11-23T13:30:24.676Z</time>
      </trkpt>
      <trkpt lat="49.46828" lon="3.73146">
        <ele>142.5</ele>
        <time>2015-11-23T13:30:31.642Z</time>
      </trkpt>
      <trkpt lat="49.46828" lon="3.73144">
        <ele>142.4</ele>
        <time>2015-11-23T13:30:32.636Z</time>
      </trkpt>
      <trkpt lat="49.46829" lon="3.73132">
        <ele>142.5</ele>
        <time>2015-11-23T13:30:40.618Z</time>
      </trkpt>
      <trkpt lat="49.46829" lon="3.7313">
        <ele>142.4</ele>
        <time>2015-11-23T13:30:41.597Z</time>
      </trkpt>
      <trkpt lat="49.46829" lon="3.73117">
        <ele>142</ele>
        <time>2015-11-23T13:30:49.683Z</time>
      </trkpt>
      <trkpt lat="49.46829" lon="3.73116">
        <ele>141.9</ele>
        <time>2015-11-23T13:30:50.673Z</time>
      </trkpt>
      <trkpt lat="49.4683" lon="3.73102">
        <ele>142</ele>
        <time>2015-11-23T13:30:59.684Z</time>
      </trkpt>
      <trkpt lat="49.4683" lon="3.73101">
        <ele>142</ele>
        <time>2015-11-23T13:31:00.666Z</time>
      </trkpt>
      <trkpt lat="49.46831" lon="3.73087">
        <ele>142.5</ele>
        <time>2015-11-23T13:31:09.658Z</time>
      </trkpt>
      <trkpt lat="49.46832" lon="3.73085">
        <ele>142.8</ele>
        <time>2015-11-23T13:31:10.650Z</time>
      </trkpt>
      <trkpt lat="49.46833" lon="3.73072">
        <ele>142.5</ele>
        <time>2015-11-23T13:31:18.660Z</time>
      </trkpt>
      <trkpt lat="49.46834" lon="3.7307">
        <ele>142.1</ele>
        <time>2015-11-23T13:31:19.642Z</time>
      </trkpt>
      <trkpt lat="49.46837" lon="3.73059">
        <ele>142.9</ele>
        <time>2015-11-23T13:31:28.692Z</time>
      </trkpt>
      <trkpt lat="49.46837" lon="3.73057">
        <ele>143.2</ele>
        <time>2015-11-23T13:31:29.677Z</time>
      </trkpt>
      <trkpt lat="49.46841" lon="3.73046">
        <ele>144</ele>
        <time>2015-11-23T13:31:36.647Z</time>
      </trkpt>
      <trkpt lat="49.46841" lon="3.73044">
        <ele>144.3</ele>
        <time>2015-11-23T13:31:37.636Z</time>
      </trkpt>
      <trkpt lat="49.46844" lon="3.73031">
        <ele>144.2</ele>
        <time>2015-11-23T13:31:45.815Z</time>
      </trkpt>
      <trkpt lat="49.46844" lon="3.73029">
        <ele>144</ele>
        <time>2015-11-23T13:31:46.623Z</time>
      </trkpt>
      <trkpt lat="49.46847" lon="3.73017">
        <ele>144.5</ele>
        <time>2015-11-23T13:31:54.669Z</time>
      </trkpt>
      <trkpt lat="49.46847" lon="3.73015">
        <ele>144.6</ele>
        <time>2015-11-23T13:31:55.621Z</time>
      </trkpt>
      <trkpt lat="49.4685" lon="3.73004">
        <ele>145.1</ele>
        <time>2015-11-23T13:32:02.600Z</time>
      </trkpt>
      <trkpt lat="49.4685" lon="3.73002">
        <ele>145.4</ele>
        <time>2015-11-23T13:32:03.612Z</time>
      </trkpt>
      <trkpt lat="49.46851" lon="3.7299">
        <ele>145.5</ele>
        <time>2015-11-23T13:32:09.655Z</time>
      </trkpt>
      <trkpt lat="49.46851" lon="3.72988">
        <ele>145.5</ele>
        <time>2015-11-23T13:32:10.663Z</time>
      </trkpt>
      <trkpt lat="49.46852" lon="3.72974">
        <ele>145.6</ele>
        <time>2015-11-23T13:32:18.637Z</time>
      </trkpt>
      <trkpt lat="49.46852" lon="3.72972">
        <ele>145.5</ele>
        <time>2015-11-23T13:32:19.635Z</time>
      </trkpt>
      <trkpt lat="49.46851" lon="3.72958">
        <ele>145.8</ele>
        <time>2015-11-23T13:32:26.613Z</time>
      </trkpt>
      <trkpt lat="49.46851" lon="3.72957">
        <ele>145.8</ele>
        <time>2015-11-23T13:32:27.591Z</time>
      </trkpt>
      <trkpt lat="49.46849" lon="3.72945">
        <ele>146.3</ele>
        <time>2015-11-23T13:32:34.684Z</time>
      </trkpt>
      <trkpt lat="49.46849" lon="3.72942">
        <ele>146.3</ele>
        <time>2015-11-23T13:32:35.682Z</time>
      </trkpt>
      <trkpt lat="49.46847" lon="3.7293">
        <ele>146.2</ele>
        <time>2015-11-23T13:32:42.676Z</time>
      </trkpt>
      <trkpt lat="49.46847" lon="3.72929">
        <ele>145.9</ele>
        <time>2015-11-23T13:32:43.635Z</time>
      </trkpt>
      <trkpt lat="49.46845" lon="3.72916">
        <ele>145.9</ele>
        <time>2015-11-23T13:32:53.749Z</time>
      </trkpt>
      <trkpt lat="49.46845" lon="3.72914">
        <ele>145.9</ele>
        <time>2015-11-23T13:32:54.688Z</time>
      </trkpt>
      <trkpt lat="49.46841" lon="3.72903">
        <ele>146.3</ele>
        <time>2015-11-23T13:33:02.642Z</time>
      </trkpt>
      <trkpt lat="49.4684" lon="3.72901">
        <ele>146.3</ele>
        <time>2015-11-23T13:33:03.636Z</time>
      </trkpt>
      <trkpt lat="49.46838" lon="3.72889">
        <ele>147.2</ele>
        <time>2015-11-23T13:33:10.624Z</time>
      </trkpt>
      <trkpt lat="49.46837" lon="3.72887">
        <ele>147.2</ele>
        <time>2015-11-23T13:33:11.605Z</time>
      </trkpt>
      <trkpt lat="49.46834" lon="3.72876">
        <ele>147.4</ele>
        <time>2015-11-23T13:33:19.705Z</time>
      </trkpt>
      <trkpt lat="49.46834" lon="3.72874">
        <ele>147.5</ele>
        <time>2015-11-23T13:33:20.594Z</time>
      </trkpt>
      <trkpt lat="49.46832" lon="3.72861">
        <ele>147.9</ele>
        <time>2015-11-23T13:33:30.712Z</time>
      </trkpt>
      <trkpt lat="49.46832" lon="3.72859">
        <ele>147.8</ele>
        <time>2015-11-23T13:33:31.702Z</time>
      </trkpt>
      <trkpt lat="49.46829" lon="3.72847">
        <ele>147.7</ele>
        <time>2015-11-23T13:33:41.621Z</time>
      </trkpt>
      <trkpt lat="49.46828" lon="3.72846">
        <ele>147.6</ele>
        <time>2015-11-23T13:33:42.599Z</time>
      </trkpt>
      <trkpt lat="49.46825" lon="3.72834">
        <ele>147.3</ele>
        <time>2015-11-23T13:33:50.614Z</time>
      </trkpt>
      <trkpt lat="49.46825" lon="3.72832">
        <ele>147.5</ele>
        <time>2015-11-23T13:33:51.600Z</time>
      </trkpt>
      <trkpt lat="49.46822" lon="3.72819">
        <ele>148</ele>
        <time>2015-11-23T13:33:58.734Z</time>
      </trkpt>
      <trkpt lat="49.46822" lon="3.72817">
        <ele>148</ele>
        <time>2015-11-23T13:33:59.593Z</time>
      </trkpt>
      <trkpt lat="49.46818" lon="3.72807">
        <ele>147.8</ele>
        <time>2015-11-23T13:34:06.685Z</time>
      </trkpt>
      <trkpt lat="49.46817" lon="3.72805">
        <ele>147.9</ele>
        <time>2015-11-23T13:34:07.683Z</time>
      </trkpt>
      <trkpt lat="49.46814" lon="3.72794">
        <ele>148.3</ele>
        <time>2015-11-23T13:34:14.636Z</time>
      </trkpt>
      <trkpt lat="49.46814" lon="3.72792">
        <ele>148.2</ele>
        <time>2015-11-23T13:34:15.655Z</time>
      </trkpt>
      <trkpt lat="49.46812" lon="3.7278">
        <ele>147.9</ele>
        <time>2015-11-23T13:34:22.628Z</time>
      </trkpt>
      <trkpt lat="49.46811" lon="3.72778">
        <ele>147.8</ele>
        <time>2015-11-23T13:34:23.618Z</time>
      </trkpt>
      <trkpt lat="49.46809" lon="3.72765">
        <ele>148.8</ele>
        <time>2015-11-23T13:34:30.640Z</time>
      </trkpt>
      <trkpt lat="49.46808" lon="3.72764">
        <ele>149</ele>
        <time>2015-11-23T13:34:31.611Z</time>
      </trkpt>
      <trkpt lat="49.46806" lon="3.72754">
        <ele>151.5</ele>
        <time>2015-11-23T13:35:56.601Z</time>
      </trkpt>
      <trkpt lat="49.46805" lon="3.72754">
        <ele>151.4</ele>
        <time>2015-11-23T13:35:57.595Z</time>
      </trkpt>
      <trkpt lat="49.46805" lon="3.72754">
        <ele>151.4</ele>
        <time>2015-11-23T13:37:34.622Z</time>
      </trkpt>
      <trkpt lat="49.46806" lon="3.72751">
        <ele>152.1</ele>
        <time>2015-11-23T13:37:35.609Z</time>
      </trkpt>
      <trkpt lat="49.46812" lon="3.72741">
        <ele>150.4</ele>
        <time>2015-11-23T13:37:47.718Z</time>
      </trkpt>
      <trkpt lat="49.46813" lon="3.7274">
        <ele>150.3</ele>
        <time>2015-11-23T13:37:48.667Z</time>
      </trkpt>
      <trkpt lat="49.4682" lon="3.72732">
        <ele>150.3</ele>
        <time>2015-11-23T13:38:02.603Z</time>
      </trkpt>
      <trkpt lat="49.46821" lon="3.72731">
        <ele>150.3</ele>
        <time>2015-11-23T13:38:03.596Z</time>
      </trkpt>
      <trkpt lat="49.46827" lon="3.72723">
        <ele>150.3</ele>
        <time>2015-11-23T13:38:10.625Z</time>
      </trkpt>
      <trkpt lat="49.46828" lon="3.72722">
        <ele>150.4</ele>
        <time>2015-11-23T13:38:11.601Z</time>
      </trkpt>
      <trkpt lat="49.46836" lon="3.72716">
        <ele>151.1</ele>
        <time>2015-11-23T13:38:18.696Z</time>
      </trkpt>
      <trkpt lat="49.46837" lon="3.72715">
        <ele>151.2</ele>
        <time>2015-11-23T13:38:19.684Z</time>
      </trkpt>
      <trkpt lat="49.46844" lon="3.72708">
        <ele>151.1</ele>
        <time>2015-11-23T13:38:27.932Z</time>
      </trkpt>
      <trkpt lat="49.46845" lon="3.72707">
        <ele>151.2</ele>
        <time>2015-11-23T13:38:28.677Z</time>
      </trkpt>
      <trkpt lat="49.46852" lon="3.72702">
        <ele>151.3</ele>
        <time>2015-11-23T13:38:35.642Z</time>
      </trkpt>
      <trkpt lat="49.46853" lon="3.72702">
        <ele>151.4</ele>
        <time>2015-11-23T13:38:36.629Z</time>
      </trkpt>
      <trkpt lat="49.46862" lon="3.72697">
        <ele>151.5</ele>
        <time>2015-11-23T13:38:43.702Z</time>
      </trkpt>
      <trkpt lat="49.46863" lon="3.72696">
        <ele>151.4</ele>
        <time>2015-11-23T13:38:44.592Z</time>
      </trkpt>
      <trkpt lat="49.46869" lon="3.72688">
        <ele>151.8</ele>
        <time>2015-11-23T13:38:52.680Z</time>
      </trkpt>
      <trkpt lat="49.4687" lon="3.72688">
        <ele>151.8</ele>
        <time>2015-11-23T13:38:53.674Z</time>
      </trkpt>
      <trkpt lat="49.46878" lon="3.72682">
        <ele>152.7</ele>
        <time>2015-11-23T13:39:01.659Z</time>
      </trkpt>
      <trkpt lat="49.46879" lon="3.72681">
        <ele>152.8</ele>
        <time>2015-11-23T13:39:02.646Z</time>
      </trkpt>
      <trkpt lat="49.46886" lon="3.72674">
        <ele>153.4</ele>
        <time>2015-11-23T13:39:09.631Z</time>
      </trkpt>
      <trkpt lat="49.46887" lon="3.72673">
        <ele>153.4</ele>
        <time>2015-11-23T13:39:10.617Z</time>
      </trkpt>
      <trkpt lat="49.46895" lon="3.72666">
        <ele>153.9</ele>
        <time>2015-11-23T13:39:17.615Z</time>
      </trkpt>
      <trkpt lat="49.46896" lon="3.72665">
        <ele>153.9</ele>
        <time>2015-11-23T13:39:18.609Z</time>
      </trkpt>
      <trkpt lat="49.46903" lon="3.72659">
        <ele>154.3</ele>
        <time>2015-11-23T13:39:25.650Z</time>
      </trkpt>
      <trkpt lat="49.46904" lon="3.72658">
        <ele>154.3</ele>
        <time>2015-11-23T13:39:26.625Z</time>
      </trkpt>
      <trkpt lat="49.46911" lon="3.72652">
        <ele>154.5</ele>
        <time>2015-11-23T13:39:34.616Z</time>
      </trkpt>
      <trkpt lat="49.46913" lon="3.72651">
        <ele>154.4</ele>
        <time>2015-11-23T13:39:35.609Z</time>
      </trkpt>
      <trkpt lat="49.4692" lon="3.72646">
        <ele>155.4</ele>
        <time>2015-11-23T13:39:44.603Z</time>
      </trkpt>
      <trkpt lat="49.46921" lon="3.72645">
        <ele>155.4</ele>
        <time>2015-11-23T13:39:45.593Z</time>
      </trkpt>
      <trkpt lat="49.46928" lon="3.72639">
        <ele>156</ele>
        <time>2015-11-23T13:39:54.700Z</time>
      </trkpt>
      <trkpt lat="49.46929" lon="3.72638">
        <ele>156.1</ele>
        <time>2015-11-23T13:39:55.706Z</time>
      </trkpt>
      <trkpt lat="49.46936" lon="3.72632">
        <ele>156.5</ele>
        <time>2015-11-23T13:40:02.661Z</time>
      </trkpt>
      <trkpt lat="49.46937" lon="3.72631">
        <ele>156.7</ele>
        <time>2015-11-23T13:40:03.658Z</time>
      </trkpt>
      <trkpt lat="49.46943" lon="3.72622">
        <ele>157.4</ele>
        <time>2015-11-23T13:40:10.628Z</time>
      </trkpt>
      <trkpt lat="49.46944" lon="3.72621">
        <ele>157.8</ele>
        <time>2015-11-23T13:40:11.628Z</time>
      </trkpt>
      <trkpt lat="49.46949" lon="3.7261">
        <ele>157.8</ele>
        <time>2015-11-23T13:40:20.595Z</time>
      </trkpt>
      <trkpt lat="49.46949" lon="3.72609">
        <ele>157.9</ele>
        <time>2015-11-23T13:40:21.598Z</time>
      </trkpt>
      <trkpt lat="49.46953" lon="3.72597">
        <ele>158.5</ele>
        <time>2015-11-23T13:40:29.688Z</time>
      </trkpt>
      <trkpt lat="49.46953" lon="3.72596">
        <ele>158.5</ele>
        <time>2015-11-23T13:40:30.681Z</time>
      </trkpt>
      <trkpt lat="49.46955" lon="3.72584">
        <ele>159</ele>
        <time>2015-11-23T13:40:37.671Z</time>
      </trkpt>
      <trkpt lat="49.46955" lon="3.72582">
        <ele>159.1</ele>
        <time>2015-11-23T13:40:38.669Z</time>
      </trkpt>
      <trkpt lat="49.46955" lon="3.72569">
        <ele>159.7</ele>
        <time>2015-11-23T13:40:44.652Z</time>
      </trkpt>
      <trkpt lat="49.46955" lon="3.72568">
        <ele>159.8</ele>
        <time>2015-11-23T13:40:45.641Z</time>
      </trkpt>
      <trkpt lat="49.46952" lon="3.72555">
        <ele>160</ele>
        <time>2015-11-23T13:40:52.617Z</time>
      </trkpt>
      <trkpt lat="49.46952" lon="3.72553">
        <ele>160.1</ele>
        <time>2015-11-23T13:40:53.612Z</time>
      </trkpt>
      <trkpt lat="49.4695" lon="3.7254">
        <ele>160.5</ele>
        <time>2015-11-23T13:41:00.741Z</time>
      </trkpt>
      <trkpt lat="49.4695" lon="3.72538">
        <ele>160.4</ele>
        <time>2015-11-23T13:41:01.701Z</time>
      </trkpt>
      <trkpt lat="49.46948" lon="3.72525">
        <ele>160.8</ele>
        <time>2015-11-23T13:41:08.686Z</time>
      </trkpt>
      <trkpt lat="49.46947" lon="3.72524">
        <ele>160.9</ele>
        <time>2015-11-23T13:41:09.677Z</time>
      </trkpt>
      <trkpt lat="49.46944" lon="3.72511">
        <ele>161.2</ele>
        <time>2015-11-23T13:41:17.693Z</time>
      </trkpt>
      <trkpt lat="49.46944" lon="3.7251">
        <ele>161.3</ele>
        <time>2015-11-23T13:41:18.684Z</time>
      </trkpt>
      <trkpt lat="49.46941" lon="3.72498">
        <ele>162.5</ele>
        <time>2015-11-23T13:41:25.684Z</time>
      </trkpt>
      <trkpt lat="49.46941" lon="3.72496">
        <ele>162.7</ele>
        <time>2015-11-23T13:41:26.685Z</time>
      </trkpt>
      <trkpt lat="49.46939" lon="3.72484">
        <ele>163.2</ele>
        <time>2015-11-23T13:41:34.671Z</time>
      </trkpt>
      <trkpt lat="49.46939" lon="3.72482">
        <ele>163.3</ele>
        <time>2015-11-23T13:41:35.659Z</time>
      </trkpt>
      <trkpt lat="49.46937" lon="3.72469">
        <ele>163.5</ele>
        <time>2015-11-23T13:41:43.635Z</time>
      </trkpt>
      <trkpt lat="49.46937" lon="3.72467">
        <ele>163.7</ele>
        <time>2015-11-23T13:41:44.643Z</time>
      </trkpt>
      <trkpt lat="49.46939" lon="3.72455">
        <ele>164.2</ele>
        <time>2015-11-23T13:41:53.735Z</time>
      </trkpt>
      <trkpt lat="49.4694" lon="3.72454">
        <ele>164</ele>
        <time>2015-11-23T13:41:54.605Z</time>
      </trkpt>
      <trkpt lat="49.46938" lon="3.72441">
        <ele>163.3</ele>
        <time>2015-11-23T13:42:01.694Z</time>
      </trkpt>
      <trkpt lat="49.46938" lon="3.72439">
        <ele>163.4</ele>
        <time>2015-11-23T13:42:02.654Z</time>
      </trkpt>
      <trkpt lat="49.46937" lon="3.72426">
        <ele>163.7</ele>
        <time>2015-11-23T13:42:09.645Z</time>
      </trkpt>
      <trkpt lat="49.46937" lon="3.72424">
        <ele>163.6</ele>
        <time>2015-11-23T13:42:10.644Z</time>
      </trkpt>
      <trkpt lat="49.46938" lon="3.72411">
        <ele>163.5</ele>
        <time>2015-11-23T13:42:18.643Z</time>
      </trkpt>
      <trkpt lat="49.46938" lon="3.72409">
        <ele>163.5</ele>
        <time>2015-11-23T13:42:19.633Z</time>
      </trkpt>
      <trkpt lat="49.46939" lon="3.72396">
        <ele>163.6</ele>
        <time>2015-11-23T13:42:27.605Z</time>
      </trkpt>
      <trkpt lat="49.4694" lon="3.72395">
        <ele>163.7</ele>
        <time>2015-11-23T13:42:28.602Z</time>
      </trkpt>
      <trkpt lat="49.4694" lon="3.72382">
        <ele>163.7</ele>
        <time>2015-11-23T13:42:35.691Z</time>
      </trkpt>
      <trkpt lat="49.4694" lon="3.7238">
        <ele>163.8</ele>
        <time>2015-11-23T13:42:36.673Z</time>
      </trkpt>
      <trkpt lat="49.46941" lon="3.72368">
        <ele>163.9</ele>
        <time>2015-11-23T13:42:45.688Z</time>
      </trkpt>
      <trkpt lat="49.46941" lon="3.72366">
        <ele>164</ele>
        <time>2015-11-23T13:42:46.659Z</time>
      </trkpt>
      <trkpt lat="49.46939" lon="3.72353">
        <ele>164.6</ele>
        <time>2015-11-23T13:42:55.662Z</time>
      </trkpt>
      <trkpt lat="49.46939" lon="3.72352">
        <ele>164.7</ele>
        <time>2015-11-23T13:42:56.653Z</time>
      </trkpt>
      <trkpt lat="49.46938" lon="3.72338">
        <ele>164.9</ele>
        <time>2015-11-23T13:43:04.655Z</time>
      </trkpt>
      <trkpt lat="49.46937" lon="3.72337">
        <ele>164.9</ele>
        <time>2015-11-23T13:43:05.628Z</time>
      </trkpt>
      <trkpt lat="49.46935" lon="3.72325">
        <ele>164.9</ele>
        <time>2015-11-23T13:43:12.626Z</time>
      </trkpt>
      <trkpt lat="49.46934" lon="3.72323">
        <ele>164.8</ele>
        <time>2015-11-23T13:43:13.625Z</time>
      </trkpt>
      <trkpt lat="49.46933" lon="3.7231">
        <ele>165.4</ele>
        <time>2015-11-23T13:43:21.630Z</time>
      </trkpt>
      <trkpt lat="49.46932" lon="3.72308">
        <ele>165.3</ele>
        <time>2015-11-23T13:43:22.616Z</time>
      </trkpt>
      <trkpt lat="49.46929" lon="3.72296">
        <ele>166</ele>
        <time>2015-11-23T13:43:30.719Z</time>
      </trkpt>
      <trkpt lat="49.46929" lon="3.72295">
        <ele>166.1</ele>
        <time>2015-11-23T13:43:31.706Z</time>
      </trkpt>
      <trkpt lat="49.46925" lon="3.72284">
        <ele>166.5</ele>
        <time>2015-11-23T13:43:40.684Z</time>
      </trkpt>
      <trkpt lat="49.46924" lon="3.72282">
        <ele>166.6</ele>
        <time>2015-11-23T13:43:41.671Z</time>
      </trkpt>
      <trkpt lat="49.46923" lon="3.7227">
        <ele>167.2</ele>
        <time>2015-11-23T13:43:50.685Z</time>
      </trkpt>
      <trkpt lat="49.46922" lon="3.72269">
        <ele>167.4</ele>
        <time>2015-11-23T13:43:51.663Z</time>
      </trkpt>
      <trkpt lat="49.46917" lon="3.72258">
        <ele>167.8</ele>
        <time>2015-11-23T13:44:01.647Z</time>
      </trkpt>
      <trkpt lat="49.46916" lon="3.72256">
        <ele>167.6</ele>
        <time>2015-11-23T13:44:02.646Z</time>
      </trkpt>
      <trkpt lat="49.4691" lon="3.72248">
        <ele>167.8</ele>
        <time>2015-11-23T13:44:09.602Z</time>
      </trkpt>
      <trkpt lat="49.46909" lon="3.72246">
        <ele>167.9</ele>
        <time>2015-11-23T13:44:10.595Z</time>
      </trkpt>
      <trkpt lat="49.46905" lon="3.72235">
        <ele>167.9</ele>
        <time>2015-11-23T13:44:17.679Z</time>
      </trkpt>
      <trkpt lat="49.46904" lon="3.72234">
        <ele>168.1</ele>
        <time>2015-11-23T13:44:18.675Z</time>
      </trkpt>
      <trkpt lat="49.46901" lon="3.72222">
        <ele>168.9</ele>
        <time>2015-11-23T13:44:25.670Z</time>
      </trkpt>
      <trkpt lat="49.469" lon="3.7222">
        <ele>168.9</ele>
        <time>2015-11-23T13:44:26.648Z</time>
      </trkpt>
      <trkpt lat="49.46897" lon="3.72209">
        <ele>169.4</ele>
        <time>2015-11-23T13:44:33.612Z</time>
      </trkpt>
      <trkpt lat="49.46896" lon="3.72207">
        <ele>169.3</ele>
        <time>2015-11-23T13:44:34.597Z</time>
      </trkpt>
      <trkpt lat="49.46894" lon="3.72195">
        <ele>169.5</ele>
        <time>2015-11-23T13:44:41.665Z</time>
      </trkpt>
      <trkpt lat="49.46893" lon="3.72193">
        <ele>169.7</ele>
        <time>2015-11-23T13:44:42.670Z</time>
      </trkpt>
      <trkpt lat="49.4689" lon="3.7218">
        <ele>170.6</ele>
        <time>2015-11-23T13:44:51.672Z</time>
      </trkpt>
      <trkpt lat="49.4689" lon="3.72179">
        <ele>170.8</ele>
        <time>2015-11-23T13:44:52.662Z</time>
      </trkpt>
      <trkpt lat="49.46889" lon="3.72165">
        <ele>171.4</ele>
        <time>2015-11-23T13:44:59.629Z</time>
      </trkpt>
      <trkpt lat="49.46889" lon="3.72163">
        <ele>171.5</ele>
        <time>2015-11-23T13:45:00.626Z</time>
      </trkpt>
      <trkpt lat="49.46886" lon="3.72151">
        <ele>172.1</ele>
        <time>2015-11-23T13:45:08.649Z</time>
      </trkpt>
      <trkpt lat="49.46886" lon="3.72149">
        <ele>172.2</ele>
        <time>2015-11-23T13:45:09.637Z</time>
      </trkpt>
      <trkpt lat="49.46886" lon="3.72136">
        <ele>172.7</ele>
        <time>2015-11-23T13:45:16.627Z</time>
      </trkpt>
      <trkpt lat="49.46886" lon="3.72134">
        <ele>172.7</ele>
        <time>2015-11-23T13:45:17.608Z</time>
      </trkpt>
      <trkpt lat="49.46885" lon="3.72122">
        <ele>173.6</ele>
        <time>2015-11-23T13:45:25.648Z</time>
      </trkpt>
      <trkpt lat="49.46885" lon="3.7212">
        <ele>173.6</ele>
        <time>2015-11-23T13:45:26.632Z</time>
      </trkpt>
      <trkpt lat="49.46885" lon="3.72107">
        <ele>174.8</ele>
        <time>2015-11-23T13:45:34.622Z</time>
      </trkpt>
      <trkpt lat="49.46886" lon="3.72105">
        <ele>175</ele>
        <time>2015-11-23T13:45:35.606Z</time>
      </trkpt>
      <trkpt lat="49.46889" lon="3.72093">
        <ele>176.3</ele>
        <time>2015-11-23T13:45:43.676Z</time>
      </trkpt>
      <trkpt lat="49.46889" lon="3.72092">
        <ele>176.5</ele>
        <time>2015-11-23T13:45:44.648Z</time>
      </trkpt>
      <trkpt lat="49.46892" lon="3.72081">
        <ele>177.3</ele>
        <time>2015-11-23T13:45:52.891Z</time>
      </trkpt>
      <trkpt lat="49.46893" lon="3.72079">
        <ele>177.2</ele>
        <time>2015-11-23T13:45:53.670Z</time>
      </trkpt>
      <trkpt lat="49.46897" lon="3.72068">
        <ele>178</ele>
        <time>2015-11-23T13:46:01.663Z</time>
      </trkpt>
      <trkpt lat="49.46898" lon="3.72067">
        <ele>178</ele>
        <time>2015-11-23T13:46:02.636Z</time>
      </trkpt>
      <trkpt lat="49.46904" lon="3.72057">
        <ele>179</ele>
        <time>2015-11-23T13:46:11.626Z</time>
      </trkpt>
      <trkpt lat="49.46904" lon="3.72057">
        <ele>179.2</ele>
        <time>2015-11-23T13:46:12.618Z</time>
      </trkpt>
      <trkpt lat="49.46909" lon="3.72046">
        <ele>180.5</ele>
        <time>2015-11-23T13:46:19.701Z</time>
      </trkpt>
      <trkpt lat="49.4691" lon="3.72045">
        <ele>180.7</ele>
        <time>2015-11-23T13:46:20.595Z</time>
      </trkpt>
      <trkpt lat="49.46915" lon="3.72033">
        <ele>181.4</ele>
        <time>2015-11-23T13:46:28.690Z</time>
      </trkpt>
      <trkpt lat="49.46916" lon="3.72031">
        <ele>181.6</ele>
        <time>2015-11-23T13:46:29.673Z</time>
      </trkpt>
      <trkpt lat="49.46922" lon="3.72021">
        <ele>182.6</ele>
        <time>2015-11-23T13:46:35.624Z</time>
      </trkpt>
      <trkpt lat="49.46923" lon="3.7202">
        <ele>182.6</ele>
        <time>2015-11-23T13:46:36.624Z</time>
      </trkpt>
      <trkpt lat="49.46927" lon="3.72008">
        <ele>183.9</ele>
        <time>2015-11-23T13:46:45.605Z</time>
      </trkpt>
      <trkpt lat="49.46928" lon="3.72007">
        <ele>184</ele>
        <time>2015-11-23T13:46:46.598Z</time>
      </trkpt>
      <trkpt lat="49.46934" lon="3.71999">
        <ele>183.9</ele>
        <time>2015-11-23T13:46:53.686Z</time>
      </trkpt>
      <trkpt lat="49.46935" lon="3.71998">
        <ele>184.1</ele>
        <time>2015-11-23T13:46:54.674Z</time>
      </trkpt>
      <trkpt lat="49.4694" lon="3.71987">
        <ele>185.1</ele>
        <time>2015-11-23T13:47:01.668Z</time>
      </trkpt>
      <trkpt lat="49.46941" lon="3.71985">
        <ele>185</ele>
        <time>2015-11-23T13:47:02.585Z</time>
      </trkpt>
      <trkpt lat="49.46946" lon="3.71975">
        <ele>185.5</ele>
        <time>2015-11-23T13:47:08.654Z</time>
      </trkpt>
      <trkpt lat="49.46946" lon="3.71974">
        <ele>185.5</ele>
        <time>2015-11-23T13:47:09.647Z</time>
      </trkpt>
      <trkpt lat="49.46953" lon="3.71966">
        <ele>186</ele>
        <time>2015-11-23T13:47:16.690Z</time>
      </trkpt>
      <trkpt lat="49.46953" lon="3.71965">
        <ele>186</ele>
        <time>2015-11-23T13:47:17.666Z</time>
      </trkpt>
      <trkpt lat="49.46959" lon="3.71956">
        <ele>187.4</ele>
        <time>2015-11-23T13:47:24.616Z</time>
      </trkpt>
      <trkpt lat="49.4696" lon="3.71955">
        <ele>187.5</ele>
        <time>2015-11-23T13:47:25.615Z</time>
      </trkpt>
      <trkpt lat="49.46965" lon="3.71945">
        <ele>187.9</ele>
        <time>2015-11-23T13:47:34.672Z</time>
      </trkpt>
      <trkpt lat="49.46966" lon="3.71944">
        <ele>188</ele>
        <time>2015-11-23T13:47:35.656Z</time>
      </trkpt>
      <trkpt lat="49.46972" lon="3.71934">
        <ele>188.7</ele>
        <time>2015-11-23T13:47:45.853Z</time>
      </trkpt>
      <trkpt lat="49.46973" lon="3.71933">
        <ele>188.6</ele>
        <time>2015-11-23T13:47:46.591Z</time>
      </trkpt>
      <trkpt lat="49.4698" lon="3.71927">
        <ele>189</ele>
        <time>2015-11-23T13:47:52.682Z</time>
      </trkpt>
      <trkpt lat="49.46981" lon="3.71926">
        <ele>189.1</ele>
        <time>2015-11-23T13:47:53.676Z</time>
      </trkpt>
      <trkpt lat="49.46987" lon="3.71919">
        <ele>189.9</ele>
        <time>2015-11-23T13:48:02.651Z</time>
      </trkpt>
      <trkpt lat="49.46988" lon="3.71918">
        <ele>189.9</ele>
        <time>2015-11-23T13:48:03.651Z</time>
      </trkpt>
      <trkpt lat="49.4699" lon="3.71916">
        <ele>190.1</ele>
        <time>2015-11-23T13:48:06.615Z</time>
      </trkpt>
      <trkpt lat="49.46991" lon="3.71915">
        <ele>190.2</ele>
        <time>2015-11-23T13:48:07.624Z</time>
      </trkpt>
      <trkpt lat="49.46991" lon="3.71915">
        <ele>190.2</ele>
        <time>2015-11-23T13:48:07.637Z</time>
      </trkpt>
      <trkpt lat="49.46992" lon="3.71914">
        <ele>190.1</ele>
        <time>2015-11-23T13:48:08.639Z</time>
      </trkpt>
      <trkpt lat="49.46999" lon="3.71909">
        <ele>190.2</ele>
        <time>2015-11-23T13:48:17.627Z</time>
      </trkpt>
      <trkpt lat="49.47" lon="3.71909">
        <ele>190.2</ele>
        <time>2015-11-23T13:48:18.619Z</time>
      </trkpt>
      <trkpt lat="49.47007" lon="3.71903">
        <ele>190.3</ele>
        <time>2015-11-23T13:48:23.594Z</time>
      </trkpt>
      <trkpt lat="49.47009" lon="3.71902">
        <ele>190.5</ele>
        <time>2015-11-23T13:48:24.602Z</time>
      </trkpt>
      <trkpt lat="49.47016" lon="3.71895">
        <ele>190.6</ele>
        <time>2015-11-23T13:48:29.677Z</time>
      </trkpt>
      <trkpt lat="49.47018" lon="3.71894">
        <ele>190.6</ele>
        <time>2015-11-23T13:48:30.675Z</time>
      </trkpt>
      <trkpt lat="49.47024" lon="3.71889">
        <ele>191.2</ele>
        <time>2015-11-23T13:48:35.633Z</time>
      </trkpt>
      <trkpt lat="49.47026" lon="3.71888">
        <ele>191.2</ele>
        <time>2015-11-23T13:48:36.621Z</time>
      </trkpt>
      <trkpt lat="49.47034" lon="3.71882">
        <ele>191.6</ele>
        <time>2015-11-23T13:48:42.643Z</time>
      </trkpt>
      <trkpt lat="49.47035" lon="3.71881">
        <ele>191.6</ele>
        <time>2015-11-23T13:48:43.623Z</time>
      </trkpt>
      <trkpt lat="49.47043" lon="3.71877">
        <ele>191.9</ele>
        <time>2015-11-23T13:48:50.675Z</time>
      </trkpt>
      <trkpt lat="49.47044" lon="3.71876">
        <ele>192.1</ele>
        <time>2015-11-23T13:48:51.638Z</time>
      </trkpt>
      <trkpt lat="49.47052" lon="3.71869">
        <ele>192.6</ele>
        <time>2015-11-23T13:48:59.627Z</time>
      </trkpt>
      <trkpt lat="49.47053" lon="3.71868">
        <ele>192.6</ele>
        <time>2015-11-23T13:49:00.616Z</time>
      </trkpt>
      <trkpt lat="49.47059" lon="3.71858">
        <ele>192.7</ele>
        <time>2015-11-23T13:49:10.601Z</time>
      </trkpt>
      <trkpt lat="49.4706" lon="3.71858">
        <ele>192.8</ele>
        <time>2015-11-23T13:49:11.596Z</time>
      </trkpt>
      <trkpt lat="49.47068" lon="3.71855">
        <ele>193.2</ele>
        <time>2015-11-23T13:49:18.671Z</time>
      </trkpt>
      <trkpt lat="49.4707" lon="3.71855">
        <ele>193.2</ele>
        <time>2015-11-23T13:49:19.678Z</time>
      </trkpt>
      <trkpt lat="49.47078" lon="3.71852">
        <ele>193.6</ele>
        <time>2015-11-23T13:49:25.625Z</time>
      </trkpt>
      <trkpt lat="49.47079" lon="3.71852">
        <ele>193.7</ele>
        <time>2015-11-23T13:49:26.627Z</time>
      </trkpt>
      <trkpt lat="49.47086" lon="3.7185">
        <ele>194.3</ele>
        <time>2015-11-23T13:49:32.695Z</time>
      </trkpt>
      <trkpt lat="49.47088" lon="3.71849">
        <ele>194.4</ele>
        <time>2015-11-23T13:49:33.583Z</time>
      </trkpt>
      <trkpt lat="49.47096" lon="3.71845">
        <ele>195</ele>
        <time>2015-11-23T13:49:39.681Z</time>
      </trkpt>
      <trkpt lat="49.47098" lon="3.71845">
        <ele>195</ele>
        <time>2015-11-23T13:49:40.661Z</time>
      </trkpt>
      <trkpt lat="49.47106" lon="3.71843">
        <ele>195.4</ele>
        <time>2015-11-23T13:49:49.722Z</time>
      </trkpt>
      <trkpt lat="49.47107" lon="3.71843">
        <ele>195.4</ele>
        <time>2015-11-23T13:49:50.592Z</time>
      </trkpt>
      <trkpt lat="49.47115" lon="3.71841">
        <ele>196.8</ele>
        <time>2015-11-23T13:49:57.681Z</time>
      </trkpt>
      <trkpt lat="49.47117" lon="3.71841">
        <ele>197</ele>
        <time>2015-11-23T13:49:58.585Z</time>
      </trkpt>
      <trkpt lat="49.47124" lon="3.71838">
        <ele>197.3</ele>
        <time>2015-11-23T13:50:08.604Z</time>
      </trkpt>
      <trkpt lat="49.47126" lon="3.71837">
        <ele>197.2</ele>
        <time>2015-11-23T13:50:09.591Z</time>
      </trkpt>
      <trkpt lat="49.47135" lon="3.71836">
        <ele>198.3</ele>
        <time>2015-11-23T13:50:17.607Z</time>
      </trkpt>
      <trkpt lat="49.47136" lon="3.71836">
        <ele>198.2</ele>
        <time>2015-11-23T13:50:18.596Z</time>
      </trkpt>
      <trkpt lat="49.47143" lon="3.71836">
        <ele>198.7</ele>
        <time>2015-11-23T13:50:23.693Z</time>
      </trkpt>
      <trkpt lat="49.47145" lon="3.71836">
        <ele>198.8</ele>
        <time>2015-11-23T13:50:24.677Z</time>
      </trkpt>
      <trkpt lat="49.47153" lon="3.71834">
        <ele>199.1</ele>
        <time>2015-11-23T13:50:29.643Z</time>
      </trkpt>
      <trkpt lat="49.47154" lon="3.71834">
        <ele>199.2</ele>
        <time>2015-11-23T13:50:30.637Z</time>
      </trkpt>
      <trkpt lat="49.47163" lon="3.71832">
        <ele>199.8</ele>
        <time>2015-11-23T13:50:37.654Z</time>
      </trkpt>
      <trkpt lat="49.47164" lon="3.71831">
        <ele>199.8</ele>
        <time>2015-11-23T13:50:38.637Z</time>
      </trkpt>
      <trkpt lat="49.47172" lon="3.7183">
        <ele>200</ele>
        <time>2015-11-23T13:50:45.596Z</time>
      </trkpt>
      <trkpt lat="49.47174" lon="3.71829">
        <ele>199.9</ele>
        <time>2015-11-23T13:50:46.599Z</time>
      </trkpt>
      <trkpt lat="49.47181" lon="3.71825">
        <ele>200.7</ele>
        <time>2015-11-23T13:50:51.704Z</time>
      </trkpt>
      <trkpt lat="49.47182" lon="3.71825">
        <ele>200.8</ele>
        <time>2015-11-23T13:50:52.595Z</time>
      </trkpt>
      <trkpt lat="49.4719" lon="3.71822">
        <ele>201.2</ele>
        <time>2015-11-23T13:50:59.699Z</time>
      </trkpt>
      <trkpt lat="49.47191" lon="3.71821">
        <ele>201.2</ele>
        <time>2015-11-23T13:51:00.695Z</time>
      </trkpt>
      <trkpt lat="49.472" lon="3.71817">
        <ele>201.3</ele>
        <time>2015-11-23T13:51:07.660Z</time>
      </trkpt>
      <trkpt lat="49.47201" lon="3.71816">
        <ele>201.3</ele>
        <time>2015-11-23T13:51:08.656Z</time>
      </trkpt>
      <trkpt lat="49.47209" lon="3.71811">
        <ele>200.6</ele>
        <time>2015-11-23T13:51:15.692Z</time>
      </trkpt>
      <trkpt lat="49.4721" lon="3.7181">
        <ele>200.7</ele>
        <time>2015-11-23T13:51:16.673Z</time>
      </trkpt>
      <trkpt lat="49.47218" lon="3.71807">
        <ele>200.6</ele>
        <time>2015-11-23T13:51:23.601Z</time>
      </trkpt>
      <trkpt lat="49.47219" lon="3.71806">
        <ele>200.6</ele>
        <time>2015-11-23T13:51:24.602Z</time>
      </trkpt>
      <trkpt lat="49.47228" lon="3.71805">
        <ele>199.9</ele>
        <time>2015-11-23T13:51:32.599Z</time>
      </trkpt>
      <trkpt lat="49.47229" lon="3.71805">
        <ele>199.9</ele>
        <time>2015-11-23T13:51:33.594Z</time>
      </trkpt>
      <trkpt lat="49.47236" lon="3.718">
        <ele>199.7</ele>
        <time>2015-11-23T13:51:39.655Z</time>
      </trkpt>
      <trkpt lat="49.47238" lon="3.718">
        <ele>199.8</ele>
        <time>2015-11-23T13:51:40.667Z</time>
      </trkpt>
      <trkpt lat="49.47245" lon="3.71796">
        <ele>200.1</ele>
        <time>2015-11-23T13:51:47.631Z</time>
      </trkpt>
      <trkpt lat="49.47246" lon="3.71796">
        <ele>200.1</ele>
        <time>2015-11-23T13:51:48.619Z</time>
      </trkpt>
      <trkpt lat="49.47254" lon="3.71792">
        <ele>200.4</ele>
        <time>2015-11-23T13:51:55.713Z</time>
      </trkpt>
      <trkpt lat="49.47255" lon="3.71792">
        <ele>200.2</ele>
        <time>2015-11-23T13:51:56.597Z</time>
      </trkpt>
      <trkpt lat="49.47262" lon="3.71787">
        <ele>200</ele>
        <time>2015-11-23T13:52:03.672Z</time>
      </trkpt>
      <trkpt lat="49.47264" lon="3.71786">
        <ele>199.9</ele>
        <time>2015-11-23T13:52:04.665Z</time>
      </trkpt>
      <trkpt lat="49.47271" lon="3.71785">
        <ele>200.8</ele>
        <time>2015-11-23T13:52:10.685Z</time>
      </trkpt>
      <trkpt lat="49.47273" lon="3.71785">
        <ele>201.3</ele>
        <time>2015-11-23T13:52:11.662Z</time>
      </trkpt>
      <trkpt lat="49.47281" lon="3.71783">
        <ele>203</ele>
        <time>2015-11-23T13:52:18.629Z</time>
      </trkpt>
      <trkpt lat="49.47282" lon="3.71783">
        <ele>203.2</ele>
        <time>2015-11-23T13:52:19.635Z</time>
      </trkpt>
      <trkpt lat="49.47291" lon="3.7178">
        <ele>204.2</ele>
        <time>2015-11-23T13:52:26.600Z</time>
      </trkpt>
      <trkpt lat="49.47292" lon="3.71779">
        <ele>204.3</ele>
        <time>2015-11-23T13:52:27.591Z</time>
      </trkpt>
      <trkpt lat="49.473" lon="3.71776">
        <ele>205.6</ele>
        <time>2015-11-23T13:52:34.697Z</time>
      </trkpt>
      <trkpt lat="49.47301" lon="3.71776">
        <ele>205.7</ele>
        <time>2015-11-23T13:52:35.589Z</time>
      </trkpt>
      <trkpt lat="49.47308" lon="3.71772">
        <ele>206.3</ele>
        <time>2015-11-23T13:52:42.646Z</time>
      </trkpt>
      <trkpt lat="49.47309" lon="3.71771">
        <ele>206.4</ele>
        <time>2015-11-23T13:52:43.632Z</time>
      </trkpt>
      <trkpt lat="49.47318" lon="3.71768">
        <ele>207</ele>
        <time>2015-11-23T13:52:51.615Z</time>
      </trkpt>
      <trkpt lat="49.47319" lon="3.71767">
        <ele>207</ele>
        <time>2015-11-23T13:52:52.604Z</time>
      </trkpt>
      <trkpt lat="49.47327" lon="3.71763">
        <ele>207.6</ele>
        <time>2015-11-23T13:53:00.615Z</time>
      </trkpt>
      <trkpt lat="49.47327" lon="3.71762">
        <ele>207.6</ele>
        <time>2015-11-23T13:53:01.638Z</time>
      </trkpt>
      <trkpt lat="49.47335" lon="3.71757">
        <ele>207.8</ele>
        <time>2015-11-23T13:53:09.620Z</time>
      </trkpt>
      <trkpt lat="49.47337" lon="3.71756">
        <ele>208</ele>
        <time>2015-11-23T13:53:10.667Z</time>
      </trkpt>
      <trkpt lat="49.47344" lon="3.7175">
        <ele>208.1</ele>
        <time>2015-11-23T13:53:18.721Z</time>
      </trkpt>
      <trkpt lat="49.47345" lon="3.71749">
        <ele>208.2</ele>
        <time>2015-11-23T13:53:19.707Z</time>
      </trkpt>
      <trkpt lat="49.47351" lon="3.71745">
        <ele>208</ele>
        <time>2015-11-23T13:53:25.660Z</time>
      </trkpt>
      <trkpt lat="49.47351" lon="3.71745">
        <ele>208</ele>
        <time>2015-11-23T13:53:26.653Z</time>
      </trkpt>
      <trkpt lat="49.47351" lon="3.71745">
        <ele>207.9</ele>
        <time>2015-11-23T13:53:27.700Z</time>
      </trkpt>
      <trkpt lat="49.47352" lon="3.71745">
        <ele>207.9</ele>
        <time>2015-11-23T13:53:28.597Z</time>
      </trkpt>
      <trkpt lat="49.4736" lon="3.71743">
        <ele>207.7</ele>
        <time>2015-11-23T13:53:35.694Z</time>
      </trkpt>
      <trkpt lat="49.47361" lon="3.71742">
        <ele>207.8</ele>
        <time>2015-11-23T13:53:36.597Z</time>
      </trkpt>
      <trkpt lat="49.47366" lon="3.71738">
        <ele>207.7</ele>
        <time>2015-11-23T13:53:43.656Z</time>
      </trkpt>
      <trkpt lat="49.47365" lon="3.71739">
        <ele>207.2</ele>
        <time>2015-11-23T13:53:44.640Z</time>
      </trkpt>
      <trkpt lat="49.47365" lon="3.71739">
        <ele>207.2</ele>
        <time>2015-11-23T13:53:44.659Z</time>
      </trkpt>
      <trkpt lat="49.47365" lon="3.71739">
        <ele>207</ele>
        <time>2015-11-23T13:53:45.660Z</time>
      </trkpt>
      <trkpt lat="49.47372" lon="3.71734">
        <ele>206.5</ele>
        <time>2015-11-23T13:53:55.729Z</time>
      </trkpt>
      <trkpt lat="49.47374" lon="3.71733">
        <ele>206.8</ele>
        <time>2015-11-23T13:53:56.596Z</time>
      </trkpt>
      <trkpt lat="49.47382" lon="3.71728">
        <ele>207.2</ele>
        <time>2015-11-23T13:54:03.706Z</time>
      </trkpt>
      <trkpt lat="49.47383" lon="3.71727">
        <ele>207.2</ele>
        <time>2015-11-23T13:54:04.683Z</time>
      </trkpt>
      <trkpt lat="49.4739" lon="3.71721">
        <ele>207.1</ele>
        <time>2015-11-23T13:54:10.694Z</time>
      </trkpt>
      <trkpt lat="49.47392" lon="3.71721">
        <ele>207</ele>
        <time>2015-11-23T13:54:11.680Z</time>
      </trkpt>
      <trkpt lat="49.47399" lon="3.71715">
        <ele>207.5</ele>
        <time>2015-11-23T13:54:17.632Z</time>
      </trkpt>
      <trkpt lat="49.47401" lon="3.71714">
        <ele>207.4</ele>
        <time>2015-11-23T13:54:18.632Z</time>
      </trkpt>
      <trkpt lat="49.47408" lon="3.71708">
        <ele>207.9</ele>
        <time>2015-11-23T13:54:23.618Z</time>
      </trkpt>
      <trkpt lat="49.47409" lon="3.71707">
        <ele>208</ele>
        <time>2015-11-23T13:54:24.607Z</time>
      </trkpt>
      <trkpt lat="49.47416" lon="3.71701">
        <ele>208.3</ele>
        <time>2015-11-23T13:54:31.710Z</time>
      </trkpt>
      <trkpt lat="49.47417" lon="3.71701">
        <ele>208.4</ele>
        <time>2015-11-23T13:54:32.595Z</time>
      </trkpt>
      <trkpt lat="49.47425" lon="3.71695">
        <ele>208.9</ele>
        <time>2015-11-23T13:54:38.675Z</time>
      </trkpt>
      <trkpt lat="49.47426" lon="3.71694">
        <ele>208.9</ele>
        <time>2015-11-23T13:54:39.656Z</time>
      </trkpt>
      <trkpt lat="49.47433" lon="3.71688">
        <ele>209.3</ele>
        <time>2015-11-23T13:54:46.685Z</time>
      </trkpt>
      <trkpt lat="49.47434" lon="3.71687">
        <ele>209.3</ele>
        <time>2015-11-23T13:54:47.670Z</time>
      </trkpt>
      <trkpt lat="49.47441" lon="3.71681">
        <ele>209.6</ele>
        <time>2015-11-23T13:54:54.625Z</time>
      </trkpt>
      <trkpt lat="49.47442" lon="3.7168">
        <ele>209.7</ele>
        <time>2015-11-23T13:54:55.645Z</time>
      </trkpt>
      <trkpt lat="49.4745" lon="3.71674">
        <ele>210.2</ele>
        <time>2015-11-23T13:55:02.879Z</time>
      </trkpt>
      <trkpt lat="49.47451" lon="3.71673">
        <ele>210.3</ele>
        <time>2015-11-23T13:55:03.670Z</time>
      </trkpt>
      <trkpt lat="49.47457" lon="3.71665">
        <ele>210.3</ele>
        <time>2015-11-23T13:55:11.685Z</time>
      </trkpt>
      <trkpt lat="49.47458" lon="3.71664">
        <ele>210.3</ele>
        <time>2015-11-23T13:55:12.687Z</time>
      </trkpt>
      <trkpt lat="49.47465" lon="3.71658">
        <ele>211.1</ele>
        <time>2015-11-23T13:55:21.687Z</time>
      </trkpt>
      <trkpt lat="49.47466" lon="3.71657">
        <ele>211.1</ele>
        <time>2015-11-23T13:55:22.705Z</time>
      </trkpt>
      <trkpt lat="49.47474" lon="3.71651">
        <ele>211.9</ele>
        <time>2015-11-23T13:55:29.663Z</time>
      </trkpt>
      <trkpt lat="49.47474" lon="3.7165">
        <ele>211.9</ele>
        <time>2015-11-23T13:55:30.666Z</time>
      </trkpt>
      <trkpt lat="49.47482" lon="3.71642">
        <ele>212</ele>
        <time>2015-11-23T13:55:37.646Z</time>
      </trkpt>
      <trkpt lat="49.47483" lon="3.71641">
        <ele>212</ele>
        <time>2015-11-23T13:55:38.637Z</time>
      </trkpt>
      <trkpt lat="49.4749" lon="3.71635">
        <ele>212.2</ele>
        <time>2015-11-23T13:55:45.844Z</time>
      </trkpt>
      <trkpt lat="49.47491" lon="3.71634">
        <ele>212.2</ele>
        <time>2015-11-23T13:55:46.612Z</time>
      </trkpt>
      <trkpt lat="49.47498" lon="3.71628">
        <ele>212.5</ele>
        <time>2015-11-23T13:55:53.709Z</time>
      </trkpt>
      <trkpt lat="49.47499" lon="3.71627">
        <ele>212.3</ele>
        <time>2015-11-23T13:55:54.592Z</time>
      </trkpt>
      <trkpt lat="49.47506" lon="3.7162">
        <ele>211.9</ele>
        <time>2015-11-23T13:56:02.659Z</time>
      </trkpt>
      <trkpt lat="49.47507" lon="3.71619">
        <ele>212</ele>
        <time>2015-11-23T13:56:03.678Z</time>
      </trkpt>
      <trkpt lat="49.47515" lon="3.71613">
        <ele>212.2</ele>
        <time>2015-11-23T13:56:13.718Z</time>
      </trkpt>
      <trkpt lat="49.47516" lon="3.71612">
        <ele>212.4</ele>
        <time>2015-11-23T13:56:14.596Z</time>
      </trkpt>
      <trkpt lat="49.47523" lon="3.71608">
        <ele>213.3</ele>
        <time>2015-11-23T13:56:21.683Z</time>
      </trkpt>
      <trkpt lat="49.47524" lon="3.71608">
        <ele>213.4</ele>
        <time>2015-11-23T13:56:22.675Z</time>
      </trkpt>
      <trkpt lat="49.47532" lon="3.71605">
        <ele>213.2</ele>
        <time>2015-11-23T13:56:29.622Z</time>
      </trkpt>
      <trkpt lat="49.47534" lon="3.71605">
        <ele>213.3</ele>
        <time>2015-11-23T13:56:30.622Z</time>
      </trkpt>
      <trkpt lat="49.47542" lon="3.71604">
        <ele>214</ele>
        <time>2015-11-23T13:56:37.651Z</time>
      </trkpt>
      <trkpt lat="49.47543" lon="3.71604">
        <ele>214</ele>
        <time>2015-11-23T13:56:38.644Z</time>
      </trkpt>
      <trkpt lat="49.47551" lon="3.71603">
        <ele>214.4</ele>
        <time>2015-11-23T13:56:47.654Z</time>
      </trkpt>
      <trkpt lat="49.47552" lon="3.71602">
        <ele>214.4</ele>
        <time>2015-11-23T13:56:48.668Z</time>
      </trkpt>
      <trkpt lat="49.47561" lon="3.71604">
        <ele>214.5</ele>
        <time>2015-11-23T13:56:56.689Z</time>
      </trkpt>
      <trkpt lat="49.47562" lon="3.71603">
        <ele>214.5</ele>
        <time>2015-11-23T13:56:57.674Z</time>
      </trkpt>
      <trkpt lat="49.4757" lon="3.71602">
        <ele>215.5</ele>
        <time>2015-11-23T13:57:05.688Z</time>
      </trkpt>
      <trkpt lat="49.47571" lon="3.71602">
        <ele>215.5</ele>
        <time>2015-11-23T13:57:06.683Z</time>
      </trkpt>
      <trkpt lat="49.47579" lon="3.71602">
        <ele>215.9</ele>
        <time>2015-11-23T13:57:12.633Z</time>
      </trkpt>
      <trkpt lat="49.4758" lon="3.71602">
        <ele>215.9</ele>
        <time>2015-11-23T13:57:13.644Z</time>
      </trkpt>
      <trkpt lat="49.47589" lon="3.71601">
        <ele>217.1</ele>
        <time>2015-11-23T13:57:21.608Z</time>
      </trkpt>
      <trkpt lat="49.4759" lon="3.716">
        <ele>217.1</ele>
        <time>2015-11-23T13:57:22.620Z</time>
      </trkpt>
      <trkpt lat="49.47598" lon="3.71602">
        <ele>216.2</ele>
        <time>2015-11-23T13:57:29.687Z</time>
      </trkpt>
      <trkpt lat="49.476" lon="3.71603">
        <ele>216.2</ele>
        <time>2015-11-23T13:57:30.691Z</time>
      </trkpt>
      <trkpt lat="49.47607" lon="3.71603">
        <ele>216.8</ele>
        <time>2015-11-23T13:57:36.650Z</time>
      </trkpt>
      <trkpt lat="49.47609" lon="3.71603">
        <ele>217</ele>
        <time>2015-11-23T13:57:37.651Z</time>
      </trkpt>
      <trkpt lat="49.47617" lon="3.71605">
        <ele>217.6</ele>
        <time>2015-11-23T13:57:44.701Z</time>
      </trkpt>
      <trkpt lat="49.47618" lon="3.71605">
        <ele>217.6</ele>
        <time>2015-11-23T13:57:45.675Z</time>
      </trkpt>
      <trkpt lat="49.47626" lon="3.71608">
        <ele>217.9</ele>
        <time>2015-11-23T13:57:51.639Z</time>
      </trkpt>
      <trkpt lat="49.47628" lon="3.71608">
        <ele>217.9</ele>
        <time>2015-11-23T13:57:52.629Z</time>
      </trkpt>
      <trkpt lat="49.47635" lon="3.71611">
        <ele>218</ele>
        <time>2015-11-23T13:57:58.710Z</time>
      </trkpt>
      <trkpt lat="49.47637" lon="3.71611">
        <ele>218</ele>
        <time>2015-11-23T13:57:59.591Z</time>
      </trkpt>
      <trkpt lat="49.47645" lon="3.71614">
        <ele>218.8</ele>
        <time>2015-11-23T13:58:05.625Z</time>
      </trkpt>
      <trkpt lat="49.47646" lon="3.71615">
        <ele>218.9</ele>
        <time>2015-11-23T13:58:06.620Z</time>
      </trkpt>
      <trkpt lat="49.47654" lon="3.7162">
        <ele>219.4</ele>
        <time>2015-11-23T13:58:12.714Z</time>
      </trkpt>
      <trkpt lat="49.47655" lon="3.71621">
        <ele>219.5</ele>
        <time>2015-11-23T13:58:13.752Z</time>
      </trkpt>
      <trkpt lat="49.47663" lon="3.71628">
        <ele>220.4</ele>
        <time>2015-11-23T13:58:21.697Z</time>
      </trkpt>
      <trkpt lat="49.47663" lon="3.71628">
        <ele>220.5</ele>
        <time>2015-11-23T13:58:22.696Z</time>
      </trkpt>
      <trkpt lat="49.47663" lon="3.71628">
        <ele>220.5</ele>
        <time>2015-11-23T13:58:22.734Z</time>
      </trkpt>
      <trkpt lat="49.47663" lon="3.71629">
        <ele>220.6</ele>
        <time>2015-11-23T13:58:24.619Z</time>
      </trkpt>
      <trkpt lat="49.47664" lon="3.7163">
        <ele>220.7</ele>
        <time>2015-11-23T13:58:25.658Z</time>
      </trkpt>
      <trkpt lat="49.4767" lon="3.71636">
        <ele>221.1</ele>
        <time>2015-11-23T13:58:34.723Z</time>
      </trkpt>
      <trkpt lat="49.47672" lon="3.71638">
        <ele>221.1</ele>
        <time>2015-11-23T13:58:35.830Z</time>
      </trkpt>
      <trkpt lat="49.47675" lon="3.7164">
        <ele>221.3</ele>
        <time>2015-11-23T13:58:38.708Z</time>
      </trkpt>
      <trkpt lat="49.47675" lon="3.7164">
        <ele>221.4</ele>
        <time>2015-11-23T13:58:39.699Z</time>
      </trkpt>
      <trkpt lat="49.47675" lon="3.7164">
        <ele>221.4</ele>
        <time>2015-11-23T13:58:39.717Z</time>
      </trkpt>
      <trkpt lat="49.47675" lon="3.71641">
        <ele>221.4</ele>
        <time>2015-11-23T13:58:40.613Z</time>
      </trkpt>
      <trkpt lat="49.47678" lon="3.71644">
        <ele>221.3</ele>
        <time>2015-11-23T13:58:43.696Z</time>
      </trkpt>
      <trkpt lat="49.47678" lon="3.71644">
        <ele>221.3</ele>
        <time>2015-11-23T13:58:44.686Z</time>
      </trkpt>
      <trkpt lat="49.47678" lon="3.71644">
        <ele>221.3</ele>
        <time>2015-11-23T13:58:44.706Z</time>
      </trkpt>
      <trkpt lat="49.47678" lon="3.71644">
        <ele>221.3</ele>
        <time>2015-11-23T13:58:45.692Z</time>
      </trkpt>
      <trkpt lat="49.47685" lon="3.71652">
        <ele>221.7</ele>
        <time>2015-11-23T13:58:57.691Z</time>
      </trkpt>
      <trkpt lat="49.47686" lon="3.71653">
        <ele>221.8</ele>
        <time>2015-11-23T13:58:58.701Z</time>
      </trkpt>
      <trkpt lat="49.47692" lon="3.71659">
        <ele>222.7</ele>
        <time>2015-11-23T13:59:06.659Z</time>
      </trkpt>
      <trkpt lat="49.47695" lon="3.71661">
        <ele>222</ele>
        <time>2015-11-23T13:59:07.667Z</time>
      </trkpt>
      <trkpt lat="49.47702" lon="3.71666">
        <ele>219.8</ele>
        <time>2015-11-23T13:59:11.631Z</time>
      </trkpt>
      <trkpt lat="49.47704" lon="3.71667">
        <ele>219</ele>
        <time>2015-11-23T13:59:12.613Z</time>
      </trkpt>
      <trkpt lat="49.47711" lon="3.71675">
        <ele>216.6</ele>
        <time>2015-11-23T13:59:19.717Z</time>
      </trkpt>
      <trkpt lat="49.47712" lon="3.71676">
        <ele>216.6</ele>
        <time>2015-11-23T13:59:20.599Z</time>
      </trkpt>
      <trkpt lat="49.47719" lon="3.71681">
        <ele>215.2</ele>
        <time>2015-11-23T13:59:26.674Z</time>
      </trkpt>
      <trkpt lat="49.4772" lon="3.71681">
        <ele>215.3</ele>
        <time>2015-11-23T13:59:27.679Z</time>
      </trkpt>
      <trkpt lat="49.47728" lon="3.71686">
        <ele>213.5</ele>
        <time>2015-11-23T13:59:33.664Z</time>
      </trkpt>
      <trkpt lat="49.4773" lon="3.71688">
        <ele>213.7</ele>
        <time>2015-11-23T13:59:34.641Z</time>
      </trkpt>
      <trkpt lat="49.47737" lon="3.71683">
        <ele>213.9</ele>
        <time>2015-11-23T13:59:41.611Z</time>
      </trkpt>
      <trkpt lat="49.47738" lon="3.71682">
        <ele>214</ele>
        <time>2015-11-23T13:59:42.612Z</time>
      </trkpt>
      <trkpt lat="49.47745" lon="3.71675">
        <ele>213.5</ele>
        <time>2015-11-23T13:59:50.696Z</time>
      </trkpt>
      <trkpt lat="49.47747" lon="3.71675">
        <ele>213.4</ele>
        <time>2015-11-23T13:59:51.687Z</time>
      </trkpt>
      <trkpt lat="49.47754" lon="3.71669">
        <ele>212.9</ele>
        <time>2015-11-23T13:59:57.664Z</time>
      </trkpt>
      <trkpt lat="49.47755" lon="3.71668">
        <ele>212.8</ele>
        <time>2015-11-23T13:59:58.668Z</time>
      </trkpt>
      <trkpt lat="49.47761" lon="3.71659">
        <ele>212.2</ele>
        <time>2015-11-23T14:00:04.654Z</time>
      </trkpt>
      <trkpt lat="49.47762" lon="3.71657">
        <ele>212.2</ele>
        <time>2015-11-23T14:00:05.643Z</time>
      </trkpt>
      <trkpt lat="49.47767" lon="3.7165">
        <ele>212.2</ele>
        <time>2015-11-23T14:00:12.621Z</time>
      </trkpt>
      <trkpt lat="49.47767" lon="3.7165">
        <ele>212.2</ele>
        <time>2015-11-23T14:00:13.719Z</time>
      </trkpt>
      <trkpt lat="49.47768" lon="3.7165">
        <ele>212</ele>
        <time>2015-11-23T14:00:30.674Z</time>
      </trkpt>
      <trkpt lat="49.47768" lon="3.71652">
        <ele>211.5</ele>
        <time>2015-11-23T14:00:31.670Z</time>
      </trkpt>
      <trkpt lat="49.47762" lon="3.71659">
        <ele>208.8</ele>
        <time>2015-11-23T14:00:37.902Z</time>
      </trkpt>
      <trkpt lat="49.47761" lon="3.7166">
        <ele>208.5</ele>
        <time>2015-11-23T14:00:38.654Z</time>
      </trkpt>
      <trkpt lat="49.47754" lon="3.71668">
        <ele>208.3</ele>
        <time>2015-11-23T14:00:44.705Z</time>
      </trkpt>
      <trkpt lat="49.47752" lon="3.71669">
        <ele>208.3</ele>
        <time>2015-11-23T14:00:45.688Z</time>
      </trkpt>
      <trkpt lat="49.47745" lon="3.71677">
        <ele>208.9</ele>
        <time>2015-11-23T14:00:52.705Z</time>
      </trkpt>
      <trkpt lat="49.47745" lon="3.71678">
        <ele>208.7</ele>
        <time>2015-11-23T14:00:53.675Z</time>
      </trkpt>
      <trkpt lat="49.47739" lon="3.71688">
        <ele>209.2</ele>
        <time>2015-11-23T14:00:59.674Z</time>
      </trkpt>
      <trkpt lat="49.47738" lon="3.7169">
        <ele>209.3</ele>
        <time>2015-11-23T14:01:00.657Z</time>
      </trkpt>
      <trkpt lat="49.47736" lon="3.71703">
        <ele>209.7</ele>
        <time>2015-11-23T14:01:07.727Z</time>
      </trkpt>
      <trkpt lat="49.47736" lon="3.71705">
        <ele>209.9</ele>
        <time>2015-11-23T14:01:08.603Z</time>
      </trkpt>
      <trkpt lat="49.47737" lon="3.71719">
        <ele>210.2</ele>
        <time>2015-11-23T14:01:15.686Z</time>
      </trkpt>
      <trkpt lat="49.47737" lon="3.71721">
        <ele>210.3</ele>
        <time>2015-11-23T14:01:16.671Z</time>
      </trkpt>
      <trkpt lat="49.47736" lon="3.71733">
        <ele>210</ele>
        <time>2015-11-23T14:01:22.646Z</time>
      </trkpt>
      <trkpt lat="49.47735" lon="3.71735">
        <ele>209.7</ele>
        <time>2015-11-23T14:01:23.639Z</time>
      </trkpt>
      <trkpt lat="49.47734" lon="3.71748">
        <ele>209.8</ele>
        <time>2015-11-23T14:01:30.618Z</time>
      </trkpt>
      <trkpt lat="49.47733" lon="3.71749">
        <ele>209.9</ele>
        <time>2015-11-23T14:01:31.636Z</time>
      </trkpt>
      <trkpt lat="49.47732" lon="3.71763">
        <ele>210</ele>
        <time>2015-11-23T14:01:39.619Z</time>
      </trkpt>
      <trkpt lat="49.47732" lon="3.71765">
        <ele>210.2</ele>
        <time>2015-11-23T14:01:40.613Z</time>
      </trkpt>
      <trkpt lat="49.47731" lon="3.71777">
        <ele>210.5</ele>
        <time>2015-11-23T14:01:48.715Z</time>
      </trkpt>
      <trkpt lat="49.47731" lon="3.71779">
        <ele>210.5</ele>
        <time>2015-11-23T14:01:49.702Z</time>
      </trkpt>
      <trkpt lat="49.47729" lon="3.71792">
        <ele>209.8</ele>
        <time>2015-11-23T14:01:56.660Z</time>
      </trkpt>
      <trkpt lat="49.47729" lon="3.71793">
        <ele>209.7</ele>
        <time>2015-11-23T14:01:57.656Z</time>
      </trkpt>
      <trkpt lat="49.47729" lon="3.71806">
        <ele>211.4</ele>
        <time>2015-11-23T14:02:31.658Z</time>
      </trkpt>
      <trkpt lat="49.47729" lon="3.71808">
        <ele>211.6</ele>
        <time>2015-11-23T14:02:32.647Z</time>
      </trkpt>
      <trkpt lat="49.47728" lon="3.71817">
        <ele>212.6</ele>
        <time>2015-11-23T14:02:38.603Z</time>
      </trkpt>
      <trkpt lat="49.47728" lon="3.71817">
        <ele>212.7</ele>
        <time>2015-11-23T14:02:39.594Z</time>
      </trkpt>
      <trkpt lat="49.47729" lon="3.71817">
        <ele>212.9</ele>
        <time>2015-11-23T14:03:10.682Z</time>
      </trkpt>
      <trkpt lat="49.47729" lon="3.71819">
        <ele>213.1</ele>
        <time>2015-11-23T14:03:11.675Z</time>
      </trkpt>
      <trkpt lat="49.47726" lon="3.71832">
        <ele>212.6</ele>
        <time>2015-11-23T14:03:24.629Z</time>
      </trkpt>
      <trkpt lat="49.47726" lon="3.71834">
        <ele>212.5</ele>
        <time>2015-11-23T14:03:25.633Z</time>
      </trkpt>
      <trkpt lat="49.47721" lon="3.71845">
        <ele>211.8</ele>
        <time>2015-11-23T14:03:35.666Z</time>
      </trkpt>
      <trkpt lat="49.47721" lon="3.71847">
        <ele>211.9</ele>
        <time>2015-11-23T14:03:36.672Z</time>
      </trkpt>
      <trkpt lat="49.47718" lon="3.71859">
        <ele>211</ele>
        <time>2015-11-23T14:03:44.619Z</time>
      </trkpt>
      <trkpt lat="49.47718" lon="3.71861">
        <ele>210.9</ele>
        <time>2015-11-23T14:03:45.603Z</time>
      </trkpt>
      <trkpt lat="49.47715" lon="3.71873">
        <ele>210.9</ele>
        <time>2015-11-23T14:03:52.719Z</time>
      </trkpt>
      <trkpt lat="49.47715" lon="3.71875">
        <ele>211</ele>
        <time>2015-11-23T14:03:53.685Z</time>
      </trkpt>
      <trkpt lat="49.47713" lon="3.71887">
        <ele>211.1</ele>
        <time>2015-11-23T14:03:59.646Z</time>
      </trkpt>
      <trkpt lat="49.47713" lon="3.71889">
        <ele>211.2</ele>
        <time>2015-11-23T14:04:00.637Z</time>
      </trkpt>
      <trkpt lat="49.47712" lon="3.71902">
        <ele>211.9</ele>
        <time>2015-11-23T14:04:08.614Z</time>
      </trkpt>
      <trkpt lat="49.47712" lon="3.71904">
        <ele>211.9</ele>
        <time>2015-11-23T14:04:09.601Z</time>
      </trkpt>
      <trkpt lat="49.47711" lon="3.71916">
        <ele>211.8</ele>
        <time>2015-11-23T14:04:16.706Z</time>
      </trkpt>
      <trkpt lat="49.47711" lon="3.71918">
        <ele>211.9</ele>
        <time>2015-11-23T14:04:17.592Z</time>
      </trkpt>
      <trkpt lat="49.4771" lon="3.71931">
        <ele>212.3</ele>
        <time>2015-11-23T14:04:25.654Z</time>
      </trkpt>
      <trkpt lat="49.4771" lon="3.71933">
        <ele>212.4</ele>
        <time>2015-11-23T14:04:26.653Z</time>
      </trkpt>
      <trkpt lat="49.4771" lon="3.71946">
        <ele>212.1</ele>
        <time>2015-11-23T14:04:34.776Z</time>
      </trkpt>
      <trkpt lat="49.4771" lon="3.71947">
        <ele>212.2</ele>
        <time>2015-11-23T14:04:35.686Z</time>
      </trkpt>
      <trkpt lat="49.4771" lon="3.71959">
        <ele>212.7</ele>
        <time>2015-11-23T14:04:42.711Z</time>
      </trkpt>
      <trkpt lat="49.4771" lon="3.71961">
        <ele>212.7</ele>
        <time>2015-11-23T14:04:43.699Z</time>
      </trkpt>
      <trkpt lat="49.4771" lon="3.71974">
        <ele>213.7</ele>
        <time>2015-11-23T14:04:50.688Z</time>
      </trkpt>
      <trkpt lat="49.4771" lon="3.71976">
        <ele>213.7</ele>
        <time>2015-11-23T14:04:51.674Z</time>
      </trkpt>
      <trkpt lat="49.47709" lon="3.71989">
        <ele>214</ele>
        <time>2015-11-23T14:04:59.668Z</time>
      </trkpt>
      <trkpt lat="49.47709" lon="3.7199">
        <ele>214.1</ele>
        <time>2015-11-23T14:05:00.644Z</time>
      </trkpt>
      <trkpt lat="49.47707" lon="3.72003">
        <ele>215.8</ele>
        <time>2015-11-23T14:05:11.709Z</time>
      </trkpt>
      <trkpt lat="49.47706" lon="3.72004">
        <ele>216</ele>
        <time>2015-11-23T14:05:12.697Z</time>
      </trkpt>
      <trkpt lat="49.47702" lon="3.72016">
        <ele>215.9</ele>
        <time>2015-11-23T14:05:25.675Z</time>
      </trkpt>
      <trkpt lat="49.47701" lon="3.72016">
        <ele>215.8</ele>
        <time>2015-11-23T14:05:26.661Z</time>
      </trkpt>
      <trkpt lat="49.47697" lon="3.7202">
        <ele>216.3</ele>
        <time>2015-11-23T14:05:36.706Z</time>
      </trkpt>
      <trkpt lat="49.47697" lon="3.7202">
        <ele>216.4</ele>
        <time>2015-11-23T14:05:37.656Z</time>
      </trkpt>
      <trkpt lat="49.47697" lon="3.7202">
        <ele>216.3</ele>
        <time>2015-11-23T14:05:48.652Z</time>
      </trkpt>
      <trkpt lat="49.47694" lon="3.7202">
        <ele>216</ele>
        <time>2015-11-23T14:05:49.894Z</time>
      </trkpt>
      <trkpt lat="49.47691" lon="3.72031">
        <ele>216.7</ele>
        <time>2015-11-23T14:05:57.703Z</time>
      </trkpt>
      <trkpt lat="49.47691" lon="3.72033">
        <ele>216.7</ele>
        <time>2015-11-23T14:05:58.697Z</time>
      </trkpt>
      <trkpt lat="49.47692" lon="3.72045">
        <ele>217.3</ele>
        <time>2015-11-23T14:06:07.401Z</time>
      </trkpt>
      <trkpt lat="49.47692" lon="3.72047">
        <ele>217.2</ele>
        <time>2015-11-23T14:06:08.195Z</time>
      </trkpt>
      <trkpt lat="49.47691" lon="3.72059">
        <ele>217.3</ele>
        <time>2015-11-23T14:06:16.228Z</time>
      </trkpt>
      <trkpt lat="49.47692" lon="3.72061">
        <ele>217.4</ele>
        <time>2015-11-23T14:06:17.178Z</time>
      </trkpt>
      <trkpt lat="49.47694" lon="3.72073">
        <ele>217.5</ele>
        <time>2015-11-23T14:06:27.717Z</time>
      </trkpt>
      <trkpt lat="49.47694" lon="3.72074">
        <ele>217.6</ele>
        <time>2015-11-23T14:06:28.270Z</time>
      </trkpt>
      <trkpt lat="49.47695" lon="3.72087">
        <ele>219</ele>
        <time>2015-11-23T14:06:38.279Z</time>
      </trkpt>
      <trkpt lat="49.47695" lon="3.72089">
        <ele>219.1</ele>
        <time>2015-11-23T14:06:39.255Z</time>
      </trkpt>
      <trkpt lat="49.47695" lon="3.72101">
        <ele>219.2</ele>
        <time>2015-11-23T14:06:47.195Z</time>
      </trkpt>
      <trkpt lat="49.47695" lon="3.72103">
        <ele>219.3</ele>
        <time>2015-11-23T14:06:48.193Z</time>
      </trkpt>
      <trkpt lat="49.47695" lon="3.72116">
        <ele>219.5</ele>
        <time>2015-11-23T14:06:59.273Z</time>
      </trkpt>
      <trkpt lat="49.47695" lon="3.72117">
        <ele>219.5</ele>
        <time>2015-11-23T14:07:00.266Z</time>
      </trkpt>
      <trkpt lat="49.4769" lon="3.72127">
        <ele>217.8</ele>
        <time>2015-11-23T14:07:19.243Z</time>
      </trkpt>
      <trkpt lat="49.4769" lon="3.72128">
        <ele>217.7</ele>
        <time>2015-11-23T14:07:20.238Z</time>
      </trkpt>
      <trkpt lat="49.47685" lon="3.72139">
        <ele>217.7</ele>
        <time>2015-11-23T14:07:28.280Z</time>
      </trkpt>
      <trkpt lat="49.47685" lon="3.7214">
        <ele>217.7</ele>
        <time>2015-11-23T14:07:29.210Z</time>
      </trkpt>
      <trkpt lat="49.47684" lon="3.72142">
        <ele>217.8</ele>
        <time>2015-11-23T14:07:31.242Z</time>
      </trkpt>
      <trkpt lat="49.47684" lon="3.72142">
        <ele>217.7</ele>
        <time>2015-11-23T14:07:32.232Z</time>
      </trkpt>
      <trkpt lat="49.47684" lon="3.72142">
        <ele>217.3</ele>
        <time>2015-11-23T14:07:34.353Z</time>
      </trkpt>
      <trkpt lat="49.47685" lon="3.72142">
        <ele>217.5</ele>
        <time>2015-11-23T14:07:35.260Z</time>
      </trkpt>
      <trkpt lat="49.47679" lon="3.72152">
        <ele>217.2</ele>
        <time>2015-11-23T14:07:46.275Z</time>
      </trkpt>
      <trkpt lat="49.47679" lon="3.72153">
        <ele>217.2</ele>
        <time>2015-11-23T14:07:47.257Z</time>
      </trkpt>
      <trkpt lat="49.47678" lon="3.72156">
        <ele>217.2</ele>
        <time>2015-11-23T14:07:50.191Z</time>
      </trkpt>
      <trkpt lat="49.47678" lon="3.72156">
        <ele>217.1</ele>
        <time>2015-11-23T14:07:51.175Z</time>
      </trkpt>
      <trkpt lat="49.47678" lon="3.72156">
        <ele>217.1</ele>
        <time>2015-11-23T14:11:09.190Z</time>
      </trkpt>
      <trkpt lat="49.47676" lon="3.7217">
        <ele>216.8</ele>
        <time>2015-11-23T14:11:10.191Z</time>
      </trkpt>
      <trkpt lat="49.47672" lon="3.72179">
        <ele>216.9</ele>
        <time>2015-11-23T14:12:33.268Z</time>
      </trkpt>
      <trkpt lat="49.47671" lon="3.72179">
        <ele>216.8</ele>
        <time>2015-11-23T14:12:34.252Z</time>
      </trkpt>
      <trkpt lat="49.47671" lon="3.7218">
        <ele>216.5</ele>
        <time>2015-11-23T14:12:40.245Z</time>
      </trkpt>
      <trkpt lat="49.47671" lon="3.72181">
        <ele>216.5</ele>
        <time>2015-11-23T14:12:41.231Z</time>
      </trkpt>
      <trkpt lat="49.47671" lon="3.72185">
        <ele>216.4</ele>
        <time>2015-11-23T14:12:45.168Z</time>
      </trkpt>
      <trkpt lat="49.47671" lon="3.72185">
        <ele>216.4</ele>
        <time>2015-11-23T14:12:46.164Z</time>
      </trkpt>
      <trkpt lat="49.47671" lon="3.72186">
        <ele>216.3</ele>
        <time>2015-11-23T14:12:48.216Z</time>
      </trkpt>
      <trkpt lat="49.4767" lon="3.72186">
        <ele>216.1</ele>
        <time>2015-11-23T14:12:49.211Z</time>
      </trkpt>
      <trkpt lat="49.47678" lon="3.72188">
        <ele>216.5</ele>
        <time>2015-11-23T14:13:12.234Z</time>
      </trkpt>
      <trkpt lat="49.47679" lon="3.72189">
        <ele>216.6</ele>
        <time>2015-11-23T14:13:13.217Z</time>
      </trkpt>
      <trkpt lat="49.47686" lon="3.72197">
        <ele>218.7</ele>
        <time>2015-11-23T14:13:34.183Z</time>
      </trkpt>
      <trkpt lat="49.47687" lon="3.72198">
        <ele>218.7</ele>
        <time>2015-11-23T14:13:35.168Z</time>
      </trkpt>
      <trkpt lat="49.47693" lon="3.72206">
        <ele>220.1</ele>
        <time>2015-11-23T14:13:48.238Z</time>
      </trkpt>
      <trkpt lat="49.47694" lon="3.72207">
        <ele>220.3</ele>
        <time>2015-11-23T14:13:49.225Z</time>
      </trkpt>
      <trkpt lat="49.47696" lon="3.72211">
        <ele>220.3</ele>
        <time>2015-11-23T14:13:54.196Z</time>
      </trkpt>
      <trkpt lat="49.47696" lon="3.72212">
        <ele>220.4</ele>
        <time>2015-11-23T14:13:55.222Z</time>
      </trkpt>
      <trkpt lat="49.47696" lon="3.72213">
        <ele>220.1</ele>
        <time>2015-11-23T14:14:11.190Z</time>
      </trkpt>
      <trkpt lat="49.47696" lon="3.72219">
        <ele>219.5</ele>
        <time>2015-11-23T14:14:12.184Z</time>
      </trkpt>
      <trkpt lat="49.47702" lon="3.72229">
        <ele>218.9</ele>
        <time>2015-11-23T14:14:23.249Z</time>
      </trkpt>
      <trkpt lat="49.47702" lon="3.7223">
        <ele>218.9</ele>
        <time>2015-11-23T14:14:24.210Z</time>
      </trkpt>
      <trkpt lat="49.47708" lon="3.7224">
        <ele>218.6</ele>
        <time>2015-11-23T14:14:33.217Z</time>
      </trkpt>
      <trkpt lat="49.47709" lon="3.72241">
        <ele>218.5</ele>
        <time>2015-11-23T14:14:34.190Z</time>
      </trkpt>
      <trkpt lat="49.47714" lon="3.72251">
        <ele>219</ele>
        <time>2015-11-23T14:14:43.293Z</time>
      </trkpt>
      <trkpt lat="49.47714" lon="3.72252">
        <ele>219.1</ele>
        <time>2015-11-23T14:14:44.174Z</time>
      </trkpt>
      <trkpt lat="49.47721" lon="3.72258">
        <ele>219.1</ele>
        <time>2015-11-23T14:14:54.187Z</time>
      </trkpt>
      <trkpt lat="49.47722" lon="3.72258">
        <ele>219</ele>
        <time>2015-11-23T14:14:55.225Z</time>
      </trkpt>
      <trkpt lat="49.47728" lon="3.72268">
        <ele>218.2</ele>
        <time>2015-11-23T14:15:03.241Z</time>
      </trkpt>
      <trkpt lat="49.47728" lon="3.72269">
        <ele>218</ele>
        <time>2015-11-23T14:15:04.251Z</time>
      </trkpt>
      <trkpt lat="49.47732" lon="3.72282">
        <ele>217.1</ele>
        <time>2015-11-23T14:15:12.219Z</time>
      </trkpt>
      <trkpt lat="49.47732" lon="3.72283">
        <ele>217.1</ele>
        <time>2015-11-23T14:15:13.215Z</time>
      </trkpt>
      <trkpt lat="49.47734" lon="3.72287">
        <ele>217</ele>
        <time>2015-11-23T14:15:18.197Z</time>
      </trkpt>
      <trkpt lat="49.47734" lon="3.72287">
        <ele>217.1</ele>
        <time>2015-11-23T14:15:19.227Z</time>
      </trkpt>
      <trkpt lat="49.47734" lon="3.72288">
        <ele>217</ele>
        <time>2015-11-23T14:15:34.286Z</time>
      </trkpt>
      <trkpt lat="49.47734" lon="3.72289">
        <ele>217.2</ele>
        <time>2015-11-23T14:15:35.175Z</time>
      </trkpt>
      <trkpt lat="49.47737" lon="3.72302">
        <ele>217.8</ele>
        <time>2015-11-23T14:16:12.260Z</time>
      </trkpt>
      <trkpt lat="49.47736" lon="3.72303">
        <ele>217.8</ele>
        <time>2015-11-23T14:16:13.236Z</time>
      </trkpt>
      <trkpt lat="49.47736" lon="3.72303">
        <ele>217.8</ele>
        <time>2015-11-23T14:16:19.239Z</time>
      </trkpt>
      <trkpt lat="49.47737" lon="3.72305">
        <ele>217.4</ele>
        <time>2015-11-23T14:16:20.233Z</time>
      </trkpt>
      <trkpt lat="49.47738" lon="3.72307">
        <ele>217.2</ele>
        <time>2015-11-23T14:16:25.219Z</time>
      </trkpt>
      <trkpt lat="49.47738" lon="3.72308">
        <ele>217.2</ele>
        <time>2015-11-23T14:16:26.225Z</time>
      </trkpt>
      <trkpt lat="49.47738" lon="3.72308">
        <ele>217.2</ele>
        <time>2015-11-23T14:16:26.454Z</time>
      </trkpt>
      <trkpt lat="49.47738" lon="3.72308">
        <ele>217.2</ele>
        <time>2015-11-23T14:16:27.240Z</time>
      </trkpt>
      <trkpt lat="49.47742" lon="3.7232">
        <ele>217.4</ele>
        <time>2015-11-23T14:16:49.235Z</time>
      </trkpt>
      <trkpt lat="49.47742" lon="3.72321">
        <ele>217.5</ele>
        <time>2015-11-23T14:16:50.217Z</time>
      </trkpt>
      <trkpt lat="49.47742" lon="3.72335">
        <ele>218</ele>
        <time>2015-11-23T14:16:59.231Z</time>
      </trkpt>
      <trkpt lat="49.47742" lon="3.72336">
        <ele>217.9</ele>
        <time>2015-11-23T14:17:00.204Z</time>
      </trkpt>
      <trkpt lat="49.47743" lon="3.72349">
        <ele>217.5</ele>
        <time>2015-11-23T14:17:08.411Z</time>
      </trkpt>
      <trkpt lat="49.47744" lon="3.7235">
        <ele>217.6</ele>
        <time>2015-11-23T14:17:09.197Z</time>
      </trkpt>
      <trkpt lat="49.47745" lon="3.72363">
        <ele>217.5</ele>
        <time>2015-11-23T14:17:18.302Z</time>
      </trkpt>
      <trkpt lat="49.47745" lon="3.72365">
        <ele>217.4</ele>
        <time>2015-11-23T14:17:19.296Z</time>
      </trkpt>
      <trkpt lat="49.47745" lon="3.72378">
        <ele>217.3</ele>
        <time>2015-11-23T14:17:29.288Z</time>
      </trkpt>
      <trkpt lat="49.47745" lon="3.72379">
        <ele>217.3</ele>
        <time>2015-11-23T14:17:30.284Z</time>
      </trkpt>
      <trkpt lat="49.47746" lon="3.72392">
        <ele>217.4</ele>
        <time>2015-11-23T14:17:38.270Z</time>
      </trkpt>
      <trkpt lat="49.47747" lon="3.72394">
        <ele>217.4</ele>
        <time>2015-11-23T14:17:39.183Z</time>
      </trkpt>
      <trkpt lat="49.47748" lon="3.72406">
        <ele>218</ele>
        <time>2015-11-23T14:17:46.285Z</time>
      </trkpt>
      <trkpt lat="49.47748" lon="3.72408">
        <ele>218.1</ele>
        <time>2015-11-23T14:17:47.188Z</time>
      </trkpt>
      <trkpt lat="49.47749" lon="3.7242">
        <ele>218.4</ele>
        <time>2015-11-23T14:17:54.298Z</time>
      </trkpt>
      <trkpt lat="49.47749" lon="3.72422">
        <ele>218.6</ele>
        <time>2015-11-23T14:17:55.286Z</time>
      </trkpt>
      <trkpt lat="49.4775" lon="3.72435">
        <ele>218.7</ele>
        <time>2015-11-23T14:18:03.276Z</time>
      </trkpt>
      <trkpt lat="49.4775" lon="3.72437">
        <ele>218.8</ele>
        <time>2015-11-23T14:18:04.268Z</time>
      </trkpt>
      <trkpt lat="49.47751" lon="3.7245">
        <ele>218.7</ele>
        <time>2015-11-23T14:18:11.276Z</time>
      </trkpt>
      <trkpt lat="49.47751" lon="3.72451">
        <ele>218.7</ele>
        <time>2015-11-23T14:18:12.268Z</time>
      </trkpt>
      <trkpt lat="49.47753" lon="3.72463">
        <ele>218.7</ele>
        <time>2015-11-23T14:18:19.260Z</time>
      </trkpt>
      <trkpt lat="49.47753" lon="3.72465">
        <ele>218.8</ele>
        <time>2015-11-23T14:18:20.241Z</time>
      </trkpt>
      <trkpt lat="49.47754" lon="3.72479">
        <ele>219.2</ele>
        <time>2015-11-23T14:18:27.205Z</time>
      </trkpt>
      <trkpt lat="49.47755" lon="3.7248">
        <ele>219.2</ele>
        <time>2015-11-23T14:18:28.194Z</time>
      </trkpt>
      <trkpt lat="49.47756" lon="3.72494">
        <ele>219.2</ele>
        <time>2015-11-23T14:18:35.202Z</time>
      </trkpt>
      <trkpt lat="49.47756" lon="3.72496">
        <ele>219.3</ele>
        <time>2015-11-23T14:18:36.198Z</time>
      </trkpt>
      <trkpt lat="49.47757" lon="3.72509">
        <ele>219.2</ele>
        <time>2015-11-23T14:18:43.296Z</time>
      </trkpt>
      <trkpt lat="49.47757" lon="3.72511">
        <ele>219.2</ele>
        <time>2015-11-23T14:18:44.179Z</time>
      </trkpt>
      <trkpt lat="49.47759" lon="3.72524">
        <ele>218.9</ele>
        <time>2015-11-23T14:18:51.306Z</time>
      </trkpt>
      <trkpt lat="49.47759" lon="3.72526">
        <ele>219</ele>
        <time>2015-11-23T14:18:52.181Z</time>
      </trkpt>
      <trkpt lat="49.4776" lon="3.72539">
        <ele>219</ele>
        <time>2015-11-23T14:19:00.216Z</time>
      </trkpt>
      <trkpt lat="49.4776" lon="3.72541">
        <ele>219.1</ele>
        <time>2015-11-23T14:19:01.240Z</time>
      </trkpt>
      <trkpt lat="49.47761" lon="3.72554">
        <ele>219.4</ele>
        <time>2015-11-23T14:19:08.201Z</time>
      </trkpt>
      <trkpt lat="49.47761" lon="3.72555">
        <ele>219.4</ele>
        <time>2015-11-23T14:19:09.191Z</time>
      </trkpt>
      <trkpt lat="49.47762" lon="3.72568">
        <ele>219.8</ele>
        <time>2015-11-23T14:19:16.322Z</time>
      </trkpt>
      <trkpt lat="49.47762" lon="3.7257">
        <ele>219.9</ele>
        <time>2015-11-23T14:19:17.268Z</time>
      </trkpt>
      <trkpt lat="49.47762" lon="3.72583">
        <ele>220.8</ele>
        <time>2015-11-23T14:19:24.295Z</time>
      </trkpt>
      <trkpt lat="49.47763" lon="3.72585">
        <ele>220.8</ele>
        <time>2015-11-23T14:19:25.288Z</time>
      </trkpt>
      <trkpt lat="49.47763" lon="3.72597">
        <ele>220.9</ele>
        <time>2015-11-23T14:19:32.177Z</time>
      </trkpt>
      <trkpt lat="49.47763" lon="3.72599">
        <ele>220.8</ele>
        <time>2015-11-23T14:19:33.170Z</time>
      </trkpt>
      <trkpt lat="49.47764" lon="3.72611">
        <ele>220.9</ele>
        <time>2015-11-23T14:19:39.281Z</time>
      </trkpt>
      <trkpt lat="49.47764" lon="3.72613">
        <ele>220.9</ele>
        <time>2015-11-23T14:19:40.268Z</time>
      </trkpt>
      <trkpt lat="49.47765" lon="3.72625">
        <ele>221.6</ele>
        <time>2015-11-23T14:19:46.277Z</time>
      </trkpt>
      <trkpt lat="49.47765" lon="3.72627">
        <ele>221.6</ele>
        <time>2015-11-23T14:19:47.256Z</time>
      </trkpt>
      <trkpt lat="49.47765" lon="3.7264">
        <ele>221.9</ele>
        <time>2015-11-23T14:19:54.228Z</time>
      </trkpt>
      <trkpt lat="49.47766" lon="3.72642">
        <ele>222</ele>
        <time>2015-11-23T14:19:55.227Z</time>
      </trkpt>
      <trkpt lat="49.47767" lon="3.72655">
        <ele>222.2</ele>
        <time>2015-11-23T14:20:02.356Z</time>
      </trkpt>
      <trkpt lat="49.47767" lon="3.72656">
        <ele>222.3</ele>
        <time>2015-11-23T14:20:03.177Z</time>
      </trkpt>
      <trkpt lat="49.47768" lon="3.72669">
        <ele>221.9</ele>
        <time>2015-11-23T14:20:08.755Z</time>
      </trkpt>
      <trkpt lat="49.47769" lon="3.7267">
        <ele>222</ele>
        <time>2015-11-23T14:20:09.784Z</time>
      </trkpt>
      <trkpt lat="49.4777" lon="3.72683">
        <ele>221.9</ele>
        <time>2015-11-23T14:20:16.929Z</time>
      </trkpt>
      <trkpt lat="49.4777" lon="3.72685">
        <ele>221.9</ele>
        <time>2015-11-23T14:20:18.256Z</time>
      </trkpt>
      <trkpt lat="49.47772" lon="3.72697">
        <ele>221.8</ele>
        <time>2015-11-23T14:20:23.889Z</time>
      </trkpt>
      <trkpt lat="49.47772" lon="3.72698">
        <ele>221.8</ele>
        <time>2015-11-23T14:20:24.744Z</time>
      </trkpt>
      <trkpt lat="49.47774" lon="3.72712">
        <ele>221.6</ele>
        <time>2015-11-23T14:20:31.868Z</time>
      </trkpt>
      <trkpt lat="49.47774" lon="3.72714">
        <ele>221.5</ele>
        <time>2015-11-23T14:20:33.019Z</time>
      </trkpt>
      <trkpt lat="49.47775" lon="3.72727">
        <ele>221.5</ele>
        <time>2015-11-23T14:20:41.111Z</time>
      </trkpt>
      <trkpt lat="49.47775" lon="3.72729">
        <ele>221.6</ele>
        <time>2015-11-23T14:20:41.884Z</time>
      </trkpt>
      <trkpt lat="49.47777" lon="3.72742">
        <ele>221.7</ele>
        <time>2015-11-23T14:20:48.808Z</time>
      </trkpt>
      <trkpt lat="49.47777" lon="3.72745">
        <ele>221.7</ele>
        <time>2015-11-23T14:20:49.739Z</time>
      </trkpt>
      <trkpt lat="49.47779" lon="3.72758">
        <ele>221.6</ele>
        <time>2015-11-23T14:20:56.792Z</time>
      </trkpt>
      <trkpt lat="49.47779" lon="3.72759">
        <ele>221.5</ele>
        <time>2015-11-23T14:20:57.765Z</time>
      </trkpt>
      <trkpt lat="49.47781" lon="3.72773">
        <ele>221.7</ele>
        <time>2015-11-23T14:21:04.842Z</time>
      </trkpt>
      <trkpt lat="49.47781" lon="3.72774">
        <ele>221.6</ele>
        <time>2015-11-23T14:21:05.812Z</time>
      </trkpt>
      <trkpt lat="49.47783" lon="3.72787">
        <ele>221.7</ele>
        <time>2015-11-23T14:21:12.828Z</time>
      </trkpt>
      <trkpt lat="49.47784" lon="3.72789">
        <ele>221.8</ele>
        <time>2015-11-23T14:21:13.824Z</time>
      </trkpt>
      <trkpt lat="49.47785" lon="3.72801">
        <ele>222.2</ele>
        <time>2015-11-23T14:21:20.834Z</time>
      </trkpt>
      <trkpt lat="49.47785" lon="3.72803">
        <ele>222.3</ele>
        <time>2015-11-23T14:21:21.838Z</time>
      </trkpt>
      <trkpt lat="49.47786" lon="3.72815">
        <ele>223.4</ele>
        <time>2015-11-23T14:21:29.818Z</time>
      </trkpt>
      <trkpt lat="49.47786" lon="3.72817">
        <ele>223.4</ele>
        <time>2015-11-23T14:21:30.802Z</time>
      </trkpt>
      <trkpt lat="49.47789" lon="3.72829">
        <ele>223.3</ele>
        <time>2015-11-23T14:21:38.852Z</time>
      </trkpt>
      <trkpt lat="49.47788" lon="3.7283">
        <ele>223.3</ele>
        <time>2015-11-23T14:21:39.739Z</time>
      </trkpt>
      <trkpt lat="49.4779" lon="3.72843">
        <ele>223.3</ele>
        <time>2015-11-23T14:21:47.905Z</time>
      </trkpt>
      <trkpt lat="49.4779" lon="3.72844">
        <ele>223.3</ele>
        <time>2015-11-23T14:21:48.734Z</time>
      </trkpt>
      <trkpt lat="49.47792" lon="3.72858">
        <ele>223.4</ele>
        <time>2015-11-23T14:21:56.753Z</time>
      </trkpt>
      <trkpt lat="49.47792" lon="3.72859">
        <ele>223.3</ele>
        <time>2015-11-23T14:21:57.731Z</time>
      </trkpt>
      <trkpt lat="49.47794" lon="3.72871">
        <ele>223.4</ele>
        <time>2015-11-23T14:22:04.758Z</time>
      </trkpt>
      <trkpt lat="49.47795" lon="3.72873">
        <ele>223.4</ele>
        <time>2015-11-23T14:22:05.784Z</time>
      </trkpt>
      <trkpt lat="49.47796" lon="3.72886">
        <ele>223.5</ele>
        <time>2015-11-23T14:22:12.803Z</time>
      </trkpt>
      <trkpt lat="49.47797" lon="3.72887">
        <ele>223.5</ele>
        <time>2015-11-23T14:22:13.793Z</time>
      </trkpt>
      <trkpt lat="49.47798" lon="3.729">
        <ele>223.6</ele>
        <time>2015-11-23T14:22:20.832Z</time>
      </trkpt>
      <trkpt lat="49.47799" lon="3.72902">
        <ele>223.6</ele>
        <time>2015-11-23T14:22:21.776Z</time>
      </trkpt>
      <trkpt lat="49.478" lon="3.72915">
        <ele>223.9</ele>
        <time>2015-11-23T14:22:28.750Z</time>
      </trkpt>
      <trkpt lat="49.478" lon="3.72917">
        <ele>223.9</ele>
        <time>2015-11-23T14:22:29.789Z</time>
      </trkpt>
      <trkpt lat="49.47802" lon="3.7293">
        <ele>224.1</ele>
        <time>2015-11-23T14:22:36.809Z</time>
      </trkpt>
      <trkpt lat="49.47802" lon="3.72932">
        <ele>224.1</ele>
        <time>2015-11-23T14:22:37.796Z</time>
      </trkpt>
      <trkpt lat="49.47804" lon="3.72945">
        <ele>223.9</ele>
        <time>2015-11-23T14:22:44.848Z</time>
      </trkpt>
      <trkpt lat="49.47804" lon="3.72947">
        <ele>224</ele>
        <time>2015-11-23T14:22:45.734Z</time>
      </trkpt>
      <trkpt lat="49.47805" lon="3.72961">
        <ele>224.5</ele>
        <time>2015-11-23T14:22:52.752Z</time>
      </trkpt>
      <trkpt lat="49.47806" lon="3.72963">
        <ele>224.5</ele>
        <time>2015-11-23T14:22:53.783Z</time>
      </trkpt>
      <trkpt lat="49.47807" lon="3.72975">
        <ele>224.9</ele>
        <time>2015-11-23T14:23:00.857Z</time>
      </trkpt>
      <trkpt lat="49.47807" lon="3.72977">
        <ele>225</ele>
        <time>2015-11-23T14:23:01.734Z</time>
      </trkpt>
      <trkpt lat="49.47809" lon="3.7299">
        <ele>224.8</ele>
        <time>2015-11-23T14:23:08.751Z</time>
      </trkpt>
      <trkpt lat="49.47809" lon="3.72992">
        <ele>224.8</ele>
        <time>2015-11-23T14:23:09.733Z</time>
      </trkpt>
      <trkpt lat="49.4781" lon="3.73004">
        <ele>225.5</ele>
        <time>2015-11-23T14:23:15.828Z</time>
      </trkpt>
      <trkpt lat="49.4781" lon="3.73006">
        <ele>225.6</ele>
        <time>2015-11-23T14:23:16.817Z</time>
      </trkpt>
      <trkpt lat="49.47812" lon="3.7302">
        <ele>225.9</ele>
        <time>2015-11-23T14:23:23.807Z</time>
      </trkpt>
      <trkpt lat="49.47812" lon="3.73022">
        <ele>226</ele>
        <time>2015-11-23T14:23:24.799Z</time>
      </trkpt>
      <trkpt lat="49.47814" lon="3.73035">
        <ele>225.9</ele>
        <time>2015-11-23T14:23:31.836Z</time>
      </trkpt>
      <trkpt lat="49.47814" lon="3.73036">
        <ele>226</ele>
        <time>2015-11-23T14:23:32.822Z</time>
      </trkpt>
      <trkpt lat="49.47815" lon="3.73049">
        <ele>226.2</ele>
        <time>2015-11-23T14:23:39.760Z</time>
      </trkpt>
      <trkpt lat="49.47816" lon="3.73051">
        <ele>226.1</ele>
        <time>2015-11-23T14:23:40.740Z</time>
      </trkpt>
      <trkpt lat="49.47817" lon="3.73063">
        <ele>226</ele>
        <time>2015-11-23T14:23:47.862Z</time>
      </trkpt>
      <trkpt lat="49.47817" lon="3.73065">
        <ele>226</ele>
        <time>2015-11-23T14:23:48.730Z</time>
      </trkpt>
      <trkpt lat="49.47819" lon="3.73077">
        <ele>226</ele>
        <time>2015-11-23T14:23:55.827Z</time>
      </trkpt>
      <trkpt lat="49.47819" lon="3.73079">
        <ele>226.1</ele>
        <time>2015-11-23T14:23:56.805Z</time>
      </trkpt>
      <trkpt lat="49.47821" lon="3.73092">
        <ele>226.3</ele>
        <time>2015-11-23T14:24:04.784Z</time>
      </trkpt>
      <trkpt lat="49.47821" lon="3.73093">
        <ele>226.3</ele>
        <time>2015-11-23T14:24:05.787Z</time>
      </trkpt>
      <trkpt lat="49.47822" lon="3.73106">
        <ele>226.9</ele>
        <time>2015-11-23T14:24:12.814Z</time>
      </trkpt>
      <trkpt lat="49.47822" lon="3.73107">
        <ele>226.9</ele>
        <time>2015-11-23T14:24:13.796Z</time>
      </trkpt>
      <trkpt lat="49.47824" lon="3.7312">
        <ele>226.7</ele>
        <time>2015-11-23T14:24:21.840Z</time>
      </trkpt>
      <trkpt lat="49.47824" lon="3.73122">
        <ele>226.7</ele>
        <time>2015-11-23T14:24:22.732Z</time>
      </trkpt>
      <trkpt lat="49.47826" lon="3.73134">
        <ele>226.6</ele>
        <time>2015-11-23T14:24:29.813Z</time>
      </trkpt>
      <trkpt lat="49.47826" lon="3.73136">
        <ele>226.6</ele>
        <time>2015-11-23T14:24:30.802Z</time>
      </trkpt>
      <trkpt lat="49.47828" lon="3.73149">
        <ele>226.9</ele>
        <time>2015-11-23T14:24:38.835Z</time>
      </trkpt>
      <trkpt lat="49.47828" lon="3.73151">
        <ele>227</ele>
        <time>2015-11-23T14:24:39.818Z</time>
      </trkpt>
      <trkpt lat="49.47829" lon="3.73163">
        <ele>227.4</ele>
        <time>2015-11-23T14:24:46.803Z</time>
      </trkpt>
      <trkpt lat="49.4783" lon="3.73165">
        <ele>227.5</ele>
        <time>2015-11-23T14:24:47.782Z</time>
      </trkpt>
      <trkpt lat="49.47831" lon="3.73178">
        <ele>227.7</ele>
        <time>2015-11-23T14:24:54.817Z</time>
      </trkpt>
      <trkpt lat="49.47831" lon="3.7318">
        <ele>227.8</ele>
        <time>2015-11-23T14:24:55.794Z</time>
      </trkpt>
      <trkpt lat="49.47833" lon="3.73193">
        <ele>227.7</ele>
        <time>2015-11-23T14:25:02.765Z</time>
      </trkpt>
      <trkpt lat="49.47833" lon="3.73195">
        <ele>227.7</ele>
        <time>2015-11-23T14:25:03.758Z</time>
      </trkpt>
      <trkpt lat="49.47834" lon="3.73208">
        <ele>227.5</ele>
        <time>2015-11-23T14:25:12.749Z</time>
      </trkpt>
      <trkpt lat="49.47834" lon="3.7321">
        <ele>227.3</ele>
        <time>2015-11-23T14:25:13.737Z</time>
      </trkpt>
      <trkpt lat="49.47835" lon="3.73222">
        <ele>227.3</ele>
        <time>2015-11-23T14:25:20.832Z</time>
      </trkpt>
      <trkpt lat="49.47835" lon="3.73224">
        <ele>227.3</ele>
        <time>2015-11-23T14:25:21.817Z</time>
      </trkpt>
      <trkpt lat="49.47835" lon="3.73236">
        <ele>227.7</ele>
        <time>2015-11-23T14:25:27.756Z</time>
      </trkpt>
      <trkpt lat="49.47835" lon="3.73238">
        <ele>227.7</ele>
        <time>2015-11-23T14:25:28.742Z</time>
      </trkpt>
      <trkpt lat="49.47836" lon="3.73251">
        <ele>227.4</ele>
        <time>2015-11-23T14:25:35.793Z</time>
      </trkpt>
      <trkpt lat="49.47836" lon="3.73253">
        <ele>227.5</ele>
        <time>2015-11-23T14:25:36.790Z</time>
      </trkpt>
      <trkpt lat="49.47836" lon="3.73266">
        <ele>227.2</ele>
        <time>2015-11-23T14:25:44.825Z</time>
      </trkpt>
      <trkpt lat="49.47836" lon="3.73268">
        <ele>227.1</ele>
        <time>2015-11-23T14:25:45.805Z</time>
      </trkpt>
      <trkpt lat="49.47836" lon="3.73281">
        <ele>227</ele>
        <time>2015-11-23T14:25:52.799Z</time>
      </trkpt>
      <trkpt lat="49.47836" lon="3.73283">
        <ele>227</ele>
        <time>2015-11-23T14:25:53.791Z</time>
      </trkpt>
      <trkpt lat="49.47836" lon="3.73296">
        <ele>227.2</ele>
        <time>2015-11-23T14:26:01.773Z</time>
      </trkpt>
      <trkpt lat="49.47836" lon="3.73298">
        <ele>227.3</ele>
        <time>2015-11-23T14:26:02.747Z</time>
      </trkpt>
      <trkpt lat="49.47835" lon="3.73311">
        <ele>227.7</ele>
        <time>2015-11-23T14:26:09.748Z</time>
      </trkpt>
      <trkpt lat="49.47835" lon="3.73313">
        <ele>227.8</ele>
        <time>2015-11-23T14:26:10.740Z</time>
      </trkpt>
      <trkpt lat="49.47834" lon="3.73326">
        <ele>227.7</ele>
        <time>2015-11-23T14:26:17.808Z</time>
      </trkpt>
      <trkpt lat="49.47834" lon="3.73328">
        <ele>227.6</ele>
        <time>2015-11-23T14:26:18.789Z</time>
      </trkpt>
      <trkpt lat="49.47833" lon="3.7334">
        <ele>227.9</ele>
        <time>2015-11-23T14:26:25.760Z</time>
      </trkpt>
      <trkpt lat="49.47833" lon="3.73342">
        <ele>227.9</ele>
        <time>2015-11-23T14:26:26.749Z</time>
      </trkpt>
      <trkpt lat="49.47831" lon="3.73355">
        <ele>228</ele>
        <time>2015-11-23T14:26:33.750Z</time>
      </trkpt>
      <trkpt lat="49.4783" lon="3.73356">
        <ele>228</ele>
        <time>2015-11-23T14:26:34.744Z</time>
      </trkpt>
      <trkpt lat="49.47828" lon="3.73368">
        <ele>228.2</ele>
        <time>2015-11-23T14:26:41.791Z</time>
      </trkpt>
      <trkpt lat="49.47827" lon="3.7337">
        <ele>228.3</ele>
        <time>2015-11-23T14:26:42.792Z</time>
      </trkpt>
      <trkpt lat="49.47825" lon="3.73382">
        <ele>228.3</ele>
        <time>2015-11-23T14:26:49.827Z</time>
      </trkpt>
      <trkpt lat="49.47824" lon="3.73384">
        <ele>228.3</ele>
        <time>2015-11-23T14:26:50.811Z</time>
      </trkpt>
      <trkpt lat="49.47821" lon="3.73396">
        <ele>228.4</ele>
        <time>2015-11-23T14:26:58.775Z</time>
      </trkpt>
      <trkpt lat="49.47821" lon="3.73398">
        <ele>228.5</ele>
        <time>2015-11-23T14:26:59.784Z</time>
      </trkpt>
      <trkpt lat="49.47817" lon="3.73409">
        <ele>228.6</ele>
        <time>2015-11-23T14:27:06.812Z</time>
      </trkpt>
      <trkpt lat="49.47817" lon="3.7341">
        <ele>228.6</ele>
        <time>2015-11-23T14:27:07.803Z</time>
      </trkpt>
      <trkpt lat="49.47811" lon="3.73421">
        <ele>228.3</ele>
        <time>2015-11-23T14:27:15.832Z</time>
      </trkpt>
      <trkpt lat="49.4781" lon="3.73422">
        <ele>228.2</ele>
        <time>2015-11-23T14:27:16.733Z</time>
      </trkpt>
      <trkpt lat="49.47804" lon="3.73433">
        <ele>227.4</ele>
        <time>2015-11-23T14:27:24.815Z</time>
      </trkpt>
      <trkpt lat="49.47804" lon="3.73434">
        <ele>227.3</ele>
        <time>2015-11-23T14:27:25.794Z</time>
      </trkpt>
      <trkpt lat="49.47798" lon="3.73445">
        <ele>226.8</ele>
        <time>2015-11-23T14:27:33.777Z</time>
      </trkpt>
      <trkpt lat="49.47797" lon="3.73446">
        <ele>227</ele>
        <time>2015-11-23T14:27:34.771Z</time>
      </trkpt>
      <trkpt lat="49.47792" lon="3.73457">
        <ele>227.2</ele>
        <time>2015-11-23T14:27:42.814Z</time>
      </trkpt>
      <trkpt lat="49.47791" lon="3.73458">
        <ele>227.1</ele>
        <time>2015-11-23T14:27:43.805Z</time>
      </trkpt>
      <trkpt lat="49.47786" lon="3.73468">
        <ele>227.5</ele>
        <time>2015-11-23T14:27:51.764Z</time>
      </trkpt>
      <trkpt lat="49.47785" lon="3.7347">
        <ele>227.6</ele>
        <time>2015-11-23T14:27:52.765Z</time>
      </trkpt>
      <trkpt lat="49.47779" lon="3.73481">
        <ele>227.2</ele>
        <time>2015-11-23T14:28:00.745Z</time>
      </trkpt>
      <trkpt lat="49.47779" lon="3.73482">
        <ele>227.3</ele>
        <time>2015-11-23T14:28:01.746Z</time>
      </trkpt>
      <trkpt lat="49.47774" lon="3.73491">
        <ele>226.8</ele>
        <time>2015-11-23T14:28:08.843Z</time>
      </trkpt>
      <trkpt lat="49.47773" lon="3.73492">
        <ele>226.8</ele>
        <time>2015-11-23T14:28:09.733Z</time>
      </trkpt>
      <trkpt lat="49.47767" lon="3.73502">
        <ele>227</ele>
        <time>2015-11-23T14:28:16.763Z</time>
      </trkpt>
      <trkpt lat="49.47767" lon="3.73503">
        <ele>227</ele>
        <time>2015-11-23T14:28:17.782Z</time>
      </trkpt>
      <trkpt lat="49.47762" lon="3.73513">
        <ele>227</ele>
        <time>2015-11-23T14:28:24.748Z</time>
      </trkpt>
      <trkpt lat="49.47761" lon="3.73514">
        <ele>227</ele>
        <time>2015-11-23T14:28:25.739Z</time>
      </trkpt>
      <trkpt lat="49.47755" lon="3.73522">
        <ele>227.2</ele>
        <time>2015-11-23T14:28:32.830Z</time>
      </trkpt>
      <trkpt lat="49.47754" lon="3.73524">
        <ele>227.3</ele>
        <time>2015-11-23T14:28:33.817Z</time>
      </trkpt>
      <trkpt lat="49.47749" lon="3.73534">
        <ele>227.5</ele>
        <time>2015-11-23T14:28:40.814Z</time>
      </trkpt>
      <trkpt lat="49.47748" lon="3.73536">
        <ele>227.5</ele>
        <time>2015-11-23T14:28:41.796Z</time>
      </trkpt>
      <trkpt lat="49.47743" lon="3.73546">
        <ele>227.7</ele>
        <time>2015-11-23T14:28:50.825Z</time>
      </trkpt>
      <trkpt lat="49.47742" lon="3.73548">
        <ele>227.7</ele>
        <time>2015-11-23T14:28:51.812Z</time>
      </trkpt>
      <trkpt lat="49.47737" lon="3.73557">
        <ele>227.7</ele>
        <time>2015-11-23T14:28:58.804Z</time>
      </trkpt>
      <trkpt lat="49.47736" lon="3.73558">
        <ele>227.6</ele>
        <time>2015-11-23T14:28:59.784Z</time>
      </trkpt>
      <trkpt lat="49.4773" lon="3.73567">
        <ele>227.3</ele>
        <time>2015-11-23T14:29:07.826Z</time>
      </trkpt>
      <trkpt lat="49.47729" lon="3.73568">
        <ele>227.2</ele>
        <time>2015-11-23T14:29:08.816Z</time>
      </trkpt>
      <trkpt lat="49.47722" lon="3.73577">
        <ele>227.1</ele>
        <time>2015-11-23T14:29:15.840Z</time>
      </trkpt>
      <trkpt lat="49.47722" lon="3.73578">
        <ele>227</ele>
        <time>2015-11-23T14:29:16.730Z</time>
      </trkpt>
      <trkpt lat="49.47715" lon="3.73587">
        <ele>226.4</ele>
        <time>2015-11-23T14:29:23.839Z</time>
      </trkpt>
      <trkpt lat="49.47714" lon="3.73589">
        <ele>226.4</ele>
        <time>2015-11-23T14:29:24.734Z</time>
      </trkpt>
      <trkpt lat="49.47709" lon="3.73598">
        <ele>226.8</ele>
        <time>2015-11-23T14:29:30.815Z</time>
      </trkpt>
      <trkpt lat="49.47708" lon="3.736">
        <ele>226.9</ele>
        <time>2015-11-23T14:29:31.807Z</time>
      </trkpt>
      <trkpt lat="49.47702" lon="3.7361">
        <ele>226.6</ele>
        <time>2015-11-23T14:29:39.048Z</time>
      </trkpt>
      <trkpt lat="49.47702" lon="3.73611">
        <ele>226.2</ele>
        <time>2015-11-23T14:29:39.819Z</time>
      </trkpt>
      <trkpt lat="49.47696" lon="3.73619">
        <ele>226.5</ele>
        <time>2015-11-23T14:29:46.767Z</time>
      </trkpt>
      <trkpt lat="49.47695" lon="3.7362">
        <ele>226.5</ele>
        <time>2015-11-23T14:29:47.785Z</time>
      </trkpt>
      <trkpt lat="49.4769" lon="3.7363">
        <ele>226.6</ele>
        <time>2015-11-23T14:29:54.820Z</time>
      </trkpt>
      <trkpt lat="49.47689" lon="3.73631">
        <ele>226.6</ele>
        <time>2015-11-23T14:29:55.834Z</time>
      </trkpt>
      <trkpt lat="49.47683" lon="3.7364">
        <ele>226.3</ele>
        <time>2015-11-23T14:30:02.747Z</time>
      </trkpt>
      <trkpt lat="49.47682" lon="3.73641">
        <ele>226.3</ele>
        <time>2015-11-23T14:30:03.747Z</time>
      </trkpt>
      <trkpt lat="49.47676" lon="3.7365">
        <ele>226.5</ele>
        <time>2015-11-23T14:30:10.750Z</time>
      </trkpt>
      <trkpt lat="49.47675" lon="3.73651">
        <ele>226.4</ele>
        <time>2015-11-23T14:30:11.781Z</time>
      </trkpt>
      <trkpt lat="49.47669" lon="3.73659">
        <ele>226.4</ele>
        <time>2015-11-23T14:30:18.822Z</time>
      </trkpt>
      <trkpt lat="49.47668" lon="3.7366">
        <ele>226.4</ele>
        <time>2015-11-23T14:30:19.815Z</time>
      </trkpt>
      <trkpt lat="49.47661" lon="3.73669">
        <ele>226.6</ele>
        <time>2015-11-23T14:30:27.831Z</time>
      </trkpt>
      <trkpt lat="49.4766" lon="3.7367">
        <ele>226.5</ele>
        <time>2015-11-23T14:30:28.818Z</time>
      </trkpt>
      <trkpt lat="49.47654" lon="3.7368">
        <ele>226.3</ele>
        <time>2015-11-23T14:30:35.799Z</time>
      </trkpt>
      <trkpt lat="49.47653" lon="3.73681">
        <ele>226.1</ele>
        <time>2015-11-23T14:30:36.792Z</time>
      </trkpt>
      <trkpt lat="49.47647" lon="3.7369">
        <ele>226</ele>
        <time>2015-11-23T14:30:43.840Z</time>
      </trkpt>
      <trkpt lat="49.47646" lon="3.73691">
        <ele>226</ele>
        <time>2015-11-23T14:30:44.815Z</time>
      </trkpt>
      <trkpt lat="49.4764" lon="3.737">
        <ele>226.2</ele>
        <time>2015-11-23T14:30:51.743Z</time>
      </trkpt>
      <trkpt lat="49.47639" lon="3.73701">
        <ele>226.3</ele>
        <time>2015-11-23T14:30:52.719Z</time>
      </trkpt>
      <trkpt lat="49.47634" lon="3.73711">
        <ele>226.3</ele>
        <time>2015-11-23T14:30:59.846Z</time>
      </trkpt>
      <trkpt lat="49.47633" lon="3.73712">
        <ele>226.4</ele>
        <time>2015-11-23T14:31:00.725Z</time>
      </trkpt>
      <trkpt lat="49.47627" lon="3.73722">
        <ele>226.3</ele>
        <time>2015-11-23T14:31:07.836Z</time>
      </trkpt>
      <trkpt lat="49.47626" lon="3.73723">
        <ele>226.2</ele>
        <time>2015-11-23T14:31:08.746Z</time>
      </trkpt>
      <trkpt lat="49.4762" lon="3.73733">
        <ele>226</ele>
        <time>2015-11-23T14:31:17.801Z</time>
      </trkpt>
      <trkpt lat="49.47619" lon="3.73735">
        <ele>225.8</ele>
        <time>2015-11-23T14:31:18.787Z</time>
      </trkpt>
      <trkpt lat="49.47614" lon="3.73744">
        <ele>225</ele>
        <time>2015-11-23T14:31:25.739Z</time>
      </trkpt>
      <trkpt lat="49.47613" lon="3.73745">
        <ele>224.9</ele>
        <time>2015-11-23T14:31:26.737Z</time>
      </trkpt>
      <trkpt lat="49.47607" lon="3.73754">
        <ele>224.8</ele>
        <time>2015-11-23T14:31:33.754Z</time>
      </trkpt>
      <trkpt lat="49.47607" lon="3.73755">
        <ele>224.8</ele>
        <time>2015-11-23T14:31:34.738Z</time>
      </trkpt>
      <trkpt lat="49.476" lon="3.73763">
        <ele>224</ele>
        <time>2015-11-23T14:31:42.749Z</time>
      </trkpt>
      <trkpt lat="49.476" lon="3.73765">
        <ele>224</ele>
        <time>2015-11-23T14:31:43.724Z</time>
      </trkpt>
      <trkpt lat="49.47593" lon="3.73774">
        <ele>223.9</ele>
        <time>2015-11-23T14:31:52.831Z</time>
      </trkpt>
      <trkpt lat="49.47592" lon="3.73775">
        <ele>224.1</ele>
        <time>2015-11-23T14:31:53.825Z</time>
      </trkpt>
      <trkpt lat="49.47586" lon="3.73784">
        <ele>224.2</ele>
        <time>2015-11-23T14:32:05.782Z</time>
      </trkpt>
      <trkpt lat="49.47586" lon="3.73784">
        <ele>224.1</ele>
        <time>2015-11-23T14:32:06.777Z</time>
      </trkpt>
      <trkpt lat="49.47581" lon="3.73794">
        <ele>223.6</ele>
        <time>2015-11-23T14:32:16.838Z</time>
      </trkpt>
      <trkpt lat="49.4758" lon="3.73795">
        <ele>223.6</ele>
        <time>2015-11-23T14:32:17.862Z</time>
      </trkpt>
      <trkpt lat="49.47574" lon="3.73803">
        <ele>223.8</ele>
        <time>2015-11-23T14:32:25.817Z</time>
      </trkpt>
      <trkpt lat="49.47573" lon="3.73804">
        <ele>223.7</ele>
        <time>2015-11-23T14:32:26.794Z</time>
      </trkpt>
      <trkpt lat="49.47569" lon="3.73816">
        <ele>223</ele>
        <time>2015-11-23T14:32:37.731Z</time>
      </trkpt>
      <trkpt lat="49.47569" lon="3.73816">
        <ele>222.8</ele>
        <time>2015-11-23T14:32:38.731Z</time>
      </trkpt>
      <trkpt lat="49.47562" lon="3.73825">
        <ele>223.1</ele>
        <time>2015-11-23T14:32:43.806Z</time>
      </trkpt>
      <trkpt lat="49.47561" lon="3.73827">
        <ele>223.2</ele>
        <time>2015-11-23T14:32:44.798Z</time>
      </trkpt>
      <trkpt lat="49.47556" lon="3.73837">
        <ele>223</ele>
        <time>2015-11-23T14:32:50.759Z</time>
      </trkpt>
      <trkpt lat="49.47555" lon="3.73838">
        <ele>223.1</ele>
        <time>2015-11-23T14:32:51.739Z</time>
      </trkpt>
      <trkpt lat="49.47551" lon="3.73849">
        <ele>222.8</ele>
        <time>2015-11-23T14:33:00.074Z</time>
      </trkpt>
      <trkpt lat="49.4755" lon="3.7385">
        <ele>222.8</ele>
        <time>2015-11-23T14:33:00.724Z</time>
      </trkpt>
      <trkpt lat="49.47545" lon="3.73862">
        <ele>222.5</ele>
        <time>2015-11-23T14:33:08.747Z</time>
      </trkpt>
      <trkpt lat="49.47545" lon="3.73864">
        <ele>222.7</ele>
        <time>2015-11-23T14:33:09.733Z</time>
      </trkpt>
      <trkpt lat="49.47542" lon="3.73875">
        <ele>222.7</ele>
        <time>2015-11-23T14:33:15.822Z</time>
      </trkpt>
      <trkpt lat="49.47541" lon="3.73877">
        <ele>222.4</ele>
        <time>2015-11-23T14:33:16.808Z</time>
      </trkpt>
      <trkpt lat="49.47538" lon="3.73889">
        <ele>221.9</ele>
        <time>2015-11-23T14:33:23.805Z</time>
      </trkpt>
      <trkpt lat="49.47538" lon="3.73891">
        <ele>221.9</ele>
        <time>2015-11-23T14:33:24.781Z</time>
      </trkpt>
      <trkpt lat="49.47535" lon="3.73903">
        <ele>222</ele>
        <time>2015-11-23T14:33:30.762Z</time>
      </trkpt>
      <trkpt lat="49.47535" lon="3.73905">
        <ele>222.1</ele>
        <time>2015-11-23T14:33:31.738Z</time>
      </trkpt>
      <trkpt lat="49.47532" lon="3.73917">
        <ele>223</ele>
        <time>2015-11-23T14:33:38.751Z</time>
      </trkpt>
      <trkpt lat="49.47531" lon="3.73919">
        <ele>222.9</ele>
        <time>2015-11-23T14:33:39.740Z</time>
      </trkpt>
      <trkpt lat="49.47528" lon="3.73931">
        <ele>223.3</ele>
        <time>2015-11-23T14:33:45.741Z</time>
      </trkpt>
      <trkpt lat="49.47528" lon="3.73933">
        <ele>223.2</ele>
        <time>2015-11-23T14:33:46.720Z</time>
      </trkpt>
      <trkpt lat="49.47526" lon="3.73946">
        <ele>222.8</ele>
        <time>2015-11-23T14:33:55.745Z</time>
      </trkpt>
      <trkpt lat="49.47526" lon="3.73948">
        <ele>222.7</ele>
        <time>2015-11-23T14:33:56.732Z</time>
      </trkpt>
      <trkpt lat="49.47524" lon="3.73959">
        <ele>222.3</ele>
        <time>2015-11-23T14:34:02.824Z</time>
      </trkpt>
      <trkpt lat="49.47524" lon="3.73961">
        <ele>222.4</ele>
        <time>2015-11-23T14:34:03.809Z</time>
      </trkpt>
      <trkpt lat="49.47523" lon="3.73974">
        <ele>222.6</ele>
        <time>2015-11-23T14:34:10.791Z</time>
      </trkpt>
      <trkpt lat="49.47523" lon="3.73976">
        <ele>222.7</ele>
        <time>2015-11-23T14:34:11.792Z</time>
      </trkpt>
      <trkpt lat="49.47522" lon="3.73988">
        <ele>223.4</ele>
        <time>2015-11-23T14:34:18.791Z</time>
      </trkpt>
      <trkpt lat="49.47522" lon="3.7399">
        <ele>223.6</ele>
        <time>2015-11-23T14:34:19.787Z</time>
      </trkpt>
      <trkpt lat="49.47522" lon="3.74002">
        <ele>224.2</ele>
        <time>2015-11-23T14:34:26.809Z</time>
      </trkpt>
      <trkpt lat="49.47522" lon="3.74004">
        <ele>224.4</ele>
        <time>2015-11-23T14:34:27.795Z</time>
      </trkpt>
      <trkpt lat="49.47519" lon="3.74016">
        <ele>224.5</ele>
        <time>2015-11-23T14:34:35.789Z</time>
      </trkpt>
      <trkpt lat="49.47519" lon="3.74017">
        <ele>224.5</ele>
        <time>2015-11-23T14:34:36.786Z</time>
      </trkpt>
      <trkpt lat="49.47518" lon="3.7403">
        <ele>223.6</ele>
        <time>2015-11-23T14:34:44.827Z</time>
      </trkpt>
      <trkpt lat="49.47519" lon="3.74031">
        <ele>223.6</ele>
        <time>2015-11-23T14:34:45.811Z</time>
      </trkpt>
      <trkpt lat="49.47518" lon="3.74044">
        <ele>223.4</ele>
        <time>2015-11-23T14:34:52.790Z</time>
      </trkpt>
      <trkpt lat="49.47518" lon="3.74045">
        <ele>223.4</ele>
        <time>2015-11-23T14:34:53.767Z</time>
      </trkpt>
      <trkpt lat="49.47518" lon="3.74058">
        <ele>223.4</ele>
        <time>2015-11-23T14:35:01.812Z</time>
      </trkpt>
      <trkpt lat="49.47518" lon="3.7406">
        <ele>223.3</ele>
        <time>2015-11-23T14:35:02.808Z</time>
      </trkpt>
      <trkpt lat="49.47516" lon="3.74072">
        <ele>223</ele>
        <time>2015-11-23T14:35:10.754Z</time>
      </trkpt>
      <trkpt lat="49.47517" lon="3.74074">
        <ele>223</ele>
        <time>2015-11-23T14:35:11.824Z</time>
      </trkpt>
      <trkpt lat="49.47518" lon="3.74087">
        <ele>222.7</ele>
        <time>2015-11-23T14:35:19.800Z</time>
      </trkpt>
      <trkpt lat="49.47519" lon="3.74088">
        <ele>222.7</ele>
        <time>2015-11-23T14:35:20.786Z</time>
      </trkpt>
      <trkpt lat="49.4752" lon="3.74101">
        <ele>222.5</ele>
        <time>2015-11-23T14:35:28.783Z</time>
      </trkpt>
      <trkpt lat="49.47519" lon="3.74103">
        <ele>222.5</ele>
        <time>2015-11-23T14:35:29.769Z</time>
      </trkpt>
      <trkpt lat="49.47519" lon="3.74114">
        <ele>222.2</ele>
        <time>2015-11-23T14:35:40.749Z</time>
      </trkpt>
      <trkpt lat="49.47518" lon="3.74117">
        <ele>222.1</ele>
        <time>2015-11-23T14:35:41.835Z</time>
      </trkpt>
      <trkpt lat="49.47516" lon="3.7413">
        <ele>221.9</ele>
        <time>2015-11-23T14:35:49.817Z</time>
      </trkpt>
      <trkpt lat="49.47516" lon="3.74132">
        <ele>221.9</ele>
        <time>2015-11-23T14:35:50.810Z</time>
      </trkpt>
      <trkpt lat="49.47515" lon="3.74145">
        <ele>222.4</ele>
        <time>2015-11-23T14:35:58.741Z</time>
      </trkpt>
      <trkpt lat="49.47515" lon="3.74147">
        <ele>222.5</ele>
        <time>2015-11-23T14:35:59.832Z</time>
      </trkpt>
      <trkpt lat="49.47513" lon="3.7416">
        <ele>222.3</ele>
        <time>2015-11-23T14:36:06.800Z</time>
      </trkpt>
      <trkpt lat="49.47512" lon="3.74162">
        <ele>222.3</ele>
        <time>2015-11-23T14:36:07.791Z</time>
      </trkpt>
      <trkpt lat="49.47511" lon="3.74175">
        <ele>222.9</ele>
        <time>2015-11-23T14:36:14.774Z</time>
      </trkpt>
      <trkpt lat="49.47511" lon="3.74177">
        <ele>223</ele>
        <time>2015-11-23T14:36:15.760Z</time>
      </trkpt>
      <trkpt lat="49.4751" lon="3.74191">
        <ele>222.5</ele>
        <time>2015-11-23T14:36:23.799Z</time>
      </trkpt>
      <trkpt lat="49.4751" lon="3.74192">
        <ele>222.7</ele>
        <time>2015-11-23T14:36:24.772Z</time>
      </trkpt>
      <trkpt lat="49.47505" lon="3.74204">
        <ele>220.1</ele>
        <time>2015-11-23T14:36:31.743Z</time>
      </trkpt>
      <trkpt lat="49.47505" lon="3.74206">
        <ele>220.2</ele>
        <time>2015-11-23T14:36:32.738Z</time>
      </trkpt>
      <trkpt lat="49.47504" lon="3.74218">
        <ele>220.4</ele>
        <time>2015-11-23T14:36:39.765Z</time>
      </trkpt>
      <trkpt lat="49.47504" lon="3.7422">
        <ele>220.4</ele>
        <time>2015-11-23T14:36:40.739Z</time>
      </trkpt>
      <trkpt lat="49.47502" lon="3.74233">
        <ele>220.2</ele>
        <time>2015-11-23T14:36:49.748Z</time>
      </trkpt>
      <trkpt lat="49.47502" lon="3.74235">
        <ele>219.8</ele>
        <time>2015-11-23T14:36:50.724Z</time>
      </trkpt>
      <trkpt lat="49.475" lon="3.74248">
        <ele>219.9</ele>
        <time>2015-11-23T14:37:00.796Z</time>
      </trkpt>
      <trkpt lat="49.47499" lon="3.74249">
        <ele>220</ele>
        <time>2015-11-23T14:37:01.780Z</time>
      </trkpt>
      <trkpt lat="49.475" lon="3.74262">
        <ele>219.5</ele>
        <time>2015-11-23T14:37:12.807Z</time>
      </trkpt>
      <trkpt lat="49.475" lon="3.74263">
        <ele>219.6</ele>
        <time>2015-11-23T14:37:13.781Z</time>
      </trkpt>
      <trkpt lat="49.475" lon="3.74263">
        <ele>219.6</ele>
        <time>2015-11-23T14:37:13.810Z</time>
      </trkpt>
      <trkpt lat="49.475" lon="3.74264">
        <ele>219.7</ele>
        <time>2015-11-23T14:37:14.717Z</time>
      </trkpt>
      <trkpt lat="49.475" lon="3.74265">
        <ele>219.9</ele>
        <time>2015-11-23T14:37:15.873Z</time>
      </trkpt>
      <trkpt lat="49.475" lon="3.74266">
        <ele>220</ele>
        <time>2015-11-23T14:37:16.794Z</time>
      </trkpt>
      <trkpt lat="49.475" lon="3.74266">
        <ele>219.9</ele>
        <time>2015-11-23T14:37:17.833Z</time>
      </trkpt>
      <trkpt lat="49.47501" lon="3.74266">
        <ele>220</ele>
        <time>2015-11-23T14:37:18.814Z</time>
      </trkpt>
      <trkpt lat="49.47501" lon="3.74266">
        <ele>220</ele>
        <time>2015-11-23T14:37:19.745Z</time>
      </trkpt>
      <trkpt lat="49.47501" lon="3.74266">
        <ele>220.1</ele>
        <time>2015-11-23T14:37:20.732Z</time>
      </trkpt>
      <trkpt lat="49.47501" lon="3.74266">
        <ele>220.1</ele>
        <time>2015-11-23T14:37:25.803Z</time>
      </trkpt>
      <trkpt lat="49.47501" lon="3.74269">
        <ele>220.7</ele>
        <time>2015-11-23T14:37:26.804Z</time>
      </trkpt>
      <trkpt lat="49.47504" lon="3.74282">
        <ele>221.2</ele>
        <time>2015-11-23T14:37:35.831Z</time>
      </trkpt>
      <trkpt lat="49.47503" lon="3.74283">
        <ele>221.1</ele>
        <time>2015-11-23T14:37:36.797Z</time>
      </trkpt>
      <trkpt lat="49.47504" lon="3.74295">
        <ele>222.5</ele>
        <time>2015-11-23T14:37:49.739Z</time>
      </trkpt>
      <trkpt lat="49.47504" lon="3.74295">
        <ele>222.6</ele>
        <time>2015-11-23T14:37:50.724Z</time>
      </trkpt>
      <trkpt lat="49.47503" lon="3.74295">
        <ele>222.7</ele>
        <time>2015-11-23T14:38:29.794Z</time>
      </trkpt>
      <trkpt lat="49.47506" lon="3.7429">
        <ele>222.3</ele>
        <time>2015-11-23T14:38:30.801Z</time>
      </trkpt>
      <trkpt lat="49.47503" lon="3.74284">
        <ele>222.2</ele>
        <time>2015-11-23T14:38:36.774Z</time>
      </trkpt>
      <trkpt lat="49.47503" lon="3.74283">
        <ele>222.1</ele>
        <time>2015-11-23T14:38:37.765Z</time>
      </trkpt>
      <trkpt lat="49.47502" lon="3.74282">
        <ele>222</ele>
        <time>2015-11-23T14:38:40.733Z</time>
      </trkpt>
      <trkpt lat="49.47502" lon="3.7428">
        <ele>222</ele>
        <time>2015-11-23T14:38:41.814Z</time>
      </trkpt>
      <trkpt lat="49.47502" lon="3.7428">
        <ele>222</ele>
        <time>2015-11-23T14:38:41.835Z</time>
      </trkpt>
      <trkpt lat="49.47501" lon="3.7428">
        <ele>221.9</ele>
        <time>2015-11-23T14:38:42.715Z</time>
      </trkpt>
      <trkpt lat="49.47501" lon="3.74279">
        <ele>221.8</ele>
        <time>2015-11-23T14:38:45.765Z</time>
      </trkpt>
      <trkpt lat="49.475" lon="3.74277">
        <ele>221.7</ele>
        <time>2015-11-23T14:38:46.764Z</time>
      </trkpt>
      <trkpt lat="49.47501" lon="3.74271">
        <ele>221.5</ele>
        <time>2015-11-23T14:38:50.734Z</time>
      </trkpt>
      <trkpt lat="49.47501" lon="3.7427">
        <ele>221.7</ele>
        <time>2015-11-23T14:38:51.709Z</time>
      </trkpt>
      <trkpt lat="49.47501" lon="3.74269">
        <ele>222.1</ele>
        <time>2015-11-23T14:38:52.738Z</time>
      </trkpt>
      <trkpt lat="49.475" lon="3.74267">
        <ele>222.4</ele>
        <time>2015-11-23T14:38:53.744Z</time>
      </trkpt>
      <trkpt lat="49.47498" lon="3.74266">
        <ele>222.6</ele>
        <time>2015-11-23T14:38:56.796Z</time>
      </trkpt>
      <trkpt lat="49.47497" lon="3.74265">
        <ele>222.5</ele>
        <time>2015-11-23T14:38:57.791Z</time>
      </trkpt>
      <trkpt lat="49.47497" lon="3.74265">
        <ele>222.5</ele>
        <time>2015-11-23T14:38:57.814Z</time>
      </trkpt>
      <trkpt lat="49.47497" lon="3.74265">
        <ele>222.6</ele>
        <time>2015-11-23T14:38:58.792Z</time>
      </trkpt>
      <trkpt lat="49.47496" lon="3.74265">
        <ele>222.5</ele>
        <time>2015-11-23T14:38:59.848Z</time>
      </trkpt>
      <trkpt lat="49.47496" lon="3.74265">
        <ele>222.4</ele>
        <time>2015-11-23T14:39:00.711Z</time>
      </trkpt>
      <trkpt lat="49.47496" lon="3.74265">
        <ele>222.4</ele>
        <time>2015-11-23T14:39:00.737Z</time>
      </trkpt>
      <trkpt lat="49.47496" lon="3.74265">
        <ele>222.3</ele>
        <time>2015-11-23T14:39:01.713Z</time>
      </trkpt>
      <trkpt lat="49.47493" lon="3.74267">
        <ele>221.6</ele>
        <time>2015-11-23T14:39:05.773Z</time>
      </trkpt>
      <trkpt lat="49.47493" lon="3.74267">
        <ele>221.5</ele>
        <time>2015-11-23T14:39:06.763Z</time>
      </trkpt>
      <trkpt lat="49.47493" lon="3.74266">
        <ele>221.3</ele>
        <time>2015-11-23T14:39:36.735Z</time>
      </trkpt>
      <trkpt lat="49.47488" lon="3.74257">
        <ele>222.3</ele>
        <time>2015-11-23T14:39:37.714Z</time>
      </trkpt>
      <trkpt lat="49.47491" lon="3.74253">
        <ele>221.2</ele>
        <time>2015-11-23T14:39:44.801Z</time>
      </trkpt>
      <trkpt lat="49.47491" lon="3.74253">
        <ele>221.2</ele>
        <time>2015-11-23T14:39:45.803Z</time>
      </trkpt>
      <trkpt lat="49.47491" lon="3.74253">
        <ele>221.2</ele>
        <time>2015-11-23T14:39:45.841Z</time>
      </trkpt>
      <trkpt lat="49.47491" lon="3.74253">
        <ele>221.1</ele>
        <time>2015-11-23T14:39:46.715Z</time>
      </trkpt>
      <trkpt lat="49.47495" lon="3.74264">
        <ele>220</ele>
        <time>2015-11-23T14:39:54.805Z</time>
      </trkpt>
      <trkpt lat="49.47495" lon="3.74266">
        <ele>219.8</ele>
        <time>2015-11-23T14:39:55.794Z</time>
      </trkpt>
      <trkpt lat="49.47499" lon="3.74278">
        <ele>219.1</ele>
        <time>2015-11-23T14:40:02.760Z</time>
      </trkpt>
      <trkpt lat="49.47499" lon="3.74279">
        <ele>219.1</ele>
        <time>2015-11-23T14:40:03.748Z</time>
      </trkpt>
      <trkpt lat="49.47503" lon="3.74289">
        <ele>217.5</ele>
        <time>2015-11-23T14:40:12.743Z</time>
      </trkpt>
      <trkpt lat="49.47503" lon="3.74289">
        <ele>217.6</ele>
        <time>2015-11-23T14:40:13.728Z</time>
      </trkpt>
      <trkpt lat="49.47502" lon="3.74289">
        <ele>217.7</ele>
        <time>2015-11-23T14:41:50.750Z</time>
      </trkpt>
      <trkpt lat="49.47503" lon="3.74294">
        <ele>221</ele>
        <time>2015-11-23T14:41:51.748Z</time>
      </trkpt>
      <trkpt lat="49.47504" lon="3.74294">
        <ele>221</ele>
        <time>2015-11-23T14:41:53.793Z</time>
      </trkpt>
      <trkpt lat="49.47504" lon="3.74294">
        <ele>220.9</ele>
        <time>2015-11-23T14:41:54.786Z</time>
      </trkpt>
      <trkpt lat="49.47504" lon="3.74294">
        <ele>220.9</ele>
        <time>2015-11-23T14:41:54.803Z</time>
      </trkpt>
      <trkpt lat="49.47504" lon="3.74295">
        <ele>220.9</ele>
        <time>2015-11-23T14:41:55.700Z</time>
      </trkpt>
      <trkpt lat="49.47505" lon="3.74294">
        <ele>221.1</ele>
        <time>2015-11-23T14:42:36.789Z</time>
      </trkpt>
      <trkpt lat="49.47505" lon="3.74294">
        <ele>221.2</ele>
        <time>2015-11-23T14:42:37.779Z</time>
      </trkpt>
      <trkpt lat="49.47505" lon="3.74294">
        <ele>221.3</ele>
        <time>2015-11-23T14:42:50.800Z</time>
      </trkpt>
      <trkpt lat="49.47506" lon="3.74296">
        <ele>221.5</ele>
        <time>2015-11-23T14:42:51.703Z</time>
      </trkpt>
      <trkpt lat="49.47506" lon="3.74296">
        <ele>221.6</ele>
        <time>2015-11-23T14:42:52.728Z</time>
      </trkpt>
      <trkpt lat="49.47506" lon="3.74296">
        <ele>221.7</ele>
        <time>2015-11-23T14:42:53.741Z</time>
      </trkpt>
      <trkpt lat="49.47506" lon="3.74296">
        <ele>221.7</ele>
        <time>2015-11-23T14:42:53.757Z</time>
      </trkpt>
      <trkpt lat="49.47507" lon="3.74296">
        <ele>221.7</ele>
        <time>2015-11-23T14:42:54.756Z</time>
      </trkpt>
      <trkpt lat="49.47507" lon="3.74296">
        <ele>221.7</ele>
        <time>2015-11-23T14:42:55.803Z</time>
      </trkpt>
      <trkpt lat="49.47507" lon="3.74296">
        <ele>221.8</ele>
        <time>2015-11-23T14:42:56.794Z</time>
      </trkpt>
      <trkpt lat="49.47507" lon="3.74296">
        <ele>221.9</ele>
        <time>2015-11-23T14:44:36.801Z</time>
      </trkpt>
      <trkpt lat="49.47508" lon="3.74297">
        <ele>224.2</ele>
        <time>2015-11-23T14:44:37.781Z</time>
      </trkpt>
      <trkpt lat="49.47508" lon="3.74311">
        <ele>223.4</ele>
        <time>2015-11-23T14:46:24.783Z</time>
      </trkpt>
      <trkpt lat="49.47509" lon="3.74312">
        <ele>223.4</ele>
        <time>2015-11-23T14:46:25.778Z</time>
      </trkpt>
      <trkpt lat="49.47513" lon="3.74324">
        <ele>224</ele>
        <time>2015-11-23T14:46:38.739Z</time>
      </trkpt>
      <trkpt lat="49.47514" lon="3.74325">
        <ele>224</ele>
        <time>2015-11-23T14:46:39.724Z</time>
      </trkpt>
      <trkpt lat="49.47517" lon="3.74336">
        <ele>224.1</ele>
        <time>2015-11-23T14:46:49.807Z</time>
      </trkpt>
      <trkpt lat="49.47518" lon="3.74337">
        <ele>224.1</ele>
        <time>2015-11-23T14:46:50.795Z</time>
      </trkpt>
      <trkpt lat="49.47522" lon="3.74349">
        <ele>224.3</ele>
        <time>2015-11-23T14:47:01.791Z</time>
      </trkpt>
      <trkpt lat="49.47522" lon="3.74351">
        <ele>224.2</ele>
        <time>2015-11-23T14:47:02.794Z</time>
      </trkpt>
      <trkpt lat="49.47525" lon="3.74363">
        <ele>223.9</ele>
        <time>2015-11-23T14:47:12.769Z</time>
      </trkpt>
      <trkpt lat="49.47526" lon="3.74365">
        <ele>223.9</ele>
        <time>2015-11-23T14:47:13.740Z</time>
      </trkpt>
      <trkpt lat="49.47531" lon="3.74375">
        <ele>224.1</ele>
        <time>2015-11-23T14:47:20.778Z</time>
      </trkpt>
      <trkpt lat="49.47531" lon="3.74376">
        <ele>224</ele>
        <time>2015-11-23T14:47:21.763Z</time>
      </trkpt>
      <trkpt lat="49.47535" lon="3.74387">
        <ele>223.7</ele>
        <time>2015-11-23T14:47:29.800Z</time>
      </trkpt>
      <trkpt lat="49.47536" lon="3.74388">
        <ele>223.7</ele>
        <time>2015-11-23T14:47:30.806Z</time>
      </trkpt>
      <trkpt lat="49.4754" lon="3.744">
        <ele>224</ele>
        <time>2015-11-23T14:47:39.841Z</time>
      </trkpt>
      <trkpt lat="49.4754" lon="3.74401">
        <ele>223.9</ele>
        <time>2015-11-23T14:47:40.736Z</time>
      </trkpt>
      <trkpt lat="49.47544" lon="3.74413">
        <ele>224.2</ele>
        <time>2015-11-23T14:47:49.823Z</time>
      </trkpt>
      <trkpt lat="49.47545" lon="3.74415">
        <ele>224.2</ele>
        <time>2015-11-23T14:47:50.812Z</time>
      </trkpt>
      <trkpt lat="49.47548" lon="3.74427">
        <ele>224.3</ele>
        <time>2015-11-23T14:47:59.880Z</time>
      </trkpt>
      <trkpt lat="49.47548" lon="3.74428">
        <ele>224.4</ele>
        <time>2015-11-23T14:48:00.739Z</time>
      </trkpt>
      <trkpt lat="49.47551" lon="3.74439">
        <ele>225.4</ele>
        <time>2015-11-23T14:48:08.759Z</time>
      </trkpt>
      <trkpt lat="49.47552" lon="3.74441">
        <ele>225.4</ele>
        <time>2015-11-23T14:48:09.763Z</time>
      </trkpt>
      <trkpt lat="49.47552" lon="3.74454">
        <ele>226</ele>
        <time>2015-11-23T14:48:17.794Z</time>
      </trkpt>
      <trkpt lat="49.47553" lon="3.74456">
        <ele>225.8</ele>
        <time>2015-11-23T14:48:18.774Z</time>
      </trkpt>
      <trkpt lat="49.47556" lon="3.74467">
        <ele>225.5</ele>
        <time>2015-11-23T14:48:25.831Z</time>
      </trkpt>
      <trkpt lat="49.47556" lon="3.74469">
        <ele>225.5</ele>
        <time>2015-11-23T14:48:26.811Z</time>
      </trkpt>
      <trkpt lat="49.4756" lon="3.74479">
        <ele>225.4</ele>
        <time>2015-11-23T14:48:33.834Z</time>
      </trkpt>
      <trkpt lat="49.4756" lon="3.74481">
        <ele>225.3</ele>
        <time>2015-11-23T14:48:34.842Z</time>
      </trkpt>
      <trkpt lat="49.47564" lon="3.74493">
        <ele>225.2</ele>
        <time>2015-11-23T14:48:42.755Z</time>
      </trkpt>
      <trkpt lat="49.47565" lon="3.74494">
        <ele>225.3</ele>
        <time>2015-11-23T14:48:43.748Z</time>
      </trkpt>
      <trkpt lat="49.47568" lon="3.74505">
        <ele>225.5</ele>
        <time>2015-11-23T14:48:51.783Z</time>
      </trkpt>
      <trkpt lat="49.47568" lon="3.74507">
        <ele>225.5</ele>
        <time>2015-11-23T14:48:52.760Z</time>
      </trkpt>
      <trkpt lat="49.47572" lon="3.74518">
        <ele>225.9</ele>
        <time>2015-11-23T14:49:00.854Z</time>
      </trkpt>
      <trkpt lat="49.47573" lon="3.74519">
        <ele>226.2</ele>
        <time>2015-11-23T14:49:01.799Z</time>
      </trkpt>
      <trkpt lat="49.47576" lon="3.74531">
        <ele>226.2</ele>
        <time>2015-11-23T14:49:09.848Z</time>
      </trkpt>
      <trkpt lat="49.47577" lon="3.74532">
        <ele>226.1</ele>
        <time>2015-11-23T14:49:10.733Z</time>
      </trkpt>
      <trkpt lat="49.47581" lon="3.74545">
        <ele>226.3</ele>
        <time>2015-11-23T14:49:18.799Z</time>
      </trkpt>
      <trkpt lat="49.47581" lon="3.74546">
        <ele>226.2</ele>
        <time>2015-11-23T14:49:19.788Z</time>
      </trkpt>
      <trkpt lat="49.47584" lon="3.74559">
        <ele>227.8</ele>
        <time>2015-11-23T14:49:28.768Z</time>
      </trkpt>
      <trkpt lat="49.47584" lon="3.74561">
        <ele>228</ele>
        <time>2015-11-23T14:49:29.778Z</time>
      </trkpt>
      <trkpt lat="49.47587" lon="3.74572">
        <ele>228.6</ele>
        <time>2015-11-23T14:49:36.807Z</time>
      </trkpt>
      <trkpt lat="49.47587" lon="3.74573">
        <ele>228.7</ele>
        <time>2015-11-23T14:49:37.788Z</time>
      </trkpt>
      <trkpt lat="49.47591" lon="3.74586">
        <ele>229.5</ele>
        <time>2015-11-23T14:49:46.752Z</time>
      </trkpt>
      <trkpt lat="49.47591" lon="3.74587">
        <ele>229.5</ele>
        <time>2015-11-23T14:49:47.783Z</time>
      </trkpt>
      <trkpt lat="49.47595" lon="3.74599">
        <ele>229.7</ele>
        <time>2015-11-23T14:49:56.820Z</time>
      </trkpt>
      <trkpt lat="49.47595" lon="3.746">
        <ele>229.7</ele>
        <time>2015-11-23T14:49:57.813Z</time>
      </trkpt>
      <trkpt lat="49.47598" lon="3.74611">
        <ele>229.6</ele>
        <time>2015-11-23T14:50:05.998Z</time>
      </trkpt>
      <trkpt lat="49.47598" lon="3.74613">
        <ele>229.7</ele>
        <time>2015-11-23T14:50:06.805Z</time>
      </trkpt>
      <trkpt lat="49.47602" lon="3.74625">
        <ele>229.8</ele>
        <time>2015-11-23T14:50:14.880Z</time>
      </trkpt>
      <trkpt lat="49.47603" lon="3.74627">
        <ele>229.7</ele>
        <time>2015-11-23T14:50:15.707Z</time>
      </trkpt>
      <trkpt lat="49.47607" lon="3.74638">
        <ele>230</ele>
        <time>2015-11-23T14:50:23.782Z</time>
      </trkpt>
      <trkpt lat="49.47607" lon="3.74639">
        <ele>230</ele>
        <time>2015-11-23T14:50:24.763Z</time>
      </trkpt>
      <trkpt lat="49.4761" lon="3.74652">
        <ele>230.8</ele>
        <time>2015-11-23T14:50:33.755Z</time>
      </trkpt>
      <trkpt lat="49.4761" lon="3.74653">
        <ele>231</ele>
        <time>2015-11-23T14:50:34.754Z</time>
      </trkpt>
      <trkpt lat="49.47614" lon="3.74665">
        <ele>231</ele>
        <time>2015-11-23T14:50:44.005Z</time>
      </trkpt>
      <trkpt lat="49.47615" lon="3.74666">
        <ele>231</ele>
        <time>2015-11-23T14:50:44.822Z</time>
      </trkpt>
      <trkpt lat="49.47618" lon="3.74677">
        <ele>231.1</ele>
        <time>2015-11-23T14:50:52.740Z</time>
      </trkpt>
      <trkpt lat="49.47619" lon="3.74679">
        <ele>231.3</ele>
        <time>2015-11-23T14:50:53.755Z</time>
      </trkpt>
      <trkpt lat="49.47623" lon="3.74691">
        <ele>230.6</ele>
        <time>2015-11-23T14:51:01.715Z</time>
      </trkpt>
      <trkpt lat="49.47623" lon="3.74693">
        <ele>230.6</ele>
        <time>2015-11-23T14:51:02.727Z</time>
      </trkpt>
      <trkpt lat="49.47626" lon="3.74704">
        <ele>230.2</ele>
        <time>2015-11-23T14:51:09.724Z</time>
      </trkpt>
      <trkpt lat="49.47626" lon="3.74705">
        <ele>230.2</ele>
        <time>2015-11-23T14:51:10.708Z</time>
      </trkpt>
      <trkpt lat="49.4763" lon="3.74717">
        <ele>230.4</ele>
        <time>2015-11-23T14:51:18.776Z</time>
      </trkpt>
      <trkpt lat="49.4763" lon="3.74719">
        <ele>230.4</ele>
        <time>2015-11-23T14:51:19.760Z</time>
      </trkpt>
      <trkpt lat="49.47634" lon="3.74731">
        <ele>231.2</ele>
        <time>2015-11-23T14:51:27.772Z</time>
      </trkpt>
      <trkpt lat="49.47634" lon="3.74733">
        <ele>231.3</ele>
        <time>2015-11-23T14:51:28.750Z</time>
      </trkpt>
      <trkpt lat="49.47637" lon="3.74745">
        <ele>232.3</ele>
        <time>2015-11-23T14:51:36.946Z</time>
      </trkpt>
      <trkpt lat="49.47637" lon="3.74746">
        <ele>232.3</ele>
        <time>2015-11-23T14:51:37.726Z</time>
      </trkpt>
      <trkpt lat="49.47638" lon="3.74759">
        <ele>232.8</ele>
        <time>2015-11-23T14:51:46.740Z</time>
      </trkpt>
      <trkpt lat="49.47638" lon="3.7476">
        <ele>232.9</ele>
        <time>2015-11-23T14:51:47.761Z</time>
      </trkpt>
      <trkpt lat="49.47638" lon="3.74766">
        <ele>232.7</ele>
        <time>2015-11-23T14:51:55.809Z</time>
      </trkpt>
      <trkpt lat="49.47638" lon="3.74766">
        <ele>232.6</ele>
        <time>2015-11-23T14:51:56.787Z</time>
      </trkpt>
      <trkpt lat="49.47638" lon="3.74766">
        <ele>232.6</ele>
        <time>2015-11-23T14:52:00.780Z</time>
      </trkpt>
      <trkpt lat="49.47637" lon="3.74767">
        <ele>232.6</ele>
        <time>2015-11-23T14:52:01.772Z</time>
      </trkpt>
      <trkpt lat="49.47629" lon="3.74761">
        <ele>232.1</ele>
        <time>2015-11-23T14:52:18.819Z</time>
      </trkpt>
      <trkpt lat="49.47629" lon="3.74761">
        <ele>232.3</ele>
        <time>2015-11-23T14:52:19.729Z</time>
      </trkpt>
      <trkpt lat="49.47621" lon="3.74754">
        <ele>232.9</ele>
        <time>2015-11-23T14:52:28.808Z</time>
      </trkpt>
      <trkpt lat="49.4762" lon="3.74753">
        <ele>232.9</ele>
        <time>2015-11-23T14:52:29.799Z</time>
      </trkpt>
      <trkpt lat="49.47614" lon="3.74745">
        <ele>232.9</ele>
        <time>2015-11-23T14:52:38.811Z</time>
      </trkpt>
      <trkpt lat="49.47613" lon="3.74744">
        <ele>232.9</ele>
        <time>2015-11-23T14:52:39.796Z</time>
      </trkpt>
      <trkpt lat="49.47606" lon="3.74737">
        <ele>232.4</ele>
        <time>2015-11-23T14:52:48.738Z</time>
      </trkpt>
      <trkpt lat="49.47605" lon="3.74736">
        <ele>232.4</ele>
        <time>2015-11-23T14:52:49.725Z</time>
      </trkpt>
      <trkpt lat="49.47598" lon="3.74729">
        <ele>232.5</ele>
        <time>2015-11-23T14:52:56.764Z</time>
      </trkpt>
      <trkpt lat="49.47597" lon="3.74727">
        <ele>232.5</ele>
        <time>2015-11-23T14:52:57.745Z</time>
      </trkpt>
      <trkpt lat="49.47591" lon="3.7472">
        <ele>232.6</ele>
        <time>2015-11-23T14:53:04.736Z</time>
      </trkpt>
      <trkpt lat="49.4759" lon="3.74719">
        <ele>232.6</ele>
        <time>2015-11-23T14:53:05.755Z</time>
      </trkpt>
      <trkpt lat="49.47583" lon="3.74711">
        <ele>232.8</ele>
        <time>2015-11-23T14:53:12.784Z</time>
      </trkpt>
      <trkpt lat="49.47582" lon="3.7471">
        <ele>232.7</ele>
        <time>2015-11-23T14:53:13.767Z</time>
      </trkpt>
      <trkpt lat="49.47576" lon="3.74702">
        <ele>231.9</ele>
        <time>2015-11-23T14:53:21.750Z</time>
      </trkpt>
      <trkpt lat="49.47575" lon="3.74701">
        <ele>231.8</ele>
        <time>2015-11-23T14:53:22.733Z</time>
      </trkpt>
      <trkpt lat="49.47568" lon="3.74693">
        <ele>231.5</ele>
        <time>2015-11-23T14:53:29.842Z</time>
      </trkpt>
      <trkpt lat="49.47567" lon="3.74692">
        <ele>231.5</ele>
        <time>2015-11-23T14:53:30.705Z</time>
      </trkpt>
      <trkpt lat="49.47561" lon="3.74684">
        <ele>231.5</ele>
        <time>2015-11-23T14:53:37.773Z</time>
      </trkpt>
      <trkpt lat="49.4756" lon="3.74683">
        <ele>231.4</ele>
        <time>2015-11-23T14:53:38.773Z</time>
      </trkpt>
      <trkpt lat="49.47553" lon="3.74675">
        <ele>231</ele>
        <time>2015-11-23T14:53:48.015Z</time>
      </trkpt>
      <trkpt lat="49.47552" lon="3.74675">
        <ele>231.1</ele>
        <time>2015-11-23T14:53:49.033Z</time>
      </trkpt>
      <trkpt lat="49.47545" lon="3.74668">
        <ele>230.7</ele>
        <time>2015-11-23T14:53:58.043Z</time>
      </trkpt>
      <trkpt lat="49.47544" lon="3.74667">
        <ele>230.7</ele>
        <time>2015-11-23T14:53:59.031Z</time>
      </trkpt>
      <trkpt lat="49.47537" lon="3.74661">
        <ele>229.5</ele>
        <time>2015-11-23T14:54:07.062Z</time>
      </trkpt>
      <trkpt lat="49.47535" lon="3.74661">
        <ele>229.4</ele>
        <time>2015-11-23T14:54:07.932Z</time>
      </trkpt>
      <trkpt lat="49.47529" lon="3.74653">
        <ele>229.2</ele>
        <time>2015-11-23T14:54:15.031Z</time>
      </trkpt>
      <trkpt lat="49.47528" lon="3.74651">
        <ele>229.5</ele>
        <time>2015-11-23T14:54:16.007Z</time>
      </trkpt>
      <trkpt lat="49.47521" lon="3.74645">
        <ele>229.2</ele>
        <time>2015-11-23T14:54:22.986Z</time>
      </trkpt>
      <trkpt lat="49.4752" lon="3.74644">
        <ele>229.2</ele>
        <time>2015-11-23T14:54:23.976Z</time>
      </trkpt>
      <trkpt lat="49.47512" lon="3.74638">
        <ele>228</ele>
        <time>2015-11-23T14:54:35.032Z</time>
      </trkpt>
      <trkpt lat="49.47512" lon="3.74638">
        <ele>227.8</ele>
        <time>2015-11-23T14:54:36.023Z</time>
      </trkpt>
      <trkpt lat="49.47508" lon="3.74635">
        <ele>227.6</ele>
        <time>2015-11-23T14:54:43.953Z</time>
      </trkpt>
      <trkpt lat="49.47508" lon="3.74636">
        <ele>227.9</ele>
        <time>2015-11-23T14:54:44.937Z</time>
      </trkpt>
      <trkpt lat="49.47508" lon="3.74635">
        <ele>228.1</ele>
        <time>2015-11-23T14:54:47.980Z</time>
      </trkpt>
      <trkpt lat="49.47507" lon="3.74634">
        <ele>228</ele>
        <time>2015-11-23T14:54:48.970Z</time>
      </trkpt>
      <trkpt lat="49.47503" lon="3.74632">
        <ele>228.2</ele>
        <time>2015-11-23T14:54:55.042Z</time>
      </trkpt>
      <trkpt lat="49.47503" lon="3.74633">
        <ele>227.8</ele>
        <time>2015-11-23T14:54:55.934Z</time>
      </trkpt>
      <trkpt lat="49.47503" lon="3.74634">
        <ele>227.8</ele>
        <time>2015-11-23T14:54:58.989Z</time>
      </trkpt>
      <trkpt lat="49.47504" lon="3.74634">
        <ele>227.5</ele>
        <time>2015-11-23T14:54:59.980Z</time>
      </trkpt>
      <trkpt lat="49.47496" lon="3.74631">
        <ele>226.9</ele>
        <time>2015-11-23T14:55:09.961Z</time>
      </trkpt>
      <trkpt lat="49.47495" lon="3.7463">
        <ele>227.1</ele>
        <time>2015-11-23T14:55:10.955Z</time>
      </trkpt>
      <trkpt lat="49.47486" lon="3.74624">
        <ele>227.2</ele>
        <time>2015-11-23T14:55:21.012Z</time>
      </trkpt>
      <trkpt lat="49.47486" lon="3.74624">
        <ele>227.3</ele>
        <time>2015-11-23T14:55:21.996Z</time>
      </trkpt>
      <trkpt lat="49.47478" lon="3.7462">
        <ele>227.1</ele>
        <time>2015-11-23T14:55:31.008Z</time>
      </trkpt>
      <trkpt lat="49.47477" lon="3.74619">
        <ele>226.8</ele>
        <time>2015-11-23T14:55:31.997Z</time>
      </trkpt>
      <trkpt lat="49.47469" lon="3.74614">
        <ele>227.1</ele>
        <time>2015-11-23T14:55:38.963Z</time>
      </trkpt>
      <trkpt lat="49.47468" lon="3.74613">
        <ele>227.1</ele>
        <time>2015-11-23T14:55:39.963Z</time>
      </trkpt>
      <trkpt lat="49.4746" lon="3.7461">
        <ele>227.7</ele>
        <time>2015-11-23T14:55:46.945Z</time>
      </trkpt>
      <trkpt lat="49.47459" lon="3.7461">
        <ele>227.8</ele>
        <time>2015-11-23T14:55:47.936Z</time>
      </trkpt>
      <trkpt lat="49.4745" lon="3.74606">
        <ele>228.8</ele>
        <time>2015-11-23T14:55:57.000Z</time>
      </trkpt>
      <trkpt lat="49.47449" lon="3.74606">
        <ele>228.7</ele>
        <time>2015-11-23T14:55:57.986Z</time>
      </trkpt>
      <trkpt lat="49.47441" lon="3.74602">
        <ele>229</ele>
        <time>2015-11-23T14:56:07.001Z</time>
      </trkpt>
      <trkpt lat="49.4744" lon="3.74602">
        <ele>229</ele>
        <time>2015-11-23T14:56:07.985Z</time>
      </trkpt>
      <trkpt lat="49.47433" lon="3.74595">
        <ele>228.9</ele>
        <time>2015-11-23T14:56:13.953Z</time>
      </trkpt>
      <trkpt lat="49.47432" lon="3.74594">
        <ele>228.8</ele>
        <time>2015-11-23T14:56:14.945Z</time>
      </trkpt>
      <trkpt lat="49.47424" lon="3.74589">
        <ele>228.6</ele>
        <time>2015-11-23T14:56:22.035Z</time>
      </trkpt>
      <trkpt lat="49.47423" lon="3.74588">
        <ele>228.6</ele>
        <time>2015-11-23T14:56:23.024Z</time>
      </trkpt>
      <trkpt lat="49.47415" lon="3.74584">
        <ele>228.5</ele>
        <time>2015-11-23T14:56:29.945Z</time>
      </trkpt>
      <trkpt lat="49.47413" lon="3.74584">
        <ele>228.3</ele>
        <time>2015-11-23T14:56:30.969Z</time>
      </trkpt>
      <trkpt lat="49.47406" lon="3.74577">
        <ele>228.6</ele>
        <time>2015-11-23T14:56:37.955Z</time>
      </trkpt>
      <trkpt lat="49.47405" lon="3.74576">
        <ele>228.5</ele>
        <time>2015-11-23T14:56:38.951Z</time>
      </trkpt>
      <trkpt lat="49.47397" lon="3.74571">
        <ele>227.9</ele>
        <time>2015-11-23T14:56:46.044Z</time>
      </trkpt>
      <trkpt lat="49.47397" lon="3.7457">
        <ele>227.8</ele>
        <time>2015-11-23T14:56:46.933Z</time>
      </trkpt>
      <trkpt lat="49.4739" lon="3.74562">
        <ele>228.3</ele>
        <time>2015-11-23T14:56:53.011Z</time>
      </trkpt>
      <trkpt lat="49.47389" lon="3.74561">
        <ele>228.3</ele>
        <time>2015-11-23T14:56:54.018Z</time>
      </trkpt>
      <trkpt lat="49.47382" lon="3.74556">
        <ele>228.4</ele>
        <time>2015-11-23T14:56:59.985Z</time>
      </trkpt>
      <trkpt lat="49.47381" lon="3.74555">
        <ele>228.6</ele>
        <time>2015-11-23T14:57:00.975Z</time>
      </trkpt>
      <trkpt lat="49.47372" lon="3.7455">
        <ele>228.4</ele>
        <time>2015-11-23T14:57:08.947Z</time>
      </trkpt>
      <trkpt lat="49.47371" lon="3.74549">
        <ele>228.4</ele>
        <time>2015-11-23T14:57:09.950Z</time>
      </trkpt>
      <trkpt lat="49.47364" lon="3.74543">
        <ele>228.3</ele>
        <time>2015-11-23T14:57:17.040Z</time>
      </trkpt>
      <trkpt lat="49.47363" lon="3.74543">
        <ele>227.9</ele>
        <time>2015-11-23T14:57:17.936Z</time>
      </trkpt>
      <trkpt lat="49.47355" lon="3.74539">
        <ele>227.4</ele>
        <time>2015-11-23T14:57:26.004Z</time>
      </trkpt>
      <trkpt lat="49.47354" lon="3.74538">
        <ele>227.3</ele>
        <time>2015-11-23T14:57:27.006Z</time>
      </trkpt>
      <trkpt lat="49.47347" lon="3.74531">
        <ele>226.8</ele>
        <time>2015-11-23T14:57:35.034Z</time>
      </trkpt>
      <trkpt lat="49.47346" lon="3.7453">
        <ele>226.7</ele>
        <time>2015-11-23T14:57:36.025Z</time>
      </trkpt>
      <trkpt lat="49.47339" lon="3.74522">
        <ele>226.7</ele>
        <time>2015-11-23T14:57:44.029Z</time>
      </trkpt>
      <trkpt lat="49.47338" lon="3.74521">
        <ele>226.6</ele>
        <time>2015-11-23T14:57:45.014Z</time>
      </trkpt>
      <trkpt lat="49.4733" lon="3.74517">
        <ele>227.1</ele>
        <time>2015-11-23T14:57:51.014Z</time>
      </trkpt>
      <trkpt lat="49.47329" lon="3.74516">
        <ele>227.2</ele>
        <time>2015-11-23T14:57:52.001Z</time>
      </trkpt>
      <trkpt lat="49.4732" lon="3.74516">
        <ele>227.2</ele>
        <time>2015-11-23T14:57:57.962Z</time>
      </trkpt>
      <trkpt lat="49.47319" lon="3.74515">
        <ele>227.1</ele>
        <time>2015-11-23T14:57:58.956Z</time>
      </trkpt>
      <trkpt lat="49.47311" lon="3.7451">
        <ele>226.3</ele>
        <time>2015-11-23T14:58:06.991Z</time>
      </trkpt>
      <trkpt lat="49.4731" lon="3.74509">
        <ele>226.1</ele>
        <time>2015-11-23T14:58:07.971Z</time>
      </trkpt>
      <trkpt lat="49.47303" lon="3.74501">
        <ele>225.6</ele>
        <time>2015-11-23T14:58:15.018Z</time>
      </trkpt>
      <trkpt lat="49.47303" lon="3.745">
        <ele>225.5</ele>
        <time>2015-11-23T14:58:16.003Z</time>
      </trkpt>
      <trkpt lat="49.47295" lon="3.74494">
        <ele>225.9</ele>
        <time>2015-11-23T14:58:22.987Z</time>
      </trkpt>
      <trkpt lat="49.47294" lon="3.74493">
        <ele>225.8</ele>
        <time>2015-11-23T14:58:23.969Z</time>
      </trkpt>
      <trkpt lat="49.47286" lon="3.74487">
        <ele>225.4</ele>
        <time>2015-11-23T14:58:29.951Z</time>
      </trkpt>
      <trkpt lat="49.47285" lon="3.74486">
        <ele>225.3</ele>
        <time>2015-11-23T14:58:30.988Z</time>
      </trkpt>
      <trkpt lat="49.47277" lon="3.7448">
        <ele>225.4</ele>
        <time>2015-11-23T14:58:36.992Z</time>
      </trkpt>
      <trkpt lat="49.47276" lon="3.74479">
        <ele>225.4</ele>
        <time>2015-11-23T14:58:37.984Z</time>
      </trkpt>
      <trkpt lat="49.47267" lon="3.74477">
        <ele>224.9</ele>
        <time>2015-11-23T14:58:45.961Z</time>
      </trkpt>
      <trkpt lat="49.47266" lon="3.74478">
        <ele>225</ele>
        <time>2015-11-23T14:58:46.962Z</time>
      </trkpt>
      <trkpt lat="49.47257" lon="3.74481">
        <ele>224.6</ele>
        <time>2015-11-23T14:58:54.973Z</time>
      </trkpt>
      <trkpt lat="49.47256" lon="3.74481">
        <ele>224.3</ele>
        <time>2015-11-23T14:58:55.921Z</time>
      </trkpt>
      <trkpt lat="49.47247" lon="3.7448">
        <ele>223.7</ele>
        <time>2015-11-23T14:59:03.053Z</time>
      </trkpt>
      <trkpt lat="49.47246" lon="3.74481">
        <ele>223.6</ele>
        <time>2015-11-23T14:59:03.934Z</time>
      </trkpt>
      <trkpt lat="49.47238" lon="3.74483">
        <ele>222.9</ele>
        <time>2015-11-23T14:59:11.019Z</time>
      </trkpt>
      <trkpt lat="49.47237" lon="3.74482">
        <ele>223</ele>
        <time>2015-11-23T14:59:11.998Z</time>
      </trkpt>
      <trkpt lat="49.47229" lon="3.74483">
        <ele>222.9</ele>
        <time>2015-11-23T14:59:18.976Z</time>
      </trkpt>
      <trkpt lat="49.47228" lon="3.74483">
        <ele>223</ele>
        <time>2015-11-23T14:59:20.028Z</time>
      </trkpt>
      <trkpt lat="49.4722" lon="3.74478">
        <ele>222.3</ele>
        <time>2015-11-23T14:59:27.956Z</time>
      </trkpt>
      <trkpt lat="49.47219" lon="3.74477">
        <ele>222.3</ele>
        <time>2015-11-23T14:59:28.945Z</time>
      </trkpt>
      <trkpt lat="49.47211" lon="3.7447">
        <ele>221.7</ele>
        <time>2015-11-23T14:59:36.025Z</time>
      </trkpt>
      <trkpt lat="49.47209" lon="3.7447">
        <ele>221.6</ele>
        <time>2015-11-23T14:59:37.021Z</time>
      </trkpt>
      <trkpt lat="49.47201" lon="3.74466">
        <ele>221.3</ele>
        <time>2015-11-23T14:59:43.981Z</time>
      </trkpt>
      <trkpt lat="49.472" lon="3.74465">
        <ele>221.3</ele>
        <time>2015-11-23T14:59:44.940Z</time>
      </trkpt>
      <trkpt lat="49.47195" lon="3.74465">
        <ele>221.3</ele>
        <time>2015-11-23T14:59:50.958Z</time>
      </trkpt>
      <trkpt lat="49.47195" lon="3.74465">
        <ele>221.4</ele>
        <time>2015-11-23T14:59:51.932Z</time>
      </trkpt>
      <trkpt lat="49.47195" lon="3.74465">
        <ele>221.4</ele>
        <time>2015-11-23T14:59:51.957Z</time>
      </trkpt>
      <trkpt lat="49.47195" lon="3.74465">
        <ele>221.5</ele>
        <time>2015-11-23T14:59:52.945Z</time>
      </trkpt>
      <trkpt lat="49.47194" lon="3.74465">
        <ele>221.5</ele>
        <time>2015-11-23T14:59:59.005Z</time>
      </trkpt>
      <trkpt lat="49.47193" lon="3.74465">
        <ele>221.5</ele>
        <time>2015-11-23T14:59:59.973Z</time>
      </trkpt>
      <trkpt lat="49.47193" lon="3.74465">
        <ele>221.4</ele>
        <time>2015-11-23T15:00:04.087Z</time>
      </trkpt>
      <trkpt lat="49.47192" lon="3.74465">
        <ele>221.3</ele>
        <time>2015-11-23T15:00:05.017Z</time>
      </trkpt>
      <trkpt lat="49.47188" lon="3.74459">
        <ele>221.1</ele>
        <time>2015-11-23T15:01:17.973Z</time>
      </trkpt>
      <trkpt lat="49.47188" lon="3.7446">
        <ele>221</ele>
        <time>2015-11-23T15:01:18.979Z</time>
      </trkpt>
      <trkpt lat="49.47188" lon="3.7446">
        <ele>221.1</ele>
        <time>2015-11-23T15:01:20.001Z</time>
      </trkpt>
      <trkpt lat="49.47189" lon="3.7446">
        <ele>221.1</ele>
        <time>2015-11-23T15:01:20.992Z</time>
      </trkpt>
      <trkpt lat="49.47191" lon="3.74461">
        <ele>220.9</ele>
        <time>2015-11-23T15:01:25.947Z</time>
      </trkpt>
      <trkpt lat="49.47191" lon="3.74461">
        <ele>220.7</ele>
        <time>2015-11-23T15:01:26.944Z</time>
      </trkpt>
      <trkpt lat="49.4719" lon="3.7446">
        <ele>220.6</ele>
        <time>2015-11-23T15:01:44.073Z</time>
      </trkpt>
      <trkpt lat="49.47187" lon="3.74458">
        <ele>220</ele>
        <time>2015-11-23T15:01:45.013Z</time>
      </trkpt>
      <trkpt lat="49.47178" lon="3.74458">
        <ele>218.1</ele>
        <time>2015-11-23T15:01:58.005Z</time>
      </trkpt>
      <trkpt lat="49.47178" lon="3.74458">
        <ele>218</ele>
        <time>2015-11-23T15:01:59.013Z</time>
      </trkpt>
      <trkpt lat="49.47169" lon="3.74457">
        <ele>216.3</ele>
        <time>2015-11-23T15:02:11.042Z</time>
      </trkpt>
      <trkpt lat="49.47168" lon="3.74457">
        <ele>216.2</ele>
        <time>2015-11-23T15:02:12.030Z</time>
      </trkpt>
      <trkpt lat="49.47159" lon="3.74455">
        <ele>215.2</ele>
        <time>2015-11-23T15:02:21.949Z</time>
      </trkpt>
      <trkpt lat="49.47159" lon="3.74454">
        <ele>215</ele>
        <time>2015-11-23T15:02:22.969Z</time>
      </trkpt>
      <trkpt lat="49.4715" lon="3.7445">
        <ele>214.1</ele>
        <time>2015-11-23T15:02:32.081Z</time>
      </trkpt>
      <trkpt lat="49.4715" lon="3.7445">
        <ele>214</ele>
        <time>2015-11-23T15:02:32.936Z</time>
      </trkpt>
      <trkpt lat="49.47141" lon="3.74448">
        <ele>213.9</ele>
        <time>2015-11-23T15:02:41.957Z</time>
      </trkpt>
      <trkpt lat="49.4714" lon="3.74447">
        <ele>213.9</ele>
        <time>2015-11-23T15:02:43.060Z</time>
      </trkpt>
      <trkpt lat="49.47133" lon="3.74443">
        <ele>213.6</ele>
        <time>2015-11-23T15:02:51.017Z</time>
      </trkpt>
      <trkpt lat="49.47132" lon="3.74443">
        <ele>213.4</ele>
        <time>2015-11-23T15:02:52.006Z</time>
      </trkpt>
      <trkpt lat="49.47123" lon="3.7444">
        <ele>214.1</ele>
        <time>2015-11-23T15:03:00.049Z</time>
      </trkpt>
      <trkpt lat="49.47122" lon="3.7444">
        <ele>214.4</ele>
        <time>2015-11-23T15:03:01.043Z</time>
      </trkpt>
      <trkpt lat="49.47114" lon="3.74439">
        <ele>213.9</ele>
        <time>2015-11-23T15:03:08.041Z</time>
      </trkpt>
      <trkpt lat="49.47113" lon="3.74439">
        <ele>213.9</ele>
        <time>2015-11-23T15:03:09.020Z</time>
      </trkpt>
      <trkpt lat="49.47105" lon="3.74437">
        <ele>213.1</ele>
        <time>2015-11-23T15:03:16.039Z</time>
      </trkpt>
      <trkpt lat="49.47104" lon="3.74436">
        <ele>213</ele>
        <time>2015-11-23T15:03:16.936Z</time>
      </trkpt>
      <trkpt lat="49.47095" lon="3.74434">
        <ele>212.4</ele>
        <time>2015-11-23T15:03:25.954Z</time>
      </trkpt>
      <trkpt lat="49.47094" lon="3.74433">
        <ele>212.6</ele>
        <time>2015-11-23T15:03:26.946Z</time>
      </trkpt>
      <trkpt lat="49.47086" lon="3.74432">
        <ele>212.1</ele>
        <time>2015-11-23T15:03:37.061Z</time>
      </trkpt>
      <trkpt lat="49.47085" lon="3.74432">
        <ele>212</ele>
        <time>2015-11-23T15:03:37.966Z</time>
      </trkpt>
      <trkpt lat="49.47077" lon="3.74428">
        <ele>211.6</ele>
        <time>2015-11-23T15:03:45.982Z</time>
      </trkpt>
      <trkpt lat="49.47076" lon="3.74428">
        <ele>211.5</ele>
        <time>2015-11-23T15:03:46.960Z</time>
      </trkpt>
      <trkpt lat="49.47068" lon="3.74422">
        <ele>210.4</ele>
        <time>2015-11-23T15:03:56.000Z</time>
      </trkpt>
      <trkpt lat="49.47067" lon="3.74421">
        <ele>210.4</ele>
        <time>2015-11-23T15:03:56.993Z</time>
      </trkpt>
      <trkpt lat="49.47059" lon="3.74418">
        <ele>208.9</ele>
        <time>2015-11-23T15:04:04.984Z</time>
      </trkpt>
      <trkpt lat="49.47058" lon="3.74418">
        <ele>208.9</ele>
        <time>2015-11-23T15:04:05.974Z</time>
      </trkpt>
      <trkpt lat="49.4705" lon="3.74412">
        <ele>208.1</ele>
        <time>2015-11-23T15:04:14.000Z</time>
      </trkpt>
      <trkpt lat="49.47049" lon="3.74412">
        <ele>208.4</ele>
        <time>2015-11-23T15:04:14.991Z</time>
      </trkpt>
      <trkpt lat="49.47041" lon="3.74407">
        <ele>208</ele>
        <time>2015-11-23T15:04:24.042Z</time>
      </trkpt>
      <trkpt lat="49.4704" lon="3.74406">
        <ele>207.9</ele>
        <time>2015-11-23T15:04:25.015Z</time>
      </trkpt>
      <trkpt lat="49.47032" lon="3.74403">
        <ele>207.7</ele>
        <time>2015-11-23T15:04:31.949Z</time>
      </trkpt>
      <trkpt lat="49.47031" lon="3.74402">
        <ele>207.6</ele>
        <time>2015-11-23T15:04:32.939Z</time>
      </trkpt>
      <trkpt lat="49.47022" lon="3.744">
        <ele>207.9</ele>
        <time>2015-11-23T15:04:39.947Z</time>
      </trkpt>
      <trkpt lat="49.47021" lon="3.744">
        <ele>207.9</ele>
        <time>2015-11-23T15:04:40.959Z</time>
      </trkpt>
      <trkpt lat="49.47013" lon="3.74397">
        <ele>208</ele>
        <time>2015-11-23T15:04:48.052Z</time>
      </trkpt>
      <trkpt lat="49.47013" lon="3.74396">
        <ele>208</ele>
        <time>2015-11-23T15:04:49.034Z</time>
      </trkpt>
      <trkpt lat="49.47004" lon="3.74392">
        <ele>207.9</ele>
        <time>2015-11-23T15:04:58.030Z</time>
      </trkpt>
      <trkpt lat="49.47003" lon="3.74391">
        <ele>207.9</ele>
        <time>2015-11-23T15:04:59.025Z</time>
      </trkpt>
      <trkpt lat="49.46995" lon="3.74387">
        <ele>207.5</ele>
        <time>2015-11-23T15:05:07.995Z</time>
      </trkpt>
      <trkpt lat="49.46994" lon="3.74387">
        <ele>207.2</ele>
        <time>2015-11-23T15:05:08.987Z</time>
      </trkpt>
      <trkpt lat="49.46988" lon="3.74384">
        <ele>206.8</ele>
        <time>2015-11-23T15:05:15.966Z</time>
      </trkpt>
      <trkpt lat="49.46988" lon="3.74384">
        <ele>206.9</ele>
        <time>2015-11-23T15:05:16.948Z</time>
      </trkpt>
      <trkpt lat="49.46987" lon="3.74384">
        <ele>207</ele>
        <time>2015-11-23T15:05:17.989Z</time>
      </trkpt>
      <trkpt lat="49.46987" lon="3.74384">
        <ele>206.7</ele>
        <time>2015-11-23T15:05:18.994Z</time>
      </trkpt>
      <trkpt lat="49.46979" lon="3.74381">
        <ele>205.8</ele>
        <time>2015-11-23T15:05:25.991Z</time>
      </trkpt>
      <trkpt lat="49.46978" lon="3.74381">
        <ele>205.7</ele>
        <time>2015-11-23T15:05:26.987Z</time>
      </trkpt>
      <trkpt lat="49.46971" lon="3.74378">
        <ele>205.9</ele>
        <time>2015-11-23T15:05:36.002Z</time>
      </trkpt>
      <trkpt lat="49.46969" lon="3.74377">
        <ele>206</ele>
        <time>2015-11-23T15:05:36.989Z</time>
      </trkpt>
      <trkpt lat="49.4696" lon="3.74375">
        <ele>206.3</ele>
        <time>2015-11-23T15:05:41.955Z</time>
      </trkpt>
      <trkpt lat="49.46959" lon="3.74375">
        <ele>206.4</ele>
        <time>2015-11-23T15:05:42.977Z</time>
      </trkpt>
      <trkpt lat="49.46955" lon="3.74372">
        <ele>204.7</ele>
        <time>2015-11-23T15:05:47.034Z</time>
      </trkpt>
      <trkpt lat="49.46954" lon="3.74371">
        <ele>204.8</ele>
        <time>2015-11-23T15:05:48.029Z</time>
      </trkpt>
      <trkpt lat="49.46954" lon="3.74371">
        <ele>204.8</ele>
        <time>2015-11-23T15:05:49.050Z</time>
      </trkpt>
      <trkpt lat="49.46952" lon="3.74371">
        <ele>204.5</ele>
        <time>2015-11-23T15:05:49.936Z</time>
      </trkpt>
      <trkpt lat="49.46943" lon="3.74366">
        <ele>203.6</ele>
        <time>2015-11-23T15:06:01.042Z</time>
      </trkpt>
      <trkpt lat="49.46943" lon="3.74366">
        <ele>203.6</ele>
        <time>2015-11-23T15:06:01.983Z</time>
      </trkpt>
      <trkpt lat="49.46942" lon="3.74365">
        <ele>203.6</ele>
        <time>2015-11-23T15:06:02.964Z</time>
      </trkpt>
      <trkpt lat="49.46941" lon="3.74365">
        <ele>203.6</ele>
        <time>2015-11-23T15:06:03.967Z</time>
      </trkpt>
      <trkpt lat="49.4694" lon="3.74365">
        <ele>203.5</ele>
        <time>2015-11-23T15:06:04.982Z</time>
      </trkpt>
      <trkpt lat="49.4694" lon="3.74366">
        <ele>203.4</ele>
        <time>2015-11-23T15:06:05.972Z</time>
      </trkpt>
      <trkpt lat="49.46932" lon="3.74365">
        <ele>203.2</ele>
        <time>2015-11-23T15:06:13.960Z</time>
      </trkpt>
      <trkpt lat="49.46931" lon="3.74364">
        <ele>203.5</ele>
        <time>2015-11-23T15:06:14.945Z</time>
      </trkpt>
      <trkpt lat="49.46928" lon="3.74363">
        <ele>203.6</ele>
        <time>2015-11-23T15:06:16.994Z</time>
      </trkpt>
      <trkpt lat="49.46927" lon="3.74362">
        <ele>203.6</ele>
        <time>2015-11-23T15:06:17.975Z</time>
      </trkpt>
      <trkpt lat="49.46926" lon="3.74362">
        <ele>203.5</ele>
        <time>2015-11-23T15:06:21.018Z</time>
      </trkpt>
      <trkpt lat="49.46923" lon="3.74359">
        <ele>203.5</ele>
        <time>2015-11-23T15:06:22.021Z</time>
      </trkpt>
      <trkpt lat="49.46919" lon="3.74356">
        <ele>203.3</ele>
        <time>2015-11-23T15:06:25.959Z</time>
      </trkpt>
      <trkpt lat="49.46919" lon="3.74356">
        <ele>203.2</ele>
        <time>2015-11-23T15:06:26.956Z</time>
      </trkpt>
      <trkpt lat="49.46919" lon="3.74356">
        <ele>203.2</ele>
        <time>2015-11-23T15:06:26.964Z</time>
      </trkpt>
      <trkpt lat="49.46918" lon="3.74355">
        <ele>203.2</ele>
        <time>2015-11-23T15:06:27.966Z</time>
      </trkpt>
      <trkpt lat="49.46909" lon="3.74355">
        <ele>202.3</ele>
        <time>2015-11-23T15:06:34.957Z</time>
      </trkpt>
      <trkpt lat="49.46908" lon="3.74354">
        <ele>202.1</ele>
        <time>2015-11-23T15:06:35.951Z</time>
      </trkpt>
      <trkpt lat="49.469" lon="3.74352">
        <ele>201.5</ele>
        <time>2015-11-23T15:06:42.046Z</time>
      </trkpt>
      <trkpt lat="49.469" lon="3.7435">
        <ele>200.8</ele>
        <time>2015-11-23T15:06:43.027Z</time>
      </trkpt>
      <trkpt lat="49.469" lon="3.74349">
        <ele>200.6</ele>
        <time>2015-11-23T15:06:43.955Z</time>
      </trkpt>
      <trkpt lat="49.469" lon="3.74349">
        <ele>200.5</ele>
        <time>2015-11-23T15:06:44.962Z</time>
      </trkpt>
      <trkpt lat="49.46893" lon="3.74344">
        <ele>201.4</ele>
        <time>2015-11-23T15:06:52.972Z</time>
      </trkpt>
      <trkpt lat="49.46891" lon="3.74344">
        <ele>202</ele>
        <time>2015-11-23T15:06:53.958Z</time>
      </trkpt>
      <trkpt lat="49.46889" lon="3.74343">
        <ele>202.6</ele>
        <time>2015-11-23T15:06:56.022Z</time>
      </trkpt>
      <trkpt lat="49.46889" lon="3.74343">
        <ele>202.7</ele>
        <time>2015-11-23T15:06:56.999Z</time>
      </trkpt>
      <trkpt lat="49.46889" lon="3.74343">
        <ele>202.7</ele>
        <time>2015-11-23T15:06:57.054Z</time>
      </trkpt>
      <trkpt lat="49.46888" lon="3.74343">
        <ele>202.8</ele>
        <time>2015-11-23T15:06:58.007Z</time>
      </trkpt>
      <trkpt lat="49.46879" lon="3.74342">
        <ele>201.2</ele>
        <time>2015-11-23T15:07:02.954Z</time>
      </trkpt>
      <trkpt lat="49.46878" lon="3.74341">
        <ele>201.1</ele>
        <time>2015-11-23T15:07:03.946Z</time>
      </trkpt>
      <trkpt lat="49.46869" lon="3.74339">
        <ele>201.5</ele>
        <time>2015-11-23T15:07:11.947Z</time>
      </trkpt>
      <trkpt lat="49.46868" lon="3.74339">
        <ele>201.2</ele>
        <time>2015-11-23T15:07:12.973Z</time>
      </trkpt>
      <trkpt lat="49.46862" lon="3.74339">
        <ele>200.4</ele>
        <time>2015-11-23T15:07:18.036Z</time>
      </trkpt>
      <trkpt lat="49.46861" lon="3.74339">
        <ele>200.2</ele>
        <time>2015-11-23T15:07:19.025Z</time>
      </trkpt>
      <trkpt lat="49.46861" lon="3.74339">
        <ele>200.3</ele>
        <time>2015-11-23T15:07:19.946Z</time>
      </trkpt>
      <trkpt lat="49.4686" lon="3.74338">
        <ele>200.2</ele>
        <time>2015-11-23T15:07:20.943Z</time>
      </trkpt>
      <trkpt lat="49.46853" lon="3.74334">
        <ele>199.8</ele>
        <time>2015-11-23T15:07:28.039Z</time>
      </trkpt>
      <trkpt lat="49.46853" lon="3.74334">
        <ele>199.8</ele>
        <time>2015-11-23T15:07:28.935Z</time>
      </trkpt>
      <trkpt lat="49.46852" lon="3.74333">
        <ele>199.8</ele>
        <time>2015-11-23T15:07:30.996Z</time>
      </trkpt>
      <trkpt lat="49.46851" lon="3.74332">
        <ele>199.8</ele>
        <time>2015-11-23T15:07:31.975Z</time>
      </trkpt>
      <trkpt lat="49.46842" lon="3.74328">
        <ele>199.3</ele>
        <time>2015-11-23T15:07:37.949Z</time>
      </trkpt>
      <trkpt lat="49.4684" lon="3.74329">
        <ele>198.8</ele>
        <time>2015-11-23T15:07:38.938Z</time>
      </trkpt>
      <trkpt lat="49.46832" lon="3.74323">
        <ele>198.2</ele>
        <time>2015-11-23T15:07:46.945Z</time>
      </trkpt>
      <trkpt lat="49.46831" lon="3.74322">
        <ele>198.2</ele>
        <time>2015-11-23T15:07:47.950Z</time>
      </trkpt>
      <trkpt lat="49.46824" lon="3.74316">
        <ele>197.1</ele>
        <time>2015-11-23T15:07:56.947Z</time>
      </trkpt>
      <trkpt lat="49.46823" lon="3.74316">
        <ele>197</ele>
        <time>2015-11-23T15:07:57.937Z</time>
      </trkpt>
      <trkpt lat="49.46815" lon="3.74316">
        <ele>195.5</ele>
        <time>2015-11-23T15:08:07.045Z</time>
      </trkpt>
      <trkpt lat="49.46813" lon="3.74317">
        <ele>195.2</ele>
        <time>2015-11-23T15:08:07.938Z</time>
      </trkpt>
      <trkpt lat="49.46805" lon="3.74314">
        <ele>194.4</ele>
        <time>2015-11-23T15:08:16.027Z</time>
      </trkpt>
      <trkpt lat="49.46804" lon="3.74313">
        <ele>194.4</ele>
        <time>2015-11-23T15:08:17.018Z</time>
      </trkpt>
      <trkpt lat="49.46799" lon="3.74311">
        <ele>194.5</ele>
        <time>2015-11-23T15:08:23.000Z</time>
      </trkpt>
      <trkpt lat="49.46798" lon="3.74311">
        <ele>194.6</ele>
        <time>2015-11-23T15:08:23.979Z</time>
      </trkpt>
      <trkpt lat="49.46798" lon="3.74311">
        <ele>194.6</ele>
        <time>2015-11-23T15:08:25.018Z</time>
      </trkpt>
      <trkpt lat="49.46797" lon="3.74311">
        <ele>194.8</ele>
        <time>2015-11-23T15:08:26.006Z</time>
      </trkpt>
      <trkpt lat="49.46789" lon="3.74308">
        <ele>193.8</ele>
        <time>2015-11-23T15:08:34.016Z</time>
      </trkpt>
      <trkpt lat="49.46788" lon="3.74309">
        <ele>193.6</ele>
        <time>2015-11-23T15:08:35.012Z</time>
      </trkpt>
      <trkpt lat="49.4678" lon="3.74304">
        <ele>193.1</ele>
        <time>2015-11-23T15:08:43.032Z</time>
      </trkpt>
      <trkpt lat="49.46779" lon="3.74304">
        <ele>193</ele>
        <time>2015-11-23T15:08:44.010Z</time>
      </trkpt>
      <trkpt lat="49.46772" lon="3.74301">
        <ele>192.2</ele>
        <time>2015-11-23T15:08:49.993Z</time>
      </trkpt>
      <trkpt lat="49.46772" lon="3.74301">
        <ele>191.6</ele>
        <time>2015-11-23T15:08:50.982Z</time>
      </trkpt>
      <trkpt lat="49.46772" lon="3.74301">
        <ele>191.6</ele>
        <time>2015-11-23T15:08:50.999Z</time>
      </trkpt>
      <trkpt lat="49.46771" lon="3.743">
        <ele>191.4</ele>
        <time>2015-11-23T15:08:51.999Z</time>
      </trkpt>
      <trkpt lat="49.46763" lon="3.74297">
        <ele>189.9</ele>
        <time>2015-11-23T15:08:59.982Z</time>
      </trkpt>
      <trkpt lat="49.4676" lon="3.74297">
        <ele>189.4</ele>
        <time>2015-11-23T15:09:00.979Z</time>
      </trkpt>
      <trkpt lat="49.46752" lon="3.74294">
        <ele>188.2</ele>
        <time>2015-11-23T15:09:09.010Z</time>
      </trkpt>
      <trkpt lat="49.46751" lon="3.74293">
        <ele>187.9</ele>
        <time>2015-11-23T15:09:09.992Z</time>
      </trkpt>
      <trkpt lat="49.46743" lon="3.74288">
        <ele>186.7</ele>
        <time>2015-11-23T15:09:17.988Z</time>
      </trkpt>
      <trkpt lat="49.46742" lon="3.74288">
        <ele>186.7</ele>
        <time>2015-11-23T15:09:18.987Z</time>
      </trkpt>
      <trkpt lat="49.46734" lon="3.74284">
        <ele>184.7</ele>
        <time>2015-11-23T15:09:29.018Z</time>
      </trkpt>
      <trkpt lat="49.46732" lon="3.74284">
        <ele>184.2</ele>
        <time>2015-11-23T15:09:30.014Z</time>
      </trkpt>
      <trkpt lat="49.46724" lon="3.74279">
        <ele>182.9</ele>
        <time>2015-11-23T15:09:38.021Z</time>
      </trkpt>
      <trkpt lat="49.46723" lon="3.74278">
        <ele>182.5</ele>
        <time>2015-11-23T15:09:39.011Z</time>
      </trkpt>
      <trkpt lat="49.46715" lon="3.74274">
        <ele>180.8</ele>
        <time>2015-11-23T15:09:47.087Z</time>
      </trkpt>
      <trkpt lat="49.46714" lon="3.74274">
        <ele>180.7</ele>
        <time>2015-11-23T15:09:47.937Z</time>
      </trkpt>
      <trkpt lat="49.46705" lon="3.7427">
        <ele>179.2</ele>
        <time>2015-11-23T15:09:55.944Z</time>
      </trkpt>
      <trkpt lat="49.46705" lon="3.7427">
        <ele>179.1</ele>
        <time>2015-11-23T15:09:56.937Z</time>
      </trkpt>
      <trkpt lat="49.46696" lon="3.74268">
        <ele>178</ele>
        <time>2015-11-23T15:10:05.032Z</time>
      </trkpt>
      <trkpt lat="49.46696" lon="3.74268">
        <ele>177.9</ele>
        <time>2015-11-23T15:10:06.014Z</time>
      </trkpt>
      <trkpt lat="49.46687" lon="3.74265">
        <ele>176.4</ele>
        <time>2015-11-23T15:10:15.022Z</time>
      </trkpt>
      <trkpt lat="49.46686" lon="3.74264">
        <ele>176.1</ele>
        <time>2015-11-23T15:10:16.011Z</time>
      </trkpt>
      <trkpt lat="49.46678" lon="3.74262">
        <ele>175.3</ele>
        <time>2015-11-23T15:10:24.028Z</time>
      </trkpt>
      <trkpt lat="49.46676" lon="3.74262">
        <ele>175.1</ele>
        <time>2015-11-23T15:10:25.020Z</time>
      </trkpt>
      <trkpt lat="49.46668" lon="3.74257">
        <ele>174.1</ele>
        <time>2015-11-23T15:10:34.032Z</time>
      </trkpt>
      <trkpt lat="49.46667" lon="3.74257">
        <ele>174.1</ele>
        <time>2015-11-23T15:10:34.934Z</time>
      </trkpt>
      <trkpt lat="49.46658" lon="3.74254">
        <ele>173</ele>
        <time>2015-11-23T15:10:43.943Z</time>
      </trkpt>
      <trkpt lat="49.46657" lon="3.74254">
        <ele>172.9</ele>
        <time>2015-11-23T15:10:44.947Z</time>
      </trkpt>
      <trkpt lat="49.46649" lon="3.74251">
        <ele>171.2</ele>
        <time>2015-11-23T15:10:52.947Z</time>
      </trkpt>
      <trkpt lat="49.46648" lon="3.74251">
        <ele>171.2</ele>
        <time>2015-11-23T15:10:53.935Z</time>
      </trkpt>
      <trkpt lat="49.4664" lon="3.74249">
        <ele>169.8</ele>
        <time>2015-11-23T15:11:02.950Z</time>
      </trkpt>
      <trkpt lat="49.46639" lon="3.74249">
        <ele>169.7</ele>
        <time>2015-11-23T15:11:03.948Z</time>
      </trkpt>
      <trkpt lat="49.46638" lon="3.74261">
        <ele>169.1</ele>
        <time>2015-11-23T15:11:16.032Z</time>
      </trkpt>
      <trkpt lat="49.46638" lon="3.74263">
        <ele>169.1</ele>
        <time>2015-11-23T15:11:16.934Z</time>
      </trkpt>
      <trkpt lat="49.46638" lon="3.74275">
        <ele>168</ele>
        <time>2015-11-23T15:11:23.945Z</time>
      </trkpt>
      <trkpt lat="49.46638" lon="3.74277">
        <ele>167.9</ele>
        <time>2015-11-23T15:11:25.046Z</time>
      </trkpt>
      <trkpt lat="49.46639" lon="3.7429">
        <ele>167.4</ele>
        <time>2015-11-23T15:11:32.010Z</time>
      </trkpt>
      <trkpt lat="49.4664" lon="3.74292">
        <ele>167.3</ele>
        <time>2015-11-23T15:11:33.004Z</time>
      </trkpt>
      <trkpt lat="49.46642" lon="3.74304">
        <ele>166.9</ele>
        <time>2015-11-23T15:11:41.026Z</time>
      </trkpt>
      <trkpt lat="49.46642" lon="3.74306">
        <ele>166.8</ele>
        <time>2015-11-23T15:11:42.137Z</time>
      </trkpt>
      <trkpt lat="49.46643" lon="3.74318">
        <ele>166.6</ele>
        <time>2015-11-23T15:11:48.979Z</time>
      </trkpt>
      <trkpt lat="49.46643" lon="3.7432">
        <ele>166.5</ele>
        <time>2015-11-23T15:11:49.974Z</time>
      </trkpt>
      <trkpt lat="49.46643" lon="3.74333">
        <ele>166</ele>
        <time>2015-11-23T15:11:56.947Z</time>
      </trkpt>
      <trkpt lat="49.46643" lon="3.74335">
        <ele>165.7</ele>
        <time>2015-11-23T15:11:57.987Z</time>
      </trkpt>
      <trkpt lat="49.46643" lon="3.74348">
        <ele>165.5</ele>
        <time>2015-11-23T15:12:05.969Z</time>
      </trkpt>
      <trkpt lat="49.46643" lon="3.7435">
        <ele>165.5</ele>
        <time>2015-11-23T15:12:06.967Z</time>
      </trkpt>
      <trkpt lat="49.46641" lon="3.74362">
        <ele>164.8</ele>
        <time>2015-11-23T15:12:13.948Z</time>
      </trkpt>
      <trkpt lat="49.46641" lon="3.74364">
        <ele>164.6</ele>
        <time>2015-11-23T15:12:14.943Z</time>
      </trkpt>
      <trkpt lat="49.46638" lon="3.74376">
        <ele>164.3</ele>
        <time>2015-11-23T15:12:22.057Z</time>
      </trkpt>
      <trkpt lat="49.46638" lon="3.74378">
        <ele>164.2</ele>
        <time>2015-11-23T15:12:22.936Z</time>
      </trkpt>
      <trkpt lat="49.46635" lon="3.74391">
        <ele>163.4</ele>
        <time>2015-11-23T15:12:31.015Z</time>
      </trkpt>
      <trkpt lat="49.46635" lon="3.74392">
        <ele>163.4</ele>
        <time>2015-11-23T15:12:32.021Z</time>
      </trkpt>
      <trkpt lat="49.46631" lon="3.74403">
        <ele>162.2</ele>
        <time>2015-11-23T15:12:40.015Z</time>
      </trkpt>
      <trkpt lat="49.46631" lon="3.74405">
        <ele>162.2</ele>
        <time>2015-11-23T15:12:41.006Z</time>
      </trkpt>
      <trkpt lat="49.46628" lon="3.74415">
        <ele>161.8</ele>
        <time>2015-11-23T15:12:47.997Z</time>
      </trkpt>
      <trkpt lat="49.46627" lon="3.74417">
        <ele>161.6</ele>
        <time>2015-11-23T15:12:48.976Z</time>
      </trkpt>
      <trkpt lat="49.46623" lon="3.74429">
        <ele>160.3</ele>
        <time>2015-11-23T15:12:56.964Z</time>
      </trkpt>
      <trkpt lat="49.46623" lon="3.74431">
        <ele>160.6</ele>
        <time>2015-11-23T15:12:57.953Z</time>
      </trkpt>
      <trkpt lat="49.46619" lon="3.74442">
        <ele>160</ele>
        <time>2015-11-23T15:13:04.944Z</time>
      </trkpt>
      <trkpt lat="49.46619" lon="3.74444">
        <ele>159.5</ele>
        <time>2015-11-23T15:13:05.948Z</time>
      </trkpt>
      <trkpt lat="49.46616" lon="3.74456">
        <ele>159.1</ele>
        <time>2015-11-23T15:13:13.956Z</time>
      </trkpt>
      <trkpt lat="49.46615" lon="3.74457">
        <ele>158.9</ele>
        <time>2015-11-23T15:13:14.941Z</time>
      </trkpt>
      <trkpt lat="49.46612" lon="3.74469">
        <ele>159.5</ele>
        <time>2015-11-23T15:13:22.038Z</time>
      </trkpt>
      <trkpt lat="49.46612" lon="3.7447">
        <ele>159.5</ele>
        <time>2015-11-23T15:13:23.016Z</time>
      </trkpt>
      <trkpt lat="49.4661" lon="3.74482">
        <ele>158.2</ele>
        <time>2015-11-23T15:13:31.018Z</time>
      </trkpt>
      <trkpt lat="49.46609" lon="3.74484">
        <ele>158</ele>
        <time>2015-11-23T15:13:31.998Z</time>
      </trkpt>
      <trkpt lat="49.46606" lon="3.74496">
        <ele>156.6</ele>
        <time>2015-11-23T15:13:41.027Z</time>
      </trkpt>
      <trkpt lat="49.46605" lon="3.74498">
        <ele>156.6</ele>
        <time>2015-11-23T15:13:42.019Z</time>
      </trkpt>
      <trkpt lat="49.46602" lon="3.74509">
        <ele>156.3</ele>
        <time>2015-11-23T15:13:49.029Z</time>
      </trkpt>
      <trkpt lat="49.46602" lon="3.74511">
        <ele>156</ele>
        <time>2015-11-23T15:13:50.022Z</time>
      </trkpt>
      <trkpt lat="49.46599" lon="3.74522">
        <ele>154.9</ele>
        <time>2015-11-23T15:13:57.016Z</time>
      </trkpt>
      <trkpt lat="49.46598" lon="3.74524">
        <ele>154.6</ele>
        <time>2015-11-23T15:13:58.000Z</time>
      </trkpt>
      <trkpt lat="49.46595" lon="3.74536">
        <ele>152.7</ele>
        <time>2015-11-23T15:14:07.002Z</time>
      </trkpt>
      <trkpt lat="49.46595" lon="3.74537">
        <ele>152.6</ele>
        <time>2015-11-23T15:14:07.991Z</time>
      </trkpt>
      <trkpt lat="49.46593" lon="3.7455">
        <ele>151.6</ele>
        <time>2015-11-23T15:14:15.982Z</time>
      </trkpt>
      <trkpt lat="49.46592" lon="3.74551">
        <ele>151.5</ele>
        <time>2015-11-23T15:14:16.962Z</time>
      </trkpt>
      <trkpt lat="49.46589" lon="3.74564">
        <ele>150.6</ele>
        <time>2015-11-23T15:14:24.050Z</time>
      </trkpt>
      <trkpt lat="49.46588" lon="3.74565">
        <ele>150.7</ele>
        <time>2015-11-23T15:14:25.045Z</time>
      </trkpt>
      <trkpt lat="49.46585" lon="3.74577">
        <ele>150</ele>
        <time>2015-11-23T15:14:32.018Z</time>
      </trkpt>
      <trkpt lat="49.46585" lon="3.74579">
        <ele>149.9</ele>
        <time>2015-11-23T15:14:32.992Z</time>
      </trkpt>
      <trkpt lat="49.46582" lon="3.74591">
        <ele>150.8</ele>
        <time>2015-11-23T15:14:40.192Z</time>
      </trkpt>
      <trkpt lat="49.46581" lon="3.74593">
        <ele>151.1</ele>
        <time>2015-11-23T15:14:40.962Z</time>
      </trkpt>
      <trkpt lat="49.46578" lon="3.74604">
        <ele>152.1</ele>
        <time>2015-11-23T15:14:47.947Z</time>
      </trkpt>
      <trkpt lat="49.46578" lon="3.74606">
        <ele>152.1</ele>
        <time>2015-11-23T15:14:48.971Z</time>
      </trkpt>
      <trkpt lat="49.46575" lon="3.74618">
        <ele>153.7</ele>
        <time>2015-11-23T15:14:55.053Z</time>
      </trkpt>
      <trkpt lat="49.46574" lon="3.74619">
        <ele>154.1</ele>
        <time>2015-11-23T15:14:55.936Z</time>
      </trkpt>
      <trkpt lat="49.46572" lon="3.74631">
        <ele>155.3</ele>
        <time>2015-11-23T15:15:03.010Z</time>
      </trkpt>
      <trkpt lat="49.46571" lon="3.74632">
        <ele>155.3</ele>
        <time>2015-11-23T15:15:04.012Z</time>
      </trkpt>
      <trkpt lat="49.46569" lon="3.74645">
        <ele>154.7</ele>
        <time>2015-11-23T15:15:13.035Z</time>
      </trkpt>
      <trkpt lat="49.46569" lon="3.74646">
        <ele>154.7</ele>
        <time>2015-11-23T15:15:13.938Z</time>
      </trkpt>
      <trkpt lat="49.46567" lon="3.74659">
        <ele>155</ele>
        <time>2015-11-23T15:15:24.255Z</time>
      </trkpt>
      <trkpt lat="49.46567" lon="3.7466">
        <ele>155</ele>
        <time>2015-11-23T15:15:25.032Z</time>
      </trkpt>
      <trkpt lat="49.46567" lon="3.74673">
        <ele>156.2</ele>
        <time>2015-11-23T15:15:35.023Z</time>
      </trkpt>
      <trkpt lat="49.46567" lon="3.74675">
        <ele>156.3</ele>
        <time>2015-11-23T15:15:36.025Z</time>
      </trkpt>
      <trkpt lat="49.46562" lon="3.74686">
        <ele>157.1</ele>
        <time>2015-11-23T15:15:40.989Z</time>
      </trkpt>
      <trkpt lat="49.46561" lon="3.74688">
        <ele>157.3</ele>
        <time>2015-11-23T15:15:42.003Z</time>
      </trkpt>
      <trkpt lat="49.46557" lon="3.747">
        <ele>157.7</ele>
        <time>2015-11-23T15:15:46.981Z</time>
      </trkpt>
      <trkpt lat="49.46557" lon="3.74703">
        <ele>157.8</ele>
        <time>2015-11-23T15:15:47.960Z</time>
      </trkpt>
      <trkpt lat="49.46558" lon="3.74715">
        <ele>158.4</ele>
        <time>2015-11-23T15:15:53.044Z</time>
      </trkpt>
      <trkpt lat="49.46558" lon="3.74717">
        <ele>158.4</ele>
        <time>2015-11-23T15:15:54.176Z</time>
      </trkpt>
      <trkpt lat="49.46558" lon="3.74718">
        <ele>158.5</ele>
        <time>2015-11-23T15:15:55.017Z</time>
      </trkpt>
      <trkpt lat="49.46558" lon="3.74718">
        <ele>158.5</ele>
        <time>2015-11-23T15:15:56.016Z</time>
      </trkpt>
      <trkpt lat="49.46558" lon="3.74718">
        <ele>158.7</ele>
        <time>2015-11-23T15:15:57.026Z</time>
      </trkpt>
      <trkpt lat="49.46558" lon="3.74718">
        <ele>158.7</ele>
        <time>2015-11-23T15:15:58.032Z</time>
      </trkpt>
      <trkpt lat="49.46559" lon="3.7473">
        <ele>158.5</ele>
        <time>2015-11-23T15:16:05.982Z</time>
      </trkpt>
      <trkpt lat="49.46558" lon="3.74733">
        <ele>157.8</ele>
        <time>2015-11-23T15:16:06.984Z</time>
      </trkpt>
      <trkpt lat="49.46558" lon="3.74745">
        <ele>156.8</ele>
        <time>2015-11-23T15:16:13.081Z</time>
      </trkpt>
      <trkpt lat="49.46557" lon="3.74746">
        <ele>156.6</ele>
        <time>2015-11-23T15:16:13.948Z</time>
      </trkpt>
      <trkpt lat="49.46558" lon="3.74759">
        <ele>155</ele>
        <time>2015-11-23T15:16:20.025Z</time>
      </trkpt>
      <trkpt lat="49.46558" lon="3.7476">
        <ele>154.9</ele>
        <time>2015-11-23T15:16:21.014Z</time>
      </trkpt>
      <trkpt lat="49.4656" lon="3.74774">
        <ele>153.9</ele>
        <time>2015-11-23T15:16:30.064Z</time>
      </trkpt>
      <trkpt lat="49.46561" lon="3.74776">
        <ele>153.5</ele>
        <time>2015-11-23T15:16:31.048Z</time>
      </trkpt>
      <trkpt lat="49.46563" lon="3.74788">
        <ele>152</ele>
        <time>2015-11-23T15:16:37.028Z</time>
      </trkpt>
      <trkpt lat="49.46563" lon="3.7479">
        <ele>152</ele>
        <time>2015-11-23T15:16:38.006Z</time>
      </trkpt>
      <trkpt lat="49.46563" lon="3.74802">
        <ele>151.5</ele>
        <time>2015-11-23T15:16:44.971Z</time>
      </trkpt>
      <trkpt lat="49.46562" lon="3.74804">
        <ele>151.4</ele>
        <time>2015-11-23T15:16:45.971Z</time>
      </trkpt>
      <trkpt lat="49.4656" lon="3.74815">
        <ele>151.5</ele>
        <time>2015-11-23T15:16:53.046Z</time>
      </trkpt>
      <trkpt lat="49.4656" lon="3.74817">
        <ele>151.7</ele>
        <time>2015-11-23T15:16:53.961Z</time>
      </trkpt>
      <trkpt lat="49.46556" lon="3.74829">
        <ele>151.5</ele>
        <time>2015-11-23T15:17:02.034Z</time>
      </trkpt>
      <trkpt lat="49.46557" lon="3.7483">
        <ele>151.5</ele>
        <time>2015-11-23T15:17:03.033Z</time>
      </trkpt>
      <trkpt lat="49.4656" lon="3.74842">
        <ele>152.5</ele>
        <time>2015-11-23T15:17:11.034Z</time>
      </trkpt>
      <trkpt lat="49.4656" lon="3.74844">
        <ele>152.6</ele>
        <time>2015-11-23T15:17:12.027Z</time>
      </trkpt>
      <trkpt lat="49.46563" lon="3.74856">
        <ele>153.2</ele>
        <time>2015-11-23T15:17:21.028Z</time>
      </trkpt>
      <trkpt lat="49.46563" lon="3.74857">
        <ele>153.3</ele>
        <time>2015-11-23T15:17:22.023Z</time>
      </trkpt>
      <trkpt lat="49.46566" lon="3.74869">
        <ele>153.3</ele>
        <time>2015-11-23T15:17:30.252Z</time>
      </trkpt>
      <trkpt lat="49.46567" lon="3.74871">
        <ele>153.3</ele>
        <time>2015-11-23T15:17:31.035Z</time>
      </trkpt>
      <trkpt lat="49.4657" lon="3.74884">
        <ele>154.4</ele>
        <time>2015-11-23T15:17:40.031Z</time>
      </trkpt>
      <trkpt lat="49.4657" lon="3.74886">
        <ele>154.8</ele>
        <time>2015-11-23T15:17:41.023Z</time>
      </trkpt>
      <trkpt lat="49.46571" lon="3.74899">
        <ele>155.6</ele>
        <time>2015-11-23T15:17:51.034Z</time>
      </trkpt>
      <trkpt lat="49.46571" lon="3.749">
        <ele>155.6</ele>
        <time>2015-11-23T15:17:52.032Z</time>
      </trkpt>
      <trkpt lat="49.46572" lon="3.74914">
        <ele>156.3</ele>
        <time>2015-11-23T15:18:03.059Z</time>
      </trkpt>
      <trkpt lat="49.46571" lon="3.74915">
        <ele>156.2</ele>
        <time>2015-11-23T15:18:03.957Z</time>
      </trkpt>
      <trkpt lat="49.46571" lon="3.74928">
        <ele>156.2</ele>
        <time>2015-11-23T15:18:13.968Z</time>
      </trkpt>
      <trkpt lat="49.46571" lon="3.74929">
        <ele>156.3</ele>
        <time>2015-11-23T15:18:14.959Z</time>
      </trkpt>
      <trkpt lat="49.46571" lon="3.74942">
        <ele>156.9</ele>
        <time>2015-11-23T15:18:24.057Z</time>
      </trkpt>
      <trkpt lat="49.46572" lon="3.74944">
        <ele>157</ele>
        <time>2015-11-23T15:18:25.047Z</time>
      </trkpt>
      <trkpt lat="49.46575" lon="3.74956">
        <ele>157.8</ele>
        <time>2015-11-23T15:18:35.052Z</time>
      </trkpt>
      <trkpt lat="49.46575" lon="3.74957">
        <ele>157.7</ele>
        <time>2015-11-23T15:18:35.955Z</time>
      </trkpt>
      <trkpt lat="49.46579" lon="3.74969">
        <ele>158.5</ele>
        <time>2015-11-23T15:18:45.041Z</time>
      </trkpt>
      <trkpt lat="49.4658" lon="3.7497">
        <ele>158.7</ele>
        <time>2015-11-23T15:18:46.027Z</time>
      </trkpt>
      <trkpt lat="49.46585" lon="3.7498">
        <ele>159.5</ele>
        <time>2015-11-23T15:18:55.032Z</time>
      </trkpt>
      <trkpt lat="49.46586" lon="3.74981">
        <ele>159.7</ele>
        <time>2015-11-23T15:18:56.015Z</time>
      </trkpt>
      <trkpt lat="49.46592" lon="3.74991">
        <ele>160.8</ele>
        <time>2015-11-23T15:19:05.064Z</time>
      </trkpt>
      <trkpt lat="49.46593" lon="3.74992">
        <ele>160.9</ele>
        <time>2015-11-23T15:19:05.957Z</time>
      </trkpt>
      <trkpt lat="49.46598" lon="3.75004">
        <ele>161.9</ele>
        <time>2015-11-23T15:19:15.034Z</time>
      </trkpt>
      <trkpt lat="49.46599" lon="3.75005">
        <ele>161.8</ele>
        <time>2015-11-23T15:19:16.026Z</time>
      </trkpt>
      <trkpt lat="49.46604" lon="3.75016">
        <ele>162.1</ele>
        <time>2015-11-23T15:19:26.027Z</time>
      </trkpt>
      <trkpt lat="49.46604" lon="3.75017">
        <ele>162.1</ele>
        <time>2015-11-23T15:19:27.015Z</time>
      </trkpt>
      <trkpt lat="49.46609" lon="3.75027">
        <ele>162.9</ele>
        <time>2015-11-23T15:19:35.011Z</time>
      </trkpt>
      <trkpt lat="49.4661" lon="3.75028">
        <ele>163</ele>
        <time>2015-11-23T15:19:36.000Z</time>
      </trkpt>
      <trkpt lat="49.46614" lon="3.7504">
        <ele>163.4</ele>
        <time>2015-11-23T15:19:47.078Z</time>
      </trkpt>
      <trkpt lat="49.46614" lon="3.75041">
        <ele>163.5</ele>
        <time>2015-11-23T15:19:47.967Z</time>
      </trkpt>
      <trkpt lat="49.46617" lon="3.75049">
        <ele>165.3</ele>
        <time>2015-11-23T15:19:56.019Z</time>
      </trkpt>
      <trkpt lat="49.46617" lon="3.7505">
        <ele>165.5</ele>
        <time>2015-11-23T15:19:57.013Z</time>
      </trkpt>
      <trkpt lat="49.46617" lon="3.7505">
        <ele>165.5</ele>
        <time>2015-11-23T15:19:59.066Z</time>
      </trkpt>
      <trkpt lat="49.46617" lon="3.7505">
        <ele>165.6</ele>
        <time>2015-11-23T15:19:59.956Z</time>
      </trkpt>
      <trkpt lat="49.46621" lon="3.75061">
        <ele>165.8</ele>
        <time>2015-11-23T15:20:12.008Z</time>
      </trkpt>
      <trkpt lat="49.46622" lon="3.75062">
        <ele>165.7</ele>
        <time>2015-11-23T15:20:12.994Z</time>
      </trkpt>
      <trkpt lat="49.46623" lon="3.75074">
        <ele>164.7</ele>
        <time>2015-11-23T15:20:21.036Z</time>
      </trkpt>
      <trkpt lat="49.46623" lon="3.75076">
        <ele>164.7</ele>
        <time>2015-11-23T15:20:22.042Z</time>
      </trkpt>
      <trkpt lat="49.46624" lon="3.75089">
        <ele>165.2</ele>
        <time>2015-11-23T15:20:31.062Z</time>
      </trkpt>
      <trkpt lat="49.46624" lon="3.75091">
        <ele>165.2</ele>
        <time>2015-11-23T15:20:32.046Z</time>
      </trkpt>
      <trkpt lat="49.46618" lon="3.75099">
        <ele>165.4</ele>
        <time>2015-11-23T15:20:42.087Z</time>
      </trkpt>
      <trkpt lat="49.46617" lon="3.751">
        <ele>165.6</ele>
        <time>2015-11-23T15:20:42.986Z</time>
      </trkpt>
      <trkpt lat="49.4661" lon="3.75108">
        <ele>165.7</ele>
        <time>2015-11-23T15:20:53.048Z</time>
      </trkpt>
      <trkpt lat="49.46609" lon="3.75109">
        <ele>165.6</ele>
        <time>2015-11-23T15:20:53.948Z</time>
      </trkpt>
      <trkpt lat="49.46603" lon="3.75118">
        <ele>165.4</ele>
        <time>2015-11-23T15:21:02.996Z</time>
      </trkpt>
      <trkpt lat="49.46601" lon="3.75117">
        <ele>165.4</ele>
        <time>2015-11-23T15:21:04.017Z</time>
      </trkpt>
      <trkpt lat="49.46597" lon="3.75129">
        <ele>165.2</ele>
        <time>2015-11-23T15:21:10.973Z</time>
      </trkpt>
      <trkpt lat="49.46597" lon="3.7513">
        <ele>165.2</ele>
        <time>2015-11-23T15:21:12.025Z</time>
      </trkpt>
      <trkpt lat="49.4659" lon="3.75138">
        <ele>165.3</ele>
        <time>2015-11-23T15:21:21.031Z</time>
      </trkpt>
      <trkpt lat="49.46589" lon="3.75139">
        <ele>165.4</ele>
        <time>2015-11-23T15:21:22.020Z</time>
      </trkpt>
      <trkpt lat="49.46582" lon="3.75147">
        <ele>164.9</ele>
        <time>2015-11-23T15:21:29.031Z</time>
      </trkpt>
      <trkpt lat="49.46582" lon="3.75148">
        <ele>164.9</ele>
        <time>2015-11-23T15:21:30.003Z</time>
      </trkpt>
      <trkpt lat="49.46575" lon="3.75156">
        <ele>164</ele>
        <time>2015-11-23T15:21:37.025Z</time>
      </trkpt>
      <trkpt lat="49.46575" lon="3.75157">
        <ele>163.9</ele>
        <time>2015-11-23T15:21:37.997Z</time>
      </trkpt>
      <trkpt lat="49.46568" lon="3.75166">
        <ele>163.6</ele>
        <time>2015-11-23T15:21:46.001Z</time>
      </trkpt>
      <trkpt lat="49.46568" lon="3.75167">
        <ele>163.5</ele>
        <time>2015-11-23T15:21:46.984Z</time>
      </trkpt>
      <trkpt lat="49.46562" lon="3.75175">
        <ele>164.1</ele>
        <time>2015-11-23T15:21:55.006Z</time>
      </trkpt>
      <trkpt lat="49.46561" lon="3.75176">
        <ele>164.2</ele>
        <time>2015-11-23T15:21:55.992Z</time>
      </trkpt>
      <trkpt lat="49.46553" lon="3.75183">
        <ele>164.1</ele>
        <time>2015-11-23T15:22:03.003Z</time>
      </trkpt>
      <trkpt lat="49.46553" lon="3.75183">
        <ele>163.9</ele>
        <time>2015-11-23T15:22:03.991Z</time>
      </trkpt>
      <trkpt lat="49.46548" lon="3.75192">
        <ele>163.9</ele>
        <time>2015-11-23T15:22:11.020Z</time>
      </trkpt>
      <trkpt lat="49.46547" lon="3.75195">
        <ele>163.7</ele>
        <time>2015-11-23T15:22:11.949Z</time>
      </trkpt>
      <trkpt lat="49.46543" lon="3.75205">
        <ele>163.1</ele>
        <time>2015-11-23T15:22:19.070Z</time>
      </trkpt>
      <trkpt lat="49.46542" lon="3.75207">
        <ele>163.1</ele>
        <time>2015-11-23T15:22:19.945Z</time>
      </trkpt>
      <trkpt lat="49.46538" lon="3.75218">
        <ele>162.4</ele>
        <time>2015-11-23T15:22:27.978Z</time>
      </trkpt>
      <trkpt lat="49.46538" lon="3.7522">
        <ele>162.3</ele>
        <time>2015-11-23T15:22:28.960Z</time>
      </trkpt>
      <trkpt lat="49.46535" lon="3.75232">
        <ele>162</ele>
        <time>2015-11-23T15:22:37.017Z</time>
      </trkpt>
      <trkpt lat="49.46535" lon="3.75233">
        <ele>161.9</ele>
        <time>2015-11-23T15:22:38.016Z</time>
      </trkpt>
      <trkpt lat="49.46531" lon="3.75245">
        <ele>161.4</ele>
        <time>2015-11-23T15:22:47.007Z</time>
      </trkpt>
      <trkpt lat="49.46531" lon="3.75247">
        <ele>161.5</ele>
        <time>2015-11-23T15:22:47.999Z</time>
      </trkpt>
      <trkpt lat="49.46528" lon="3.7526">
        <ele>160.4</ele>
        <time>2015-11-23T15:22:55.069Z</time>
      </trkpt>
      <trkpt lat="49.46528" lon="3.75262">
        <ele>159.9</ele>
        <time>2015-11-23T15:22:55.961Z</time>
      </trkpt>
      <trkpt lat="49.46525" lon="3.75275">
        <ele>160.3</ele>
        <time>2015-11-23T15:23:04.067Z</time>
      </trkpt>
      <trkpt lat="49.46525" lon="3.75276">
        <ele>160.5</ele>
        <time>2015-11-23T15:23:04.959Z</time>
      </trkpt>
      <trkpt lat="49.46523" lon="3.75289">
        <ele>160.2</ele>
        <time>2015-11-23T15:23:14.003Z</time>
      </trkpt>
      <trkpt lat="49.46522" lon="3.75291">
        <ele>160.2</ele>
        <time>2015-11-23T15:23:14.988Z</time>
      </trkpt>
      <trkpt lat="49.46522" lon="3.75304">
        <ele>158.7</ele>
        <time>2015-11-23T15:23:24.020Z</time>
      </trkpt>
      <trkpt lat="49.46522" lon="3.75306">
        <ele>158.6</ele>
        <time>2015-11-23T15:23:25.011Z</time>
      </trkpt>
      <trkpt lat="49.46527" lon="3.7531">
        <ele>156.5</ele>
        <time>2015-11-23T15:23:31.972Z</time>
      </trkpt>
      <trkpt lat="49.46527" lon="3.7531">
        <ele>156.4</ele>
        <time>2015-11-23T15:23:32.961Z</time>
      </trkpt>
      <trkpt lat="49.46527" lon="3.7531">
        <ele>156.5</ele>
        <time>2015-11-23T15:23:37.026Z</time>
      </trkpt>
      <trkpt lat="49.46527" lon="3.75311">
        <ele>157.1</ele>
        <time>2015-11-23T15:23:38.013Z</time>
      </trkpt>
      <trkpt lat="49.46531" lon="3.75323">
        <ele>156.9</ele>
        <time>2015-11-23T15:23:50.027Z</time>
      </trkpt>
      <trkpt lat="49.46531" lon="3.75325">
        <ele>156.5</ele>
        <time>2015-11-23T15:23:51.006Z</time>
      </trkpt>
      <trkpt lat="49.46531" lon="3.75326">
        <ele>155.9</ele>
        <time>2015-11-23T15:23:52.038Z</time>
      </trkpt>
      <trkpt lat="49.46531" lon="3.75327">
        <ele>156</ele>
        <time>2015-11-23T15:23:53.025Z</time>
      </trkpt>
      <trkpt lat="49.4653" lon="3.75328">
        <ele>156.4</ele>
        <time>2015-11-23T15:24:37.074Z</time>
      </trkpt>
      <trkpt lat="49.46531" lon="3.75321">
        <ele>153.7</ele>
        <time>2015-11-23T15:24:37.959Z</time>
      </trkpt>
      <trkpt lat="49.46531" lon="3.75321">
        <ele>153.7</ele>
        <time>2015-11-23T15:24:37.969Z</time>
      </trkpt>
      <trkpt lat="49.46532" lon="3.75321">
        <ele>153.7</ele>
        <time>2015-11-23T15:24:39.054Z</time>
      </trkpt>
      <trkpt lat="49.46532" lon="3.75321">
        <ele>153.7</ele>
        <time>2015-11-23T15:24:39.355Z</time>
      </trkpt>
      <trkpt lat="49.46532" lon="3.75321">
        <ele>153.6</ele>
        <time>2015-11-23T15:24:39.982Z</time>
      </trkpt>
      <trkpt lat="49.46531" lon="3.75321">
        <ele>153.6</ele>
        <time>2015-11-23T15:24:45.097Z</time>
      </trkpt>
    </trkseg>
  </trk>
</gpx>